<?xml version="1.0" encoding="UTF-8" standalone="no" ?>
<gpx xmlns="http://www.topografix.com/GPX/1/1" xmlns:xsi="http://www.w3.org/2001/XMLSchema-instance" xsi:schemaLocation="http://www.topografix.com/GPX/1/1 http://www.topografix.com/GPX/1/1/gpx.xsd" version="1.1" creator="VisuGPX - https://www.visugpx.com">
  <metadata>
    <name>Lozère Jour 3</name>
    <desc><![CDATA[les montagnes de mialanes et des ducs]]></desc>
  </metadata>
  <trk>
    <name><![CDATA[Lozère Jour 3_1]]></name>
    <trkseg>
      <trkpt lat="44.86284" lon="3.41006">
        <ele>1153.7</ele>
        <time>2022-06-09T08:52:56Z</time>
      </trkpt>
      <trkpt lat="44.86286" lon="3.41011">
        <ele>1153.3</ele>
        <time>2022-06-09T08:55:28Z</time>
      </trkpt>
      <trkpt lat="44.8629" lon="3.41017">
        <ele>1154.9</ele>
        <time>2022-06-09T08:55:33Z</time>
      </trkpt>
      <trkpt lat="44.86292" lon="3.41022">
        <ele>1155.3</ele>
        <time>2022-06-09T08:55:39Z</time>
      </trkpt>
      <trkpt lat="44.86295" lon="3.41027">
        <ele>1154.8</ele>
        <time>2022-06-09T08:55:46Z</time>
      </trkpt>
      <trkpt lat="44.86299" lon="3.41032">
        <ele>1153.7</ele>
        <time>2022-06-09T08:55:52Z</time>
      </trkpt>
      <trkpt lat="44.86299" lon="3.41039">
        <ele>1153.6</ele>
        <time>2022-06-09T08:55:57Z</time>
      </trkpt>
      <trkpt lat="44.86298" lon="3.41046">
        <ele>1153.9</ele>
        <time>2022-06-09T08:56:02Z</time>
      </trkpt>
      <trkpt lat="44.86296" lon="3.41052">
        <ele>1154.7</ele>
        <time>2022-06-09T08:56:07Z</time>
      </trkpt>
      <trkpt lat="44.86293" lon="3.41058">
        <ele>1152.7</ele>
        <time>2022-06-09T08:56:12Z</time>
      </trkpt>
      <trkpt lat="44.86291" lon="3.41064">
        <ele>1152</ele>
        <time>2022-06-09T08:56:17Z</time>
      </trkpt>
      <trkpt lat="44.86291" lon="3.41071">
        <ele>1153.3</ele>
        <time>2022-06-09T08:56:22Z</time>
      </trkpt>
      <trkpt lat="44.8629" lon="3.41078">
        <ele>1154.3</ele>
        <time>2022-06-09T08:56:27Z</time>
      </trkpt>
      <trkpt lat="44.86287" lon="3.41084">
        <ele>1154.2</ele>
        <time>2022-06-09T08:56:33Z</time>
      </trkpt>
      <trkpt lat="44.86287" lon="3.4109">
        <ele>1156.2</ele>
        <time>2022-06-09T08:56:47Z</time>
      </trkpt>
      <trkpt lat="44.86288" lon="3.41097">
        <ele>1157.4</ele>
        <time>2022-06-09T08:56:53Z</time>
      </trkpt>
      <trkpt lat="44.86288" lon="3.41105">
        <ele>1161.3</ele>
        <time>2022-06-09T08:57:06Z</time>
      </trkpt>
      <trkpt lat="44.86289" lon="3.41112">
        <ele>1161.3</ele>
        <time>2022-06-09T08:57:10Z</time>
      </trkpt>
      <trkpt lat="44.86289" lon="3.4112">
        <ele>1161.1</ele>
        <time>2022-06-09T08:57:14Z</time>
      </trkpt>
      <trkpt lat="44.86288" lon="3.41127">
        <ele>1161.5</ele>
        <time>2022-06-09T08:57:19Z</time>
      </trkpt>
      <trkpt lat="44.86289" lon="3.41134">
        <ele>1162.3</ele>
        <time>2022-06-09T08:57:25Z</time>
      </trkpt>
      <trkpt lat="44.8629" lon="3.4114">
        <ele>1163.1</ele>
        <time>2022-06-09T08:57:31Z</time>
      </trkpt>
      <trkpt lat="44.86293" lon="3.41146">
        <ele>1165.9</ele>
        <time>2022-06-09T08:57:40Z</time>
      </trkpt>
      <trkpt lat="44.86293" lon="3.41153">
        <ele>1166</ele>
        <time>2022-06-09T08:57:52Z</time>
      </trkpt>
      <trkpt lat="44.86296" lon="3.41158">
        <ele>1168.3</ele>
        <time>2022-06-09T08:57:58Z</time>
      </trkpt>
      <trkpt lat="44.86299" lon="3.41163">
        <ele>1171.2</ele>
        <time>2022-06-09T08:58:04Z</time>
      </trkpt>
      <trkpt lat="44.86301" lon="3.41169">
        <ele>1171.9</ele>
        <time>2022-06-09T08:58:10Z</time>
      </trkpt>
      <trkpt lat="44.86303" lon="3.41176">
        <ele>1171.9</ele>
        <time>2022-06-09T08:58:17Z</time>
      </trkpt>
      <trkpt lat="44.86306" lon="3.41182">
        <ele>1172.8</ele>
        <time>2022-06-09T08:58:25Z</time>
      </trkpt>
      <trkpt lat="44.86309" lon="3.41188">
        <ele>1172.4</ele>
        <time>2022-06-09T08:58:32Z</time>
      </trkpt>
      <trkpt lat="44.86311" lon="3.41195">
        <ele>1172.6</ele>
        <time>2022-06-09T08:58:40Z</time>
      </trkpt>
      <trkpt lat="44.86312" lon="3.41201">
        <ele>1173.4</ele>
        <time>2022-06-09T08:58:49Z</time>
      </trkpt>
      <trkpt lat="44.86311" lon="3.41207">
        <ele>1172.5</ele>
        <time>2022-06-09T08:58:55Z</time>
      </trkpt>
      <trkpt lat="44.8631" lon="3.41214">
        <ele>1172</ele>
        <time>2022-06-09T08:59:02Z</time>
      </trkpt>
      <trkpt lat="44.86311" lon="3.4122">
        <ele>1173</ele>
        <time>2022-06-09T08:59:10Z</time>
      </trkpt>
      <trkpt lat="44.86312" lon="3.41227">
        <ele>1174.5</ele>
        <time>2022-06-09T08:59:17Z</time>
      </trkpt>
      <trkpt lat="44.86316" lon="3.4123">
        <ele>1175.8</ele>
        <time>2022-06-09T08:59:39Z</time>
      </trkpt>
      <trkpt lat="44.86311" lon="3.41229">
        <ele>1178.8</ele>
        <time>2022-06-09T09:00:18Z</time>
      </trkpt>
      <trkpt lat="44.86312" lon="3.41236">
        <ele>1179.9</ele>
        <time>2022-06-09T09:00:56Z</time>
      </trkpt>
      <trkpt lat="44.86312" lon="3.41242">
        <ele>1179.6</ele>
        <time>2022-06-09T09:01:07Z</time>
      </trkpt>
      <trkpt lat="44.86311" lon="3.41248">
        <ele>1181.1</ele>
        <time>2022-06-09T09:01:18Z</time>
      </trkpt>
      <trkpt lat="44.86312" lon="3.41255">
        <ele>1181.5</ele>
        <time>2022-06-09T09:01:26Z</time>
      </trkpt>
      <trkpt lat="44.86314" lon="3.41261">
        <ele>1182.3</ele>
        <time>2022-06-09T09:01:30Z</time>
      </trkpt>
      <trkpt lat="44.86317" lon="3.41267">
        <ele>1182.5</ele>
        <time>2022-06-09T09:01:34Z</time>
      </trkpt>
      <trkpt lat="44.8632" lon="3.41272">
        <ele>1183.6</ele>
        <time>2022-06-09T09:01:39Z</time>
      </trkpt>
      <trkpt lat="44.86321" lon="3.41279">
        <ele>1183.4</ele>
        <time>2022-06-09T09:01:45Z</time>
      </trkpt>
      <trkpt lat="44.86323" lon="3.41285">
        <ele>1183</ele>
        <time>2022-06-09T09:01:52Z</time>
      </trkpt>
      <trkpt lat="44.86323" lon="3.41291">
        <ele>1182.8</ele>
        <time>2022-06-09T09:01:59Z</time>
      </trkpt>
      <trkpt lat="44.86324" lon="3.41298">
        <ele>1182.4</ele>
        <time>2022-06-09T09:02:10Z</time>
      </trkpt>
      <trkpt lat="44.86325" lon="3.41305">
        <ele>1182.8</ele>
        <time>2022-06-09T09:02:19Z</time>
      </trkpt>
      <trkpt lat="44.86326" lon="3.41312">
        <ele>1183.1</ele>
        <time>2022-06-09T09:02:26Z</time>
      </trkpt>
      <trkpt lat="44.86327" lon="3.41319">
        <ele>1184.1</ele>
        <time>2022-06-09T09:02:42Z</time>
      </trkpt>
      <trkpt lat="44.8633" lon="3.41323">
        <ele>1187.1</ele>
        <time>2022-06-09T09:03:03Z</time>
      </trkpt>
      <trkpt lat="44.86334" lon="3.41327">
        <ele>1188.3</ele>
        <time>2022-06-09T09:03:08Z</time>
      </trkpt>
      <trkpt lat="44.86337" lon="3.41333">
        <ele>1189.3</ele>
        <time>2022-06-09T09:03:14Z</time>
      </trkpt>
      <trkpt lat="44.8634" lon="3.41339">
        <ele>1188</ele>
        <time>2022-06-09T09:03:20Z</time>
      </trkpt>
      <trkpt lat="44.86345" lon="3.41341">
        <ele>1187.6</ele>
        <time>2022-06-09T09:03:41Z</time>
      </trkpt>
      <trkpt lat="44.86346" lon="3.41348">
        <ele>1192</ele>
        <time>2022-06-09T09:04:13Z</time>
      </trkpt>
      <trkpt lat="44.86351" lon="3.4135">
        <ele>1190.9</ele>
        <time>2022-06-09T09:04:28Z</time>
      </trkpt>
      <trkpt lat="44.86354" lon="3.41354">
        <ele>1192.6</ele>
        <time>2022-06-09T09:04:50Z</time>
      </trkpt>
      <trkpt lat="44.86359" lon="3.41357">
        <ele>1192.8</ele>
        <time>2022-06-09T09:04:58Z</time>
      </trkpt>
      <trkpt lat="44.86362" lon="3.4136">
        <ele>1193.1</ele>
        <time>2022-06-09T09:05:07Z</time>
      </trkpt>
      <trkpt lat="44.86367" lon="3.41363">
        <ele>1195</ele>
        <time>2022-06-09T09:05:12Z</time>
      </trkpt>
      <trkpt lat="44.8637" lon="3.41368">
        <ele>1197.4</ele>
        <time>2022-06-09T09:05:22Z</time>
      </trkpt>
      <trkpt lat="44.86368" lon="3.41373">
        <ele>1194.7</ele>
        <time>2022-06-09T09:05:38Z</time>
      </trkpt>
      <trkpt lat="44.86365" lon="3.41378">
        <ele>1194.1</ele>
        <time>2022-06-09T09:05:48Z</time>
      </trkpt>
      <trkpt lat="44.86361" lon="3.41381">
        <ele>1193.9</ele>
        <time>2022-06-09T09:05:55Z</time>
      </trkpt>
      <trkpt lat="44.86358" lon="3.41386">
        <ele>1193</ele>
        <time>2022-06-09T09:06:03Z</time>
      </trkpt>
      <trkpt lat="44.86354" lon="3.41389">
        <ele>1194.2</ele>
        <time>2022-06-09T09:06:11Z</time>
      </trkpt>
      <trkpt lat="44.86351" lon="3.41394">
        <ele>1196.8</ele>
        <time>2022-06-09T09:06:22Z</time>
      </trkpt>
      <trkpt lat="44.86351" lon="3.414">
        <ele>1197.9</ele>
        <time>2022-06-09T09:06:29Z</time>
      </trkpt>
      <trkpt lat="44.86352" lon="3.41407">
        <ele>1201.2</ele>
        <time>2022-06-09T09:06:36Z</time>
      </trkpt>
      <trkpt lat="44.86353" lon="3.41413">
        <ele>1205.4</ele>
        <time>2022-06-09T09:06:44Z</time>
      </trkpt>
      <trkpt lat="44.86358" lon="3.41416">
        <ele>1206.6</ele>
        <time>2022-06-09T09:06:50Z</time>
      </trkpt>
      <trkpt lat="44.8636" lon="3.41421">
        <ele>1207.6</ele>
        <time>2022-06-09T09:06:59Z</time>
      </trkpt>
      <trkpt lat="44.86363" lon="3.41426">
        <ele>1207.4</ele>
        <time>2022-06-09T09:07:08Z</time>
      </trkpt>
      <trkpt lat="44.86368" lon="3.41427">
        <ele>1208</ele>
        <time>2022-06-09T09:07:19Z</time>
      </trkpt>
      <trkpt lat="44.86373" lon="3.4143">
        <ele>1209.2</ele>
        <time>2022-06-09T09:07:29Z</time>
      </trkpt>
      <trkpt lat="44.86377" lon="3.41432">
        <ele>1212</ele>
        <time>2022-06-09T09:07:41Z</time>
      </trkpt>
      <trkpt lat="44.86382" lon="3.41435">
        <ele>1212.2</ele>
        <time>2022-06-09T09:07:49Z</time>
      </trkpt>
      <trkpt lat="44.86386" lon="3.41439">
        <ele>1212.4</ele>
        <time>2022-06-09T09:07:56Z</time>
      </trkpt>
      <trkpt lat="44.8639" lon="3.41443">
        <ele>1211.5</ele>
        <time>2022-06-09T09:08:03Z</time>
      </trkpt>
      <trkpt lat="44.86395" lon="3.41446">
        <ele>1210.7</ele>
        <time>2022-06-09T09:08:07Z</time>
      </trkpt>
      <trkpt lat="44.86401" lon="3.41449">
        <ele>1209.7</ele>
        <time>2022-06-09T09:08:12Z</time>
      </trkpt>
      <trkpt lat="44.86403" lon="3.41454">
        <ele>1208.5</ele>
        <time>2022-06-09T09:08:18Z</time>
      </trkpt>
      <trkpt lat="44.86407" lon="3.41457">
        <ele>1208.1</ele>
        <time>2022-06-09T09:08:25Z</time>
      </trkpt>
      <trkpt lat="44.86411" lon="3.41461">
        <ele>1208.6</ele>
        <time>2022-06-09T09:08:37Z</time>
      </trkpt>
      <trkpt lat="44.86416" lon="3.41461">
        <ele>1211.1</ele>
        <time>2022-06-09T09:08:44Z</time>
      </trkpt>
      <trkpt lat="44.86421" lon="3.41462">
        <ele>1212.6</ele>
        <time>2022-06-09T09:08:50Z</time>
      </trkpt>
      <trkpt lat="44.86425" lon="3.41465">
        <ele>1213.6</ele>
        <time>2022-06-09T09:08:55Z</time>
      </trkpt>
      <trkpt lat="44.8643" lon="3.41465">
        <ele>1216.5</ele>
        <time>2022-06-09T09:09:02Z</time>
      </trkpt>
      <trkpt lat="44.86435" lon="3.41466">
        <ele>1222.1</ele>
        <time>2022-06-09T09:09:19Z</time>
      </trkpt>
      <trkpt lat="44.86438" lon="3.41471">
        <ele>1201.3</ele>
        <time>2022-06-09T09:09:42Z</time>
      </trkpt>
      <trkpt lat="44.86439" lon="3.41477">
        <ele>1214.4</ele>
        <time>2022-06-09T09:11:55Z</time>
      </trkpt>
      <trkpt lat="44.86444" lon="3.4148">
        <ele>1210</ele>
        <time>2022-06-09T09:12:08Z</time>
      </trkpt>
      <trkpt lat="44.86448" lon="3.41483">
        <ele>1212.9</ele>
        <time>2022-06-09T09:12:12Z</time>
      </trkpt>
      <trkpt lat="44.86452" lon="3.41484">
        <ele>1215.6</ele>
        <time>2022-06-09T09:12:16Z</time>
      </trkpt>
      <trkpt lat="44.86457" lon="3.41486">
        <ele>1220.4</ele>
        <time>2022-06-09T09:12:22Z</time>
      </trkpt>
      <trkpt lat="44.86462" lon="3.41486">
        <ele>1224</ele>
        <time>2022-06-09T09:12:29Z</time>
      </trkpt>
      <trkpt lat="44.86466" lon="3.41487">
        <ele>1226.3</ele>
        <time>2022-06-09T09:12:34Z</time>
      </trkpt>
      <trkpt lat="44.86471" lon="3.4149">
        <ele>1227.8</ele>
        <time>2022-06-09T09:12:40Z</time>
      </trkpt>
      <trkpt lat="44.86474" lon="3.41495">
        <ele>1210.6</ele>
        <time>2022-06-09T09:12:47Z</time>
      </trkpt>
      <trkpt lat="44.86479" lon="3.41499">
        <ele>1216.8</ele>
        <time>2022-06-09T09:12:53Z</time>
      </trkpt>
      <trkpt lat="44.86484" lon="3.41502">
        <ele>1221.7</ele>
        <time>2022-06-09T09:12:57Z</time>
      </trkpt>
      <trkpt lat="44.86488" lon="3.41507">
        <ele>1223</ele>
        <time>2022-06-09T09:13:00Z</time>
      </trkpt>
      <trkpt lat="44.86492" lon="3.41511">
        <ele>1224.3</ele>
        <time>2022-06-09T09:13:03Z</time>
      </trkpt>
      <trkpt lat="44.86495" lon="3.41515">
        <ele>1225.8</ele>
        <time>2022-06-09T09:13:08Z</time>
      </trkpt>
      <trkpt lat="44.86499" lon="3.4152">
        <ele>1227</ele>
        <time>2022-06-09T09:13:14Z</time>
      </trkpt>
      <trkpt lat="44.86502" lon="3.41525">
        <ele>1228.2</ele>
        <time>2022-06-09T09:13:19Z</time>
      </trkpt>
      <trkpt lat="44.86505" lon="3.4153">
        <ele>1228.2</ele>
        <time>2022-06-09T09:13:23Z</time>
      </trkpt>
      <trkpt lat="44.86508" lon="3.41536">
        <ele>1228.4</ele>
        <time>2022-06-09T09:13:27Z</time>
      </trkpt>
      <trkpt lat="44.8651" lon="3.41543">
        <ele>1228.4</ele>
        <time>2022-06-09T09:13:31Z</time>
      </trkpt>
      <trkpt lat="44.86512" lon="3.41551">
        <ele>1229.6</ele>
        <time>2022-06-09T09:13:36Z</time>
      </trkpt>
      <trkpt lat="44.86513" lon="3.41558">
        <ele>1229.2</ele>
        <time>2022-06-09T09:13:40Z</time>
      </trkpt>
      <trkpt lat="44.86514" lon="3.41565">
        <ele>1228.9</ele>
        <time>2022-06-09T09:13:44Z</time>
      </trkpt>
      <trkpt lat="44.86517" lon="3.41571">
        <ele>1229.5</ele>
        <time>2022-06-09T09:13:49Z</time>
      </trkpt>
      <trkpt lat="44.8652" lon="3.41576">
        <ele>1229.1</ele>
        <time>2022-06-09T09:13:53Z</time>
      </trkpt>
      <trkpt lat="44.86523" lon="3.41581">
        <ele>1228.5</ele>
        <time>2022-06-09T09:13:57Z</time>
      </trkpt>
      <trkpt lat="44.86527" lon="3.41586">
        <ele>1230.8</ele>
        <time>2022-06-09T09:14:03Z</time>
      </trkpt>
      <trkpt lat="44.86529" lon="3.41592">
        <ele>1231.9</ele>
        <time>2022-06-09T09:14:08Z</time>
      </trkpt>
      <trkpt lat="44.8653" lon="3.41598">
        <ele>1232.4</ele>
        <time>2022-06-09T09:14:13Z</time>
      </trkpt>
      <trkpt lat="44.86532" lon="3.41605">
        <ele>1230.8</ele>
        <time>2022-06-09T09:14:18Z</time>
      </trkpt>
      <trkpt lat="44.86532" lon="3.41612">
        <ele>1231.2</ele>
        <time>2022-06-09T09:14:22Z</time>
      </trkpt>
      <trkpt lat="44.86531" lon="3.41618">
        <ele>1230.8</ele>
        <time>2022-06-09T09:14:27Z</time>
      </trkpt>
      <trkpt lat="44.8653" lon="3.41625">
        <ele>1227.2</ele>
        <time>2022-06-09T09:14:34Z</time>
      </trkpt>
      <trkpt lat="44.86527" lon="3.41631">
        <ele>1226.9</ele>
        <time>2022-06-09T09:14:38Z</time>
      </trkpt>
      <trkpt lat="44.86523" lon="3.41635">
        <ele>1227.9</ele>
        <time>2022-06-09T09:14:43Z</time>
      </trkpt>
      <trkpt lat="44.86521" lon="3.41642">
        <ele>1229.9</ele>
        <time>2022-06-09T09:14:49Z</time>
      </trkpt>
      <trkpt lat="44.86521" lon="3.4165">
        <ele>1232.5</ele>
        <time>2022-06-09T09:14:54Z</time>
      </trkpt>
      <trkpt lat="44.86521" lon="3.41657">
        <ele>1234.6</ele>
        <time>2022-06-09T09:15:02Z</time>
      </trkpt>
      <trkpt lat="44.86521" lon="3.41663">
        <ele>1238</ele>
        <time>2022-06-09T09:15:11Z</time>
      </trkpt>
      <trkpt lat="44.86521" lon="3.4167">
        <ele>1238.5</ele>
        <time>2022-06-09T09:15:17Z</time>
      </trkpt>
      <trkpt lat="44.86519" lon="3.41676">
        <ele>1237.5</ele>
        <time>2022-06-09T09:15:24Z</time>
      </trkpt>
      <trkpt lat="44.86517" lon="3.41683">
        <ele>1238.2</ele>
        <time>2022-06-09T09:15:47Z</time>
      </trkpt>
      <trkpt lat="44.86513" lon="3.41683">
        <ele>1233.7</ele>
        <time>2022-06-09T09:16:29Z</time>
      </trkpt>
      <trkpt lat="44.86507" lon="3.41683">
        <ele>1234.8</ele>
        <time>2022-06-09T09:16:37Z</time>
      </trkpt>
      <trkpt lat="44.86503" lon="3.41686">
        <ele>1235</ele>
        <time>2022-06-09T09:16:41Z</time>
      </trkpt>
      <trkpt lat="44.86498" lon="3.41685">
        <ele>1238.4</ele>
        <time>2022-06-09T09:16:50Z</time>
      </trkpt>
      <trkpt lat="44.86494" lon="3.41686">
        <ele>1251.9</ele>
        <time>2022-06-09T09:18:05Z</time>
      </trkpt>
      <trkpt lat="44.86493" lon="3.41692">
        <ele>1252.9</ele>
        <time>2022-06-09T09:18:18Z</time>
      </trkpt>
      <trkpt lat="44.86492" lon="3.41699">
        <ele>1253.3</ele>
        <time>2022-06-09T09:18:27Z</time>
      </trkpt>
      <trkpt lat="44.86492" lon="3.41705">
        <ele>1253.8</ele>
        <time>2022-06-09T09:18:34Z</time>
      </trkpt>
      <trkpt lat="44.86493" lon="3.41712">
        <ele>1254.8</ele>
        <time>2022-06-09T09:18:41Z</time>
      </trkpt>
      <trkpt lat="44.86494" lon="3.41719">
        <ele>1256.7</ele>
        <time>2022-06-09T09:18:50Z</time>
      </trkpt>
      <trkpt lat="44.86493" lon="3.41725">
        <ele>1253.3</ele>
        <time>2022-06-09T09:18:59Z</time>
      </trkpt>
      <trkpt lat="44.86492" lon="3.41732">
        <ele>1250.3</ele>
        <time>2022-06-09T09:19:07Z</time>
      </trkpt>
      <trkpt lat="44.86489" lon="3.41738">
        <ele>1250.6</ele>
        <time>2022-06-09T09:19:13Z</time>
      </trkpt>
      <trkpt lat="44.86487" lon="3.41744">
        <ele>1249.3</ele>
        <time>2022-06-09T09:19:19Z</time>
      </trkpt>
      <trkpt lat="44.86484" lon="3.41749">
        <ele>1248.9</ele>
        <time>2022-06-09T09:19:24Z</time>
      </trkpt>
      <trkpt lat="44.86481" lon="3.41754">
        <ele>1249.2</ele>
        <time>2022-06-09T09:19:32Z</time>
      </trkpt>
      <trkpt lat="44.86479" lon="3.4176">
        <ele>1251.4</ele>
        <time>2022-06-09T09:19:39Z</time>
      </trkpt>
      <trkpt lat="44.86477" lon="3.41767">
        <ele>1253.3</ele>
        <time>2022-06-09T09:19:44Z</time>
      </trkpt>
      <trkpt lat="44.86474" lon="3.41772">
        <ele>1256.3</ele>
        <time>2022-06-09T09:19:49Z</time>
      </trkpt>
      <trkpt lat="44.86473" lon="3.41779">
        <ele>1260.3</ele>
        <time>2022-06-09T09:19:57Z</time>
      </trkpt>
      <trkpt lat="44.86472" lon="3.41785">
        <ele>1260.3</ele>
        <time>2022-06-09T09:20:04Z</time>
      </trkpt>
      <trkpt lat="44.86469" lon="3.41791">
        <ele>1259.9</ele>
        <time>2022-06-09T09:20:11Z</time>
      </trkpt>
      <trkpt lat="44.86464" lon="3.41794">
        <ele>1259.3</ele>
        <time>2022-06-09T09:20:19Z</time>
      </trkpt>
      <trkpt lat="44.8646" lon="3.41798">
        <ele>1262.6</ele>
        <time>2022-06-09T09:21:08Z</time>
      </trkpt>
      <trkpt lat="44.86455" lon="3.418">
        <ele>1263.2</ele>
        <time>2022-06-09T09:21:13Z</time>
      </trkpt>
      <trkpt lat="44.8645" lon="3.41801">
        <ele>1264.7</ele>
        <time>2022-06-09T09:21:17Z</time>
      </trkpt>
      <trkpt lat="44.86445" lon="3.41801">
        <ele>1265.7</ele>
        <time>2022-06-09T09:21:21Z</time>
      </trkpt>
      <trkpt lat="44.8644" lon="3.41803">
        <ele>1267.8</ele>
        <time>2022-06-09T09:21:26Z</time>
      </trkpt>
      <trkpt lat="44.86437" lon="3.41808">
        <ele>1268.6</ele>
        <time>2022-06-09T09:21:33Z</time>
      </trkpt>
      <trkpt lat="44.86431" lon="3.41808">
        <ele>1270</ele>
        <time>2022-06-09T09:21:39Z</time>
      </trkpt>
      <trkpt lat="44.86426" lon="3.41806">
        <ele>1269.9</ele>
        <time>2022-06-09T09:21:44Z</time>
      </trkpt>
      <trkpt lat="44.86422" lon="3.41806">
        <ele>1270.9</ele>
        <time>2022-06-09T09:21:50Z</time>
      </trkpt>
      <trkpt lat="44.86417" lon="3.41807">
        <ele>1271.2</ele>
        <time>2022-06-09T09:21:57Z</time>
      </trkpt>
      <trkpt lat="44.86413" lon="3.41811">
        <ele>1273.2</ele>
        <time>2022-06-09T09:22:03Z</time>
      </trkpt>
      <trkpt lat="44.86408" lon="3.41812">
        <ele>1274.2</ele>
        <time>2022-06-09T09:22:10Z</time>
      </trkpt>
      <trkpt lat="44.86404" lon="3.41816">
        <ele>1275</ele>
        <time>2022-06-09T09:22:19Z</time>
      </trkpt>
      <trkpt lat="44.86403" lon="3.41822">
        <ele>1273.7</ele>
        <time>2022-06-09T09:22:26Z</time>
      </trkpt>
      <trkpt lat="44.86399" lon="3.41826">
        <ele>1272.8</ele>
        <time>2022-06-09T09:22:37Z</time>
      </trkpt>
      <trkpt lat="44.86395" lon="3.41831">
        <ele>1271.6</ele>
        <time>2022-06-09T09:22:42Z</time>
      </trkpt>
      <trkpt lat="44.86392" lon="3.41836">
        <ele>1270.7</ele>
        <time>2022-06-09T09:22:46Z</time>
      </trkpt>
      <trkpt lat="44.8639" lon="3.41842">
        <ele>1268.8</ele>
        <time>2022-06-09T09:22:51Z</time>
      </trkpt>
      <trkpt lat="44.86388" lon="3.41849">
        <ele>1269.6</ele>
        <time>2022-06-09T09:23:01Z</time>
      </trkpt>
      <trkpt lat="44.86388" lon="3.41856">
        <ele>1272.9</ele>
        <time>2022-06-09T09:23:07Z</time>
      </trkpt>
      <trkpt lat="44.86386" lon="3.41862">
        <ele>1273.3</ele>
        <time>2022-06-09T09:23:13Z</time>
      </trkpt>
      <trkpt lat="44.86385" lon="3.41869">
        <ele>1272.6</ele>
        <time>2022-06-09T09:23:24Z</time>
      </trkpt>
      <trkpt lat="44.86386" lon="3.41875">
        <ele>1274.6</ele>
        <time>2022-06-09T09:23:30Z</time>
      </trkpt>
      <trkpt lat="44.86385" lon="3.41881">
        <ele>1277.5</ele>
        <time>2022-06-09T09:23:37Z</time>
      </trkpt>
      <trkpt lat="44.86384" lon="3.41888">
        <ele>1279</ele>
        <time>2022-06-09T09:23:44Z</time>
      </trkpt>
      <trkpt lat="44.86383" lon="3.41895">
        <ele>1281.1</ele>
        <time>2022-06-09T09:23:51Z</time>
      </trkpt>
      <trkpt lat="44.86383" lon="3.41903">
        <ele>1279.4</ele>
        <time>2022-06-09T09:23:55Z</time>
      </trkpt>
      <trkpt lat="44.86381" lon="3.41909">
        <ele>1278.7</ele>
        <time>2022-06-09T09:23:59Z</time>
      </trkpt>
      <trkpt lat="44.86381" lon="3.41916">
        <ele>1278.3</ele>
        <time>2022-06-09T09:24:04Z</time>
      </trkpt>
      <trkpt lat="44.86379" lon="3.41923">
        <ele>1277.8</ele>
        <time>2022-06-09T09:24:11Z</time>
      </trkpt>
      <trkpt lat="44.86379" lon="3.41929">
        <ele>1276.8</ele>
        <time>2022-06-09T09:24:17Z</time>
      </trkpt>
      <trkpt lat="44.86377" lon="3.41935">
        <ele>1276.4</ele>
        <time>2022-06-09T09:24:24Z</time>
      </trkpt>
      <trkpt lat="44.86376" lon="3.41941">
        <ele>1276.5</ele>
        <time>2022-06-09T09:24:31Z</time>
      </trkpt>
      <trkpt lat="44.86375" lon="3.41948">
        <ele>1277.3</ele>
        <time>2022-06-09T09:24:36Z</time>
      </trkpt>
      <trkpt lat="44.86375" lon="3.41955">
        <ele>1279.5</ele>
        <time>2022-06-09T09:24:45Z</time>
      </trkpt>
      <trkpt lat="44.86376" lon="3.41962">
        <ele>1279.2</ele>
        <time>2022-06-09T09:24:56Z</time>
      </trkpt>
      <trkpt lat="44.86378" lon="3.41968">
        <ele>1278.6</ele>
        <time>2022-06-09T09:25:00Z</time>
      </trkpt>
      <trkpt lat="44.86379" lon="3.41975">
        <ele>1278.8</ele>
        <time>2022-06-09T09:25:04Z</time>
      </trkpt>
      <trkpt lat="44.86378" lon="3.41982">
        <ele>1278.8</ele>
        <time>2022-06-09T09:25:08Z</time>
      </trkpt>
      <trkpt lat="44.86378" lon="3.41989">
        <ele>1278.9</ele>
        <time>2022-06-09T09:25:13Z</time>
      </trkpt>
      <trkpt lat="44.86379" lon="3.41996">
        <ele>1277.2</ele>
        <time>2022-06-09T09:25:21Z</time>
      </trkpt>
      <trkpt lat="44.86378" lon="3.42003">
        <ele>1250.3</ele>
        <time>2022-06-09T09:25:27Z</time>
      </trkpt>
      <trkpt lat="44.86376" lon="3.42009">
        <ele>1259.1</ele>
        <time>2022-06-09T09:25:32Z</time>
      </trkpt>
      <trkpt lat="44.86375" lon="3.42015">
        <ele>1264.5</ele>
        <time>2022-06-09T09:25:37Z</time>
      </trkpt>
      <trkpt lat="44.86374" lon="3.42022">
        <ele>1270.5</ele>
        <time>2022-06-09T09:25:43Z</time>
      </trkpt>
      <trkpt lat="44.86374" lon="3.42029">
        <ele>1276.2</ele>
        <time>2022-06-09T09:25:51Z</time>
      </trkpt>
      <trkpt lat="44.86373" lon="3.42035">
        <ele>1281.9</ele>
        <time>2022-06-09T09:26:01Z</time>
      </trkpt>
      <trkpt lat="44.86372" lon="3.42043">
        <ele>1283.1</ele>
        <time>2022-06-09T09:26:08Z</time>
      </trkpt>
      <trkpt lat="44.8637" lon="3.42049">
        <ele>1283.2</ele>
        <time>2022-06-09T09:26:14Z</time>
      </trkpt>
      <trkpt lat="44.86366" lon="3.42053">
        <ele>1282.8</ele>
        <time>2022-06-09T09:26:22Z</time>
      </trkpt>
      <trkpt lat="44.86364" lon="3.42059">
        <ele>1283.3</ele>
        <time>2022-06-09T09:26:32Z</time>
      </trkpt>
      <trkpt lat="44.86361" lon="3.42063">
        <ele>1284.6</ele>
        <time>2022-06-09T09:26:38Z</time>
      </trkpt>
      <trkpt lat="44.86356" lon="3.42067">
        <ele>1286.4</ele>
        <time>2022-06-09T09:26:46Z</time>
      </trkpt>
      <trkpt lat="44.86354" lon="3.42072">
        <ele>1283.8</ele>
        <time>2022-06-09T09:26:55Z</time>
      </trkpt>
      <trkpt lat="44.86357" lon="3.42078">
        <ele>1282.9</ele>
        <time>2022-06-09T09:27:09Z</time>
      </trkpt>
      <trkpt lat="44.8636" lon="3.42084">
        <ele>1285.3</ele>
        <time>2022-06-09T09:27:16Z</time>
      </trkpt>
      <trkpt lat="44.86362" lon="3.4209">
        <ele>1263.5</ele>
        <time>2022-06-09T09:27:21Z</time>
      </trkpt>
      <trkpt lat="44.86363" lon="3.42097">
        <ele>1267.5</ele>
        <time>2022-06-09T09:27:26Z</time>
      </trkpt>
      <trkpt lat="44.86361" lon="3.42103">
        <ele>1280.5</ele>
        <time>2022-06-09T09:27:33Z</time>
      </trkpt>
      <trkpt lat="44.86361" lon="3.4211">
        <ele>1291.4</ele>
        <time>2022-06-09T09:27:47Z</time>
      </trkpt>
      <trkpt lat="44.86366" lon="3.42113">
        <ele>1295</ele>
        <time>2022-06-09T09:27:57Z</time>
      </trkpt>
      <trkpt lat="44.8637" lon="3.42112">
        <ele>1297.7</ele>
        <time>2022-06-09T09:28:05Z</time>
      </trkpt>
      <trkpt lat="44.86374" lon="3.42118">
        <ele>1297.8</ele>
        <time>2022-06-09T09:28:14Z</time>
      </trkpt>
      <trkpt lat="44.86378" lon="3.42121">
        <ele>1261.1</ele>
        <time>2022-06-09T09:28:20Z</time>
      </trkpt>
      <trkpt lat="44.86382" lon="3.4212">
        <ele>1266</ele>
        <time>2022-06-09T09:28:26Z</time>
      </trkpt>
      <trkpt lat="44.86387" lon="3.4212">
        <ele>1279.7</ele>
        <time>2022-06-09T09:28:33Z</time>
      </trkpt>
      <trkpt lat="44.86392" lon="3.4212">
        <ele>1286.4</ele>
        <time>2022-06-09T09:28:38Z</time>
      </trkpt>
      <trkpt lat="44.86396" lon="3.42122">
        <ele>1291</ele>
        <time>2022-06-09T09:28:45Z</time>
      </trkpt>
      <trkpt lat="44.864" lon="3.42125">
        <ele>1294.3</ele>
        <time>2022-06-09T09:28:54Z</time>
      </trkpt>
      <trkpt lat="44.86405" lon="3.42126">
        <ele>1296.7</ele>
        <time>2022-06-09T09:29:04Z</time>
      </trkpt>
      <trkpt lat="44.8641" lon="3.42126">
        <ele>1298.6</ele>
        <time>2022-06-09T09:29:10Z</time>
      </trkpt>
      <trkpt lat="44.86414" lon="3.42129">
        <ele>1304.5</ele>
        <time>2022-06-09T09:29:27Z</time>
      </trkpt>
      <trkpt lat="44.86418" lon="3.42134">
        <ele>1304.1</ele>
        <time>2022-06-09T09:29:33Z</time>
      </trkpt>
      <trkpt lat="44.8642" lon="3.4214">
        <ele>1305.5</ele>
        <time>2022-06-09T09:29:38Z</time>
      </trkpt>
      <trkpt lat="44.86424" lon="3.42144">
        <ele>1306.2</ele>
        <time>2022-06-09T09:29:45Z</time>
      </trkpt>
      <trkpt lat="44.86427" lon="3.42149">
        <ele>1305.5</ele>
        <time>2022-06-09T09:29:50Z</time>
      </trkpt>
      <trkpt lat="44.8643" lon="3.42154">
        <ele>1304.4</ele>
        <time>2022-06-09T09:29:56Z</time>
      </trkpt>
      <trkpt lat="44.86432" lon="3.4216">
        <ele>1302.2</ele>
        <time>2022-06-09T09:30:02Z</time>
      </trkpt>
      <trkpt lat="44.86436" lon="3.42164">
        <ele>1301.3</ele>
        <time>2022-06-09T09:30:09Z</time>
      </trkpt>
      <trkpt lat="44.86439" lon="3.4217">
        <ele>1303.2</ele>
        <time>2022-06-09T09:30:30Z</time>
      </trkpt>
      <trkpt lat="44.86441" lon="3.42175">
        <ele>1306.1</ele>
        <time>2022-06-09T09:30:40Z</time>
      </trkpt>
      <trkpt lat="44.86444" lon="3.42181">
        <ele>1306.6</ele>
        <time>2022-06-09T09:30:55Z</time>
      </trkpt>
      <trkpt lat="44.86447" lon="3.42186">
        <ele>1306.7</ele>
        <time>2022-06-09T09:31:00Z</time>
      </trkpt>
      <trkpt lat="44.86451" lon="3.42191">
        <ele>1305.9</ele>
        <time>2022-06-09T09:31:06Z</time>
      </trkpt>
      <trkpt lat="44.86451" lon="3.42198">
        <ele>1303.2</ele>
        <time>2022-06-09T09:31:13Z</time>
      </trkpt>
      <trkpt lat="44.86449" lon="3.42205">
        <ele>1304.3</ele>
        <time>2022-06-09T09:31:19Z</time>
      </trkpt>
      <trkpt lat="44.86448" lon="3.42211">
        <ele>1305.5</ele>
        <time>2022-06-09T09:31:25Z</time>
      </trkpt>
      <trkpt lat="44.86445" lon="3.42216">
        <ele>1307.5</ele>
        <time>2022-06-09T09:31:46Z</time>
      </trkpt>
      <trkpt lat="44.86442" lon="3.42222">
        <ele>1307.8</ele>
        <time>2022-06-09T09:33:03Z</time>
      </trkpt>
      <trkpt lat="44.86438" lon="3.42226">
        <ele>1308.6</ele>
        <time>2022-06-09T09:33:09Z</time>
      </trkpt>
      <trkpt lat="44.86433" lon="3.42229">
        <ele>1309.2</ele>
        <time>2022-06-09T09:33:16Z</time>
      </trkpt>
      <trkpt lat="44.8643" lon="3.42233">
        <ele>1309.3</ele>
        <time>2022-06-09T09:33:20Z</time>
      </trkpt>
      <trkpt lat="44.86427" lon="3.42239">
        <ele>1309.9</ele>
        <time>2022-06-09T09:33:25Z</time>
      </trkpt>
      <trkpt lat="44.86425" lon="3.42245">
        <ele>1310</ele>
        <time>2022-06-09T09:33:29Z</time>
      </trkpt>
      <trkpt lat="44.86423" lon="3.42251">
        <ele>1311.5</ele>
        <time>2022-06-09T09:33:34Z</time>
      </trkpt>
      <trkpt lat="44.86422" lon="3.42258">
        <ele>1311.6</ele>
        <time>2022-06-09T09:33:40Z</time>
      </trkpt>
      <trkpt lat="44.8642" lon="3.42264">
        <ele>1311.1</ele>
        <time>2022-06-09T09:33:46Z</time>
      </trkpt>
      <trkpt lat="44.86417" lon="3.4227">
        <ele>1311.6</ele>
        <time>2022-06-09T09:33:51Z</time>
      </trkpt>
      <trkpt lat="44.86417" lon="3.42277">
        <ele>1311.9</ele>
        <time>2022-06-09T09:34:00Z</time>
      </trkpt>
      <trkpt lat="44.8642" lon="3.42282">
        <ele>1313.6</ele>
        <time>2022-06-09T09:34:10Z</time>
      </trkpt>
      <trkpt lat="44.86425" lon="3.42284">
        <ele>1315.1</ele>
        <time>2022-06-09T09:34:17Z</time>
      </trkpt>
      <trkpt lat="44.86429" lon="3.42288">
        <ele>1316.6</ele>
        <time>2022-06-09T09:34:23Z</time>
      </trkpt>
      <trkpt lat="44.86433" lon="3.42292">
        <ele>1318.6</ele>
        <time>2022-06-09T09:34:29Z</time>
      </trkpt>
      <trkpt lat="44.86437" lon="3.42295">
        <ele>1320.9</ele>
        <time>2022-06-09T09:34:36Z</time>
      </trkpt>
      <trkpt lat="44.86439" lon="3.42302">
        <ele>1323.1</ele>
        <time>2022-06-09T09:34:43Z</time>
      </trkpt>
      <trkpt lat="44.86441" lon="3.42308">
        <ele>1323</ele>
        <time>2022-06-09T09:34:50Z</time>
      </trkpt>
      <trkpt lat="44.86445" lon="3.42313">
        <ele>1323.8</ele>
        <time>2022-06-09T09:34:56Z</time>
      </trkpt>
      <trkpt lat="44.86449" lon="3.42316">
        <ele>1323.2</ele>
        <time>2022-06-09T09:35:01Z</time>
      </trkpt>
      <trkpt lat="44.86454" lon="3.42315">
        <ele>1323</ele>
        <time>2022-06-09T09:35:07Z</time>
      </trkpt>
      <trkpt lat="44.86459" lon="3.42314">
        <ele>1322.7</ele>
        <time>2022-06-09T09:35:11Z</time>
      </trkpt>
      <trkpt lat="44.86463" lon="3.42315">
        <ele>1323</ele>
        <time>2022-06-09T09:35:15Z</time>
      </trkpt>
      <trkpt lat="44.86467" lon="3.42319">
        <ele>1323.6</ele>
        <time>2022-06-09T09:35:20Z</time>
      </trkpt>
      <trkpt lat="44.86471" lon="3.42323">
        <ele>1325.3</ele>
        <time>2022-06-09T09:35:26Z</time>
      </trkpt>
      <trkpt lat="44.86474" lon="3.42328">
        <ele>1326.6</ele>
        <time>2022-06-09T09:35:33Z</time>
      </trkpt>
      <trkpt lat="44.86478" lon="3.42331">
        <ele>1327.6</ele>
        <time>2022-06-09T09:35:41Z</time>
      </trkpt>
      <trkpt lat="44.8648" lon="3.42337">
        <ele>1328.4</ele>
        <time>2022-06-09T09:35:49Z</time>
      </trkpt>
      <trkpt lat="44.86483" lon="3.42343">
        <ele>1328.4</ele>
        <time>2022-06-09T09:36:06Z</time>
      </trkpt>
      <trkpt lat="44.86487" lon="3.42347">
        <ele>1328.3</ele>
        <time>2022-06-09T09:36:15Z</time>
      </trkpt>
      <trkpt lat="44.86491" lon="3.42351">
        <ele>1326.2</ele>
        <time>2022-06-09T09:36:22Z</time>
      </trkpt>
      <trkpt lat="44.86495" lon="3.42352">
        <ele>1324.9</ele>
        <time>2022-06-09T09:36:32Z</time>
      </trkpt>
      <trkpt lat="44.865" lon="3.42354">
        <ele>1327.5</ele>
        <time>2022-06-09T09:36:41Z</time>
      </trkpt>
      <trkpt lat="44.86503" lon="3.42359">
        <ele>1330.8</ele>
        <time>2022-06-09T09:36:51Z</time>
      </trkpt>
      <trkpt lat="44.86504" lon="3.42366">
        <ele>1332.2</ele>
        <time>2022-06-09T09:37:01Z</time>
      </trkpt>
      <trkpt lat="44.86507" lon="3.42372">
        <ele>1333.9</ele>
        <time>2022-06-09T09:37:08Z</time>
      </trkpt>
      <trkpt lat="44.86511" lon="3.42376">
        <ele>1334</ele>
        <time>2022-06-09T09:37:13Z</time>
      </trkpt>
      <trkpt lat="44.86515" lon="3.42381">
        <ele>1334.8</ele>
        <time>2022-06-09T09:37:26Z</time>
      </trkpt>
      <trkpt lat="44.86517" lon="3.42387">
        <ele>1336.5</ele>
        <time>2022-06-09T09:37:35Z</time>
      </trkpt>
      <trkpt lat="44.8652" lon="3.42392">
        <ele>1338</ele>
        <time>2022-06-09T09:37:41Z</time>
      </trkpt>
      <trkpt lat="44.86523" lon="3.42397">
        <ele>1338.1</ele>
        <time>2022-06-09T09:37:47Z</time>
      </trkpt>
      <trkpt lat="44.86526" lon="3.42402">
        <ele>1339.1</ele>
        <time>2022-06-09T09:37:59Z</time>
      </trkpt>
      <trkpt lat="44.86527" lon="3.42409">
        <ele>1339.6</ele>
        <time>2022-06-09T09:38:09Z</time>
      </trkpt>
      <trkpt lat="44.86528" lon="3.42415">
        <ele>1340.9</ele>
        <time>2022-06-09T09:38:25Z</time>
      </trkpt>
      <trkpt lat="44.86529" lon="3.42421">
        <ele>1341.8</ele>
        <time>2022-06-09T09:38:31Z</time>
      </trkpt>
      <trkpt lat="44.86532" lon="3.42426">
        <ele>1343.2</ele>
        <time>2022-06-09T09:38:44Z</time>
      </trkpt>
      <trkpt lat="44.86536" lon="3.42431">
        <ele>1344.8</ele>
        <time>2022-06-09T09:38:52Z</time>
      </trkpt>
      <trkpt lat="44.86539" lon="3.42436">
        <ele>1344.7</ele>
        <time>2022-06-09T09:38:59Z</time>
      </trkpt>
      <trkpt lat="44.86543" lon="3.4244">
        <ele>1344.6</ele>
        <time>2022-06-09T09:39:05Z</time>
      </trkpt>
      <trkpt lat="44.86546" lon="3.42443">
        <ele>1344.1</ele>
        <time>2022-06-09T09:39:13Z</time>
      </trkpt>
      <trkpt lat="44.8655" lon="3.42447">
        <ele>1344.7</ele>
        <time>2022-06-09T09:39:22Z</time>
      </trkpt>
      <trkpt lat="44.86555" lon="3.4245">
        <ele>1346.1</ele>
        <time>2022-06-09T09:39:28Z</time>
      </trkpt>
      <trkpt lat="44.8656" lon="3.4245">
        <ele>1347.7</ele>
        <time>2022-06-09T09:39:36Z</time>
      </trkpt>
      <trkpt lat="44.86563" lon="3.42455">
        <ele>1349.9</ele>
        <time>2022-06-09T09:39:48Z</time>
      </trkpt>
      <trkpt lat="44.86564" lon="3.42461">
        <ele>1348.7</ele>
        <time>2022-06-09T09:39:59Z</time>
      </trkpt>
      <trkpt lat="44.86568" lon="3.42466">
        <ele>1349.2</ele>
        <time>2022-06-09T09:40:21Z</time>
      </trkpt>
      <trkpt lat="44.8657" lon="3.42472">
        <ele>1348.8</ele>
        <time>2022-06-09T09:40:30Z</time>
      </trkpt>
      <trkpt lat="44.86571" lon="3.42478">
        <ele>1347.2</ele>
        <time>2022-06-09T09:40:38Z</time>
      </trkpt>
      <trkpt lat="44.86574" lon="3.42484">
        <ele>1347.6</ele>
        <time>2022-06-09T09:40:46Z</time>
      </trkpt>
      <trkpt lat="44.86577" lon="3.42489">
        <ele>1348.8</ele>
        <time>2022-06-09T09:40:57Z</time>
      </trkpt>
      <trkpt lat="44.8658" lon="3.42496">
        <ele>1350.1</ele>
        <time>2022-06-09T09:41:04Z</time>
      </trkpt>
      <trkpt lat="44.86583" lon="3.42501">
        <ele>1351.8</ele>
        <time>2022-06-09T09:41:12Z</time>
      </trkpt>
      <trkpt lat="44.86586" lon="3.42506">
        <ele>1352.7</ele>
        <time>2022-06-09T09:41:18Z</time>
      </trkpt>
      <trkpt lat="44.8659" lon="3.4251">
        <ele>1353</ele>
        <time>2022-06-09T09:41:28Z</time>
      </trkpt>
      <trkpt lat="44.86592" lon="3.42515">
        <ele>1351.7</ele>
        <time>2022-06-09T09:41:41Z</time>
      </trkpt>
      <trkpt lat="44.86594" lon="3.42522">
        <ele>1350.6</ele>
        <time>2022-06-09T09:41:49Z</time>
      </trkpt>
      <trkpt lat="44.86594" lon="3.42529">
        <ele>1350.6</ele>
        <time>2022-06-09T09:41:57Z</time>
      </trkpt>
      <trkpt lat="44.86594" lon="3.42536">
        <ele>1350.5</ele>
        <time>2022-06-09T09:42:04Z</time>
      </trkpt>
      <trkpt lat="44.86593" lon="3.42543">
        <ele>1318</ele>
        <time>2022-06-09T09:42:18Z</time>
      </trkpt>
      <trkpt lat="44.86596" lon="3.42548">
        <ele>1333.2</ele>
        <time>2022-06-09T09:42:23Z</time>
      </trkpt>
      <trkpt lat="44.86598" lon="3.42554">
        <ele>1346.8</ele>
        <time>2022-06-09T09:42:31Z</time>
      </trkpt>
      <trkpt lat="44.86599" lon="3.42561">
        <ele>1350.5</ele>
        <time>2022-06-09T09:42:38Z</time>
      </trkpt>
      <trkpt lat="44.86601" lon="3.42567">
        <ele>1351.1</ele>
        <time>2022-06-09T09:42:43Z</time>
      </trkpt>
      <trkpt lat="44.86602" lon="3.42574">
        <ele>1353.3</ele>
        <time>2022-06-09T09:42:49Z</time>
      </trkpt>
      <trkpt lat="44.86605" lon="3.42579">
        <ele>1355.8</ele>
        <time>2022-06-09T09:42:55Z</time>
      </trkpt>
      <trkpt lat="44.86608" lon="3.42585">
        <ele>1357.3</ele>
        <time>2022-06-09T09:43:01Z</time>
      </trkpt>
      <trkpt lat="44.86609" lon="3.42591">
        <ele>1358.7</ele>
        <time>2022-06-09T09:43:08Z</time>
      </trkpt>
      <trkpt lat="44.8661" lon="3.42597">
        <ele>1360.9</ele>
        <time>2022-06-09T09:43:16Z</time>
      </trkpt>
      <trkpt lat="44.86611" lon="3.42604">
        <ele>1360.8</ele>
        <time>2022-06-09T09:43:21Z</time>
      </trkpt>
      <trkpt lat="44.86614" lon="3.42609">
        <ele>1362</ele>
        <time>2022-06-09T09:43:26Z</time>
      </trkpt>
      <trkpt lat="44.86616" lon="3.42615">
        <ele>1363</ele>
        <time>2022-06-09T09:43:32Z</time>
      </trkpt>
      <trkpt lat="44.86619" lon="3.42621">
        <ele>1363.6</ele>
        <time>2022-06-09T09:43:39Z</time>
      </trkpt>
      <trkpt lat="44.86619" lon="3.42628">
        <ele>1363.8</ele>
        <time>2022-06-09T09:43:44Z</time>
      </trkpt>
      <trkpt lat="44.8662" lon="3.42635">
        <ele>1364.1</ele>
        <time>2022-06-09T09:43:50Z</time>
      </trkpt>
      <trkpt lat="44.86619" lon="3.42642">
        <ele>1362.6</ele>
        <time>2022-06-09T09:43:58Z</time>
      </trkpt>
      <trkpt lat="44.86618" lon="3.42648">
        <ele>1366</ele>
        <time>2022-06-09T09:44:09Z</time>
      </trkpt>
      <trkpt lat="44.8662" lon="3.42655">
        <ele>1366.6</ele>
        <time>2022-06-09T09:44:15Z</time>
      </trkpt>
      <trkpt lat="44.86621" lon="3.42661">
        <ele>1366.4</ele>
        <time>2022-06-09T09:44:22Z</time>
      </trkpt>
      <trkpt lat="44.86624" lon="3.42667">
        <ele>1367.4</ele>
        <time>2022-06-09T09:44:30Z</time>
      </trkpt>
      <trkpt lat="44.86627" lon="3.42673">
        <ele>1367.6</ele>
        <time>2022-06-09T09:44:36Z</time>
      </trkpt>
      <trkpt lat="44.8663" lon="3.42678">
        <ele>1367</ele>
        <time>2022-06-09T09:44:40Z</time>
      </trkpt>
      <trkpt lat="44.86632" lon="3.42684">
        <ele>1366.8</ele>
        <time>2022-06-09T09:44:45Z</time>
      </trkpt>
      <trkpt lat="44.86634" lon="3.4269">
        <ele>1366.5</ele>
        <time>2022-06-09T09:44:52Z</time>
      </trkpt>
      <trkpt lat="44.86636" lon="3.42696">
        <ele>1367.1</ele>
        <time>2022-06-09T09:44:59Z</time>
      </trkpt>
      <trkpt lat="44.86637" lon="3.42702">
        <ele>1365.8</ele>
        <time>2022-06-09T09:45:05Z</time>
      </trkpt>
      <trkpt lat="44.86639" lon="3.42709">
        <ele>1364.4</ele>
        <time>2022-06-09T09:45:14Z</time>
      </trkpt>
      <trkpt lat="44.86641" lon="3.42715">
        <ele>1364.1</ele>
        <time>2022-06-09T09:45:20Z</time>
      </trkpt>
      <trkpt lat="44.86645" lon="3.42719">
        <ele>1364</ele>
        <time>2022-06-09T09:45:24Z</time>
      </trkpt>
      <trkpt lat="44.86649" lon="3.42724">
        <ele>1364.8</ele>
        <time>2022-06-09T09:45:28Z</time>
      </trkpt>
      <trkpt lat="44.86652" lon="3.4273">
        <ele>1365.6</ele>
        <time>2022-06-09T09:45:33Z</time>
      </trkpt>
      <trkpt lat="44.86654" lon="3.42735">
        <ele>1365.7</ele>
        <time>2022-06-09T09:45:39Z</time>
      </trkpt>
      <trkpt lat="44.86657" lon="3.42741">
        <ele>1365.8</ele>
        <time>2022-06-09T09:45:44Z</time>
      </trkpt>
      <trkpt lat="44.86661" lon="3.42744">
        <ele>1367.6</ele>
        <time>2022-06-09T09:45:50Z</time>
      </trkpt>
      <trkpt lat="44.86665" lon="3.42748">
        <ele>1367.5</ele>
        <time>2022-06-09T09:45:56Z</time>
      </trkpt>
      <trkpt lat="44.86667" lon="3.42754">
        <ele>1365.7</ele>
        <time>2022-06-09T09:46:06Z</time>
      </trkpt>
      <trkpt lat="44.86667" lon="3.4276">
        <ele>1365.2</ele>
        <time>2022-06-09T09:46:12Z</time>
      </trkpt>
      <trkpt lat="44.86669" lon="3.42767">
        <ele>1366.6</ele>
        <time>2022-06-09T09:46:40Z</time>
      </trkpt>
      <trkpt lat="44.86673" lon="3.42769">
        <ele>1366.5</ele>
        <time>2022-06-09T09:46:48Z</time>
      </trkpt>
      <trkpt lat="44.86678" lon="3.42771">
        <ele>1367.4</ele>
        <time>2022-06-09T09:46:55Z</time>
      </trkpt>
      <trkpt lat="44.86682" lon="3.42769">
        <ele>1366.3</ele>
        <time>2022-06-09T09:47:21Z</time>
      </trkpt>
      <trkpt lat="44.86678" lon="3.42773">
        <ele>1369.3</ele>
        <time>2022-06-09T09:49:59Z</time>
      </trkpt>
      <trkpt lat="44.86673" lon="3.42773">
        <ele>1368.2</ele>
        <time>2022-06-09T09:50:07Z</time>
      </trkpt>
      <trkpt lat="44.86672" lon="3.42767">
        <ele>1366.9</ele>
        <time>2022-06-09T09:50:16Z</time>
      </trkpt>
      <trkpt lat="44.86668" lon="3.42761">
        <ele>1363.4</ele>
        <time>2022-06-09T09:54:31Z</time>
      </trkpt>
      <trkpt lat="44.86672" lon="3.42764">
        <ele>1369.2</ele>
        <time>2022-06-09T09:56:44Z</time>
      </trkpt>
      <trkpt lat="44.86668" lon="3.42762">
        <ele>1369.8</ele>
        <time>2022-06-09T10:05:15Z</time>
      </trkpt>
      <trkpt lat="44.86666" lon="3.42755">
        <ele>1369.8</ele>
        <time>2022-06-09T10:05:20Z</time>
      </trkpt>
      <trkpt lat="44.86665" lon="3.42749">
        <ele>1369.5</ele>
        <time>2022-06-09T10:05:25Z</time>
      </trkpt>
      <trkpt lat="44.86664" lon="3.42742">
        <ele>1369</ele>
        <time>2022-06-09T10:05:31Z</time>
      </trkpt>
      <trkpt lat="44.86664" lon="3.42736">
        <ele>1368.5</ele>
        <time>2022-06-09T10:05:36Z</time>
      </trkpt>
      <trkpt lat="44.86665" lon="3.42728">
        <ele>1368.3</ele>
        <time>2022-06-09T10:05:42Z</time>
      </trkpt>
      <trkpt lat="44.86666" lon="3.42721">
        <ele>1369.1</ele>
        <time>2022-06-09T10:05:48Z</time>
      </trkpt>
      <trkpt lat="44.86669" lon="3.42715">
        <ele>1370.3</ele>
        <time>2022-06-09T10:05:55Z</time>
      </trkpt>
      <trkpt lat="44.8667" lon="3.42708">
        <ele>1370.4</ele>
        <time>2022-06-09T10:06:22Z</time>
      </trkpt>
      <trkpt lat="44.86671" lon="3.42701">
        <ele>1370.8</ele>
        <time>2022-06-09T10:06:27Z</time>
      </trkpt>
      <trkpt lat="44.86672" lon="3.42695">
        <ele>1371.1</ele>
        <time>2022-06-09T10:06:42Z</time>
      </trkpt>
      <trkpt lat="44.86672" lon="3.42688">
        <ele>1371.7</ele>
        <time>2022-06-09T10:06:48Z</time>
      </trkpt>
      <trkpt lat="44.86671" lon="3.42681">
        <ele>1372.2</ele>
        <time>2022-06-09T10:06:57Z</time>
      </trkpt>
      <trkpt lat="44.86671" lon="3.42674">
        <ele>1370.8</ele>
        <time>2022-06-09T10:07:13Z</time>
      </trkpt>
      <trkpt lat="44.8667" lon="3.42667">
        <ele>1370.3</ele>
        <time>2022-06-09T10:07:20Z</time>
      </trkpt>
      <trkpt lat="44.86669" lon="3.42659">
        <ele>1370.2</ele>
        <time>2022-06-09T10:07:25Z</time>
      </trkpt>
      <trkpt lat="44.86668" lon="3.42652">
        <ele>1369.5</ele>
        <time>2022-06-09T10:07:29Z</time>
      </trkpt>
      <trkpt lat="44.86667" lon="3.42645">
        <ele>1369</ele>
        <time>2022-06-09T10:07:34Z</time>
      </trkpt>
      <trkpt lat="44.86666" lon="3.42638">
        <ele>1367.8</ele>
        <time>2022-06-09T10:07:38Z</time>
      </trkpt>
      <trkpt lat="44.86664" lon="3.42631">
        <ele>1367.4</ele>
        <time>2022-06-09T10:07:42Z</time>
      </trkpt>
      <trkpt lat="44.86662" lon="3.42624">
        <ele>1367.2</ele>
        <time>2022-06-09T10:07:47Z</time>
      </trkpt>
      <trkpt lat="44.86662" lon="3.42617">
        <ele>1366.3</ele>
        <time>2022-06-09T10:07:51Z</time>
      </trkpt>
      <trkpt lat="44.86661" lon="3.4261">
        <ele>1367.1</ele>
        <time>2022-06-09T10:07:56Z</time>
      </trkpt>
      <trkpt lat="44.86661" lon="3.42603">
        <ele>1367.2</ele>
        <time>2022-06-09T10:08:01Z</time>
      </trkpt>
      <trkpt lat="44.8666" lon="3.42596">
        <ele>1367</ele>
        <time>2022-06-09T10:08:06Z</time>
      </trkpt>
      <trkpt lat="44.86658" lon="3.42589">
        <ele>1366.8</ele>
        <time>2022-06-09T10:08:11Z</time>
      </trkpt>
      <trkpt lat="44.86658" lon="3.42582">
        <ele>1367.3</ele>
        <time>2022-06-09T10:08:15Z</time>
      </trkpt>
      <trkpt lat="44.86659" lon="3.42575">
        <ele>1367</ele>
        <time>2022-06-09T10:08:19Z</time>
      </trkpt>
      <trkpt lat="44.86659" lon="3.42568">
        <ele>1366.6</ele>
        <time>2022-06-09T10:08:23Z</time>
      </trkpt>
      <trkpt lat="44.86659" lon="3.42561">
        <ele>1366.2</ele>
        <time>2022-06-09T10:08:29Z</time>
      </trkpt>
      <trkpt lat="44.8666" lon="3.42554">
        <ele>1365.8</ele>
        <time>2022-06-09T10:08:34Z</time>
      </trkpt>
      <trkpt lat="44.8666" lon="3.42547">
        <ele>1365.5</ele>
        <time>2022-06-09T10:08:39Z</time>
      </trkpt>
      <trkpt lat="44.8666" lon="3.42539">
        <ele>1365.2</ele>
        <time>2022-06-09T10:08:45Z</time>
      </trkpt>
      <trkpt lat="44.86658" lon="3.42533">
        <ele>1365.3</ele>
        <time>2022-06-09T10:08:49Z</time>
      </trkpt>
      <trkpt lat="44.86657" lon="3.42526">
        <ele>1364.6</ele>
        <time>2022-06-09T10:08:54Z</time>
      </trkpt>
      <trkpt lat="44.86657" lon="3.4252">
        <ele>1363.6</ele>
        <time>2022-06-09T10:09:00Z</time>
      </trkpt>
      <trkpt lat="44.86655" lon="3.42513">
        <ele>1361.9</ele>
        <time>2022-06-09T10:09:05Z</time>
      </trkpt>
      <trkpt lat="44.86653" lon="3.42507">
        <ele>1360.7</ele>
        <time>2022-06-09T10:09:10Z</time>
      </trkpt>
      <trkpt lat="44.8665" lon="3.42503">
        <ele>1358.8</ele>
        <time>2022-06-09T10:09:15Z</time>
      </trkpt>
      <trkpt lat="44.86648" lon="3.42497">
        <ele>1358.1</ele>
        <time>2022-06-09T10:09:21Z</time>
      </trkpt>
      <trkpt lat="44.86644" lon="3.4249">
        <ele>1358.7</ele>
        <time>2022-06-09T10:09:27Z</time>
      </trkpt>
      <trkpt lat="44.86643" lon="3.42483">
        <ele>1358.5</ele>
        <time>2022-06-09T10:09:33Z</time>
      </trkpt>
      <trkpt lat="44.86642" lon="3.42476">
        <ele>1358.6</ele>
        <time>2022-06-09T10:09:38Z</time>
      </trkpt>
      <trkpt lat="44.8664" lon="3.4247">
        <ele>1357.9</ele>
        <time>2022-06-09T10:09:43Z</time>
      </trkpt>
      <trkpt lat="44.86637" lon="3.42465">
        <ele>1357.3</ele>
        <time>2022-06-09T10:09:49Z</time>
      </trkpt>
      <trkpt lat="44.86634" lon="3.42458">
        <ele>1356.7</ele>
        <time>2022-06-09T10:09:54Z</time>
      </trkpt>
      <trkpt lat="44.86631" lon="3.42452">
        <ele>1356.1</ele>
        <time>2022-06-09T10:09:58Z</time>
      </trkpt>
      <trkpt lat="44.86628" lon="3.42446">
        <ele>1356.9</ele>
        <time>2022-06-09T10:10:03Z</time>
      </trkpt>
      <trkpt lat="44.86625" lon="3.42439">
        <ele>1355.7</ele>
        <time>2022-06-09T10:10:08Z</time>
      </trkpt>
      <trkpt lat="44.86623" lon="3.42433">
        <ele>1354.8</ele>
        <time>2022-06-09T10:10:14Z</time>
      </trkpt>
      <trkpt lat="44.86621" lon="3.42428">
        <ele>1354.1</ele>
        <time>2022-06-09T10:10:19Z</time>
      </trkpt>
      <trkpt lat="44.86619" lon="3.4242">
        <ele>1353</ele>
        <time>2022-06-09T10:10:25Z</time>
      </trkpt>
      <trkpt lat="44.86619" lon="3.42413">
        <ele>1352</ele>
        <time>2022-06-09T10:10:29Z</time>
      </trkpt>
      <trkpt lat="44.86618" lon="3.42407">
        <ele>1351.3</ele>
        <time>2022-06-09T10:10:34Z</time>
      </trkpt>
      <trkpt lat="44.86616" lon="3.424">
        <ele>1350.9</ele>
        <time>2022-06-09T10:10:39Z</time>
      </trkpt>
      <trkpt lat="44.86616" lon="3.42393">
        <ele>1350.8</ele>
        <time>2022-06-09T10:10:44Z</time>
      </trkpt>
      <trkpt lat="44.86617" lon="3.42386">
        <ele>1350.6</ele>
        <time>2022-06-09T10:10:49Z</time>
      </trkpt>
      <trkpt lat="44.86618" lon="3.4238">
        <ele>1350</ele>
        <time>2022-06-09T10:10:54Z</time>
      </trkpt>
      <trkpt lat="44.86619" lon="3.42373">
        <ele>1349.7</ele>
        <time>2022-06-09T10:10:59Z</time>
      </trkpt>
      <trkpt lat="44.86621" lon="3.42367">
        <ele>1349.3</ele>
        <time>2022-06-09T10:11:04Z</time>
      </trkpt>
      <trkpt lat="44.86623" lon="3.42361">
        <ele>1350.2</ele>
        <time>2022-06-09T10:11:09Z</time>
      </trkpt>
      <trkpt lat="44.86625" lon="3.42355">
        <ele>1351.7</ele>
        <time>2022-06-09T10:11:13Z</time>
      </trkpt>
      <trkpt lat="44.86628" lon="3.42348">
        <ele>1351.6</ele>
        <time>2022-06-09T10:11:17Z</time>
      </trkpt>
      <trkpt lat="44.86631" lon="3.42341">
        <ele>1352.7</ele>
        <time>2022-06-09T10:11:21Z</time>
      </trkpt>
      <trkpt lat="44.86636" lon="3.42336">
        <ele>1351.9</ele>
        <time>2022-06-09T10:11:25Z</time>
      </trkpt>
      <trkpt lat="44.86639" lon="3.42331">
        <ele>1351.5</ele>
        <time>2022-06-09T10:11:28Z</time>
      </trkpt>
      <trkpt lat="44.86642" lon="3.42327">
        <ele>1350</ele>
        <time>2022-06-09T10:11:32Z</time>
      </trkpt>
      <trkpt lat="44.86647" lon="3.42322">
        <ele>1349.4</ele>
        <time>2022-06-09T10:11:37Z</time>
      </trkpt>
      <trkpt lat="44.86652" lon="3.42318">
        <ele>1348.7</ele>
        <time>2022-06-09T10:11:42Z</time>
      </trkpt>
      <trkpt lat="44.86655" lon="3.42313">
        <ele>1347.5</ele>
        <time>2022-06-09T10:11:47Z</time>
      </trkpt>
      <trkpt lat="44.8666" lon="3.42308">
        <ele>1345.7</ele>
        <time>2022-06-09T10:11:52Z</time>
      </trkpt>
      <trkpt lat="44.86663" lon="3.42302">
        <ele>1344</ele>
        <time>2022-06-09T10:11:57Z</time>
      </trkpt>
      <trkpt lat="44.86666" lon="3.42299">
        <ele>1343.1</ele>
        <time>2022-06-09T10:12:01Z</time>
      </trkpt>
      <trkpt lat="44.8667" lon="3.42295">
        <ele>1342.4</ele>
        <time>2022-06-09T10:12:06Z</time>
      </trkpt>
      <trkpt lat="44.86673" lon="3.42289">
        <ele>1342.4</ele>
        <time>2022-06-09T10:12:11Z</time>
      </trkpt>
      <trkpt lat="44.86676" lon="3.42284">
        <ele>1342.3</ele>
        <time>2022-06-09T10:12:17Z</time>
      </trkpt>
      <trkpt lat="44.86679" lon="3.42278">
        <ele>1341.9</ele>
        <time>2022-06-09T10:12:22Z</time>
      </trkpt>
      <trkpt lat="44.86682" lon="3.42272">
        <ele>1341.4</ele>
        <time>2022-06-09T10:12:27Z</time>
      </trkpt>
      <trkpt lat="44.86685" lon="3.42266">
        <ele>1341</ele>
        <time>2022-06-09T10:12:32Z</time>
      </trkpt>
      <trkpt lat="44.86688" lon="3.42261">
        <ele>1339.6</ele>
        <time>2022-06-09T10:12:37Z</time>
      </trkpt>
      <trkpt lat="44.86692" lon="3.42256">
        <ele>1338.3</ele>
        <time>2022-06-09T10:12:42Z</time>
      </trkpt>
      <trkpt lat="44.86695" lon="3.42251">
        <ele>1337.3</ele>
        <time>2022-06-09T10:12:46Z</time>
      </trkpt>
      <trkpt lat="44.86698" lon="3.42246">
        <ele>1336.6</ele>
        <time>2022-06-09T10:12:51Z</time>
      </trkpt>
      <trkpt lat="44.86702" lon="3.42241">
        <ele>1335.7</ele>
        <time>2022-06-09T10:12:56Z</time>
      </trkpt>
      <trkpt lat="44.86706" lon="3.42236">
        <ele>1334.7</ele>
        <time>2022-06-09T10:13:01Z</time>
      </trkpt>
      <trkpt lat="44.86708" lon="3.42231">
        <ele>1334</ele>
        <time>2022-06-09T10:13:06Z</time>
      </trkpt>
      <trkpt lat="44.86712" lon="3.42226">
        <ele>1332.9</ele>
        <time>2022-06-09T10:13:11Z</time>
      </trkpt>
      <trkpt lat="44.86716" lon="3.42222">
        <ele>1331.9</ele>
        <time>2022-06-09T10:13:16Z</time>
      </trkpt>
      <trkpt lat="44.86721" lon="3.42218">
        <ele>1330.9</ele>
        <time>2022-06-09T10:13:21Z</time>
      </trkpt>
      <trkpt lat="44.86725" lon="3.42214">
        <ele>1330</ele>
        <time>2022-06-09T10:13:26Z</time>
      </trkpt>
      <trkpt lat="44.86729" lon="3.42211">
        <ele>1328.9</ele>
        <time>2022-06-09T10:13:31Z</time>
      </trkpt>
      <trkpt lat="44.86734" lon="3.42207">
        <ele>1328.1</ele>
        <time>2022-06-09T10:13:36Z</time>
      </trkpt>
      <trkpt lat="44.86738" lon="3.42204">
        <ele>1327.3</ele>
        <time>2022-06-09T10:13:41Z</time>
      </trkpt>
      <trkpt lat="44.86742" lon="3.422">
        <ele>1327.4</ele>
        <time>2022-06-09T10:13:45Z</time>
      </trkpt>
      <trkpt lat="44.86747" lon="3.42197">
        <ele>1327.6</ele>
        <time>2022-06-09T10:13:50Z</time>
      </trkpt>
      <trkpt lat="44.86752" lon="3.42194">
        <ele>1328.1</ele>
        <time>2022-06-09T10:13:57Z</time>
      </trkpt>
      <trkpt lat="44.86756" lon="3.42189">
        <ele>1328.7</ele>
        <time>2022-06-09T10:14:03Z</time>
      </trkpt>
      <trkpt lat="44.8676" lon="3.42185">
        <ele>1328.7</ele>
        <time>2022-06-09T10:14:08Z</time>
      </trkpt>
      <trkpt lat="44.86763" lon="3.42179">
        <ele>1328.2</ele>
        <time>2022-06-09T10:14:14Z</time>
      </trkpt>
      <trkpt lat="44.86766" lon="3.42174">
        <ele>1326.9</ele>
        <time>2022-06-09T10:14:19Z</time>
      </trkpt>
      <trkpt lat="44.86769" lon="3.42169">
        <ele>1325.5</ele>
        <time>2022-06-09T10:14:24Z</time>
      </trkpt>
      <trkpt lat="44.86772" lon="3.42163">
        <ele>1324.6</ele>
        <time>2022-06-09T10:14:29Z</time>
      </trkpt>
      <trkpt lat="44.86776" lon="3.42159">
        <ele>1323.6</ele>
        <time>2022-06-09T10:14:33Z</time>
      </trkpt>
      <trkpt lat="44.86779" lon="3.42155">
        <ele>1322.6</ele>
        <time>2022-06-09T10:14:37Z</time>
      </trkpt>
      <trkpt lat="44.86783" lon="3.42149">
        <ele>1321.7</ele>
        <time>2022-06-09T10:14:42Z</time>
      </trkpt>
      <trkpt lat="44.86786" lon="3.42144">
        <ele>1320.8</ele>
        <time>2022-06-09T10:14:46Z</time>
      </trkpt>
      <trkpt lat="44.8679" lon="3.42139">
        <ele>1320</ele>
        <time>2022-06-09T10:14:51Z</time>
      </trkpt>
      <trkpt lat="44.86794" lon="3.42135">
        <ele>1319.4</ele>
        <time>2022-06-09T10:14:55Z</time>
      </trkpt>
      <trkpt lat="44.86799" lon="3.42131">
        <ele>1318.5</ele>
        <time>2022-06-09T10:15:00Z</time>
      </trkpt>
      <trkpt lat="44.86803" lon="3.42127">
        <ele>1318</ele>
        <time>2022-06-09T10:15:05Z</time>
      </trkpt>
      <trkpt lat="44.86808" lon="3.42124">
        <ele>1317.6</ele>
        <time>2022-06-09T10:15:10Z</time>
      </trkpt>
      <trkpt lat="44.86811" lon="3.4212">
        <ele>1317</ele>
        <time>2022-06-09T10:15:14Z</time>
      </trkpt>
      <trkpt lat="44.86816" lon="3.42116">
        <ele>1317.3</ele>
        <time>2022-06-09T10:15:19Z</time>
      </trkpt>
      <trkpt lat="44.8682" lon="3.42112">
        <ele>1316.7</ele>
        <time>2022-06-09T10:15:24Z</time>
      </trkpt>
      <trkpt lat="44.86824" lon="3.42106">
        <ele>1316.1</ele>
        <time>2022-06-09T10:15:29Z</time>
      </trkpt>
      <trkpt lat="44.86828" lon="3.42102">
        <ele>1315.9</ele>
        <time>2022-06-09T10:15:33Z</time>
      </trkpt>
      <trkpt lat="44.86831" lon="3.42097">
        <ele>1315.7</ele>
        <time>2022-06-09T10:15:37Z</time>
      </trkpt>
      <trkpt lat="44.86835" lon="3.42093">
        <ele>1315.4</ele>
        <time>2022-06-09T10:15:41Z</time>
      </trkpt>
      <trkpt lat="44.86839" lon="3.42088">
        <ele>1315.6</ele>
        <time>2022-06-09T10:15:45Z</time>
      </trkpt>
      <trkpt lat="44.86842" lon="3.42084">
        <ele>1315.5</ele>
        <time>2022-06-09T10:15:49Z</time>
      </trkpt>
      <trkpt lat="44.86846" lon="3.42079">
        <ele>1315.1</ele>
        <time>2022-06-09T10:15:53Z</time>
      </trkpt>
      <trkpt lat="44.86851" lon="3.42076">
        <ele>1314.3</ele>
        <time>2022-06-09T10:15:58Z</time>
      </trkpt>
      <trkpt lat="44.86856" lon="3.42072">
        <ele>1313.4</ele>
        <time>2022-06-09T10:16:03Z</time>
      </trkpt>
      <trkpt lat="44.86861" lon="3.4207">
        <ele>1312.6</ele>
        <time>2022-06-09T10:16:08Z</time>
      </trkpt>
      <trkpt lat="44.86865" lon="3.42067">
        <ele>1312</ele>
        <time>2022-06-09T10:16:13Z</time>
      </trkpt>
      <trkpt lat="44.8687" lon="3.42065">
        <ele>1311.9</ele>
        <time>2022-06-09T10:16:18Z</time>
      </trkpt>
      <trkpt lat="44.86874" lon="3.42062">
        <ele>1310.8</ele>
        <time>2022-06-09T10:16:22Z</time>
      </trkpt>
      <trkpt lat="44.86878" lon="3.4206">
        <ele>1310.6</ele>
        <time>2022-06-09T10:16:26Z</time>
      </trkpt>
      <trkpt lat="44.86882" lon="3.42055">
        <ele>1310.7</ele>
        <time>2022-06-09T10:16:31Z</time>
      </trkpt>
      <trkpt lat="44.86886" lon="3.42051">
        <ele>1310.1</ele>
        <time>2022-06-09T10:16:36Z</time>
      </trkpt>
      <trkpt lat="44.86888" lon="3.42045">
        <ele>1310.3</ele>
        <time>2022-06-09T10:16:41Z</time>
      </trkpt>
      <trkpt lat="44.8689" lon="3.42038">
        <ele>1310.9</ele>
        <time>2022-06-09T10:16:46Z</time>
      </trkpt>
      <trkpt lat="44.86888" lon="3.42032">
        <ele>1311.2</ele>
        <time>2022-06-09T10:16:51Z</time>
      </trkpt>
      <trkpt lat="44.86886" lon="3.42025">
        <ele>1311.2</ele>
        <time>2022-06-09T10:16:56Z</time>
      </trkpt>
      <trkpt lat="44.86883" lon="3.42019">
        <ele>1310.6</ele>
        <time>2022-06-09T10:17:01Z</time>
      </trkpt>
      <trkpt lat="44.86879" lon="3.42014">
        <ele>1310.1</ele>
        <time>2022-06-09T10:17:06Z</time>
      </trkpt>
      <trkpt lat="44.86876" lon="3.4201">
        <ele>1309.9</ele>
        <time>2022-06-09T10:17:10Z</time>
      </trkpt>
      <trkpt lat="44.86873" lon="3.42005">
        <ele>1309.4</ele>
        <time>2022-06-09T10:17:25Z</time>
      </trkpt>
      <trkpt lat="44.86869" lon="3.42">
        <ele>1308.6</ele>
        <time>2022-06-09T10:17:31Z</time>
      </trkpt>
      <trkpt lat="44.86865" lon="3.41996">
        <ele>1307.8</ele>
        <time>2022-06-09T10:17:39Z</time>
      </trkpt>
      <trkpt lat="44.86861" lon="3.41992">
        <ele>1307.3</ele>
        <time>2022-06-09T10:17:44Z</time>
      </trkpt>
      <trkpt lat="44.86856" lon="3.41989">
        <ele>1306.3</ele>
        <time>2022-06-09T10:17:49Z</time>
      </trkpt>
      <trkpt lat="44.86852" lon="3.41986">
        <ele>1305.7</ele>
        <time>2022-06-09T10:17:55Z</time>
      </trkpt>
      <trkpt lat="44.86847" lon="3.41984">
        <ele>1305.1</ele>
        <time>2022-06-09T10:18:01Z</time>
      </trkpt>
      <trkpt lat="44.86843" lon="3.41982">
        <ele>1304.4</ele>
        <time>2022-06-09T10:18:07Z</time>
      </trkpt>
      <trkpt lat="44.86839" lon="3.41979">
        <ele>1303.7</ele>
        <time>2022-06-09T10:18:12Z</time>
      </trkpt>
      <trkpt lat="44.86834" lon="3.41975">
        <ele>1303.3</ele>
        <time>2022-06-09T10:18:17Z</time>
      </trkpt>
      <trkpt lat="44.8683" lon="3.41972">
        <ele>1303.4</ele>
        <time>2022-06-09T10:18:22Z</time>
      </trkpt>
      <trkpt lat="44.86826" lon="3.41969">
        <ele>1302.6</ele>
        <time>2022-06-09T10:18:30Z</time>
      </trkpt>
      <trkpt lat="44.86822" lon="3.41965">
        <ele>1301.8</ele>
        <time>2022-06-09T10:18:36Z</time>
      </trkpt>
      <trkpt lat="44.86818" lon="3.4196">
        <ele>1300.8</ele>
        <time>2022-06-09T10:18:42Z</time>
      </trkpt>
      <trkpt lat="44.86815" lon="3.41954">
        <ele>1299.6</ele>
        <time>2022-06-09T10:18:48Z</time>
      </trkpt>
      <trkpt lat="44.86813" lon="3.41949">
        <ele>1298.6</ele>
        <time>2022-06-09T10:18:54Z</time>
      </trkpt>
      <trkpt lat="44.86811" lon="3.41942">
        <ele>1297.4</ele>
        <time>2022-06-09T10:19:00Z</time>
      </trkpt>
      <trkpt lat="44.8681" lon="3.41936">
        <ele>1297.7</ele>
        <time>2022-06-09T10:19:05Z</time>
      </trkpt>
      <trkpt lat="44.8681" lon="3.41929">
        <ele>1298.3</ele>
        <time>2022-06-09T10:19:10Z</time>
      </trkpt>
      <trkpt lat="44.8681" lon="3.41922">
        <ele>1298.7</ele>
        <time>2022-06-09T10:19:15Z</time>
      </trkpt>
      <trkpt lat="44.86812" lon="3.41916">
        <ele>1298.5</ele>
        <time>2022-06-09T10:19:25Z</time>
      </trkpt>
      <trkpt lat="44.86814" lon="3.4191">
        <ele>1297.9</ele>
        <time>2022-06-09T10:19:29Z</time>
      </trkpt>
      <trkpt lat="44.86815" lon="3.41904">
        <ele>1297.6</ele>
        <time>2022-06-09T10:19:33Z</time>
      </trkpt>
      <trkpt lat="44.86816" lon="3.41897">
        <ele>1297.6</ele>
        <time>2022-06-09T10:19:39Z</time>
      </trkpt>
      <trkpt lat="44.86817" lon="3.4189">
        <ele>1297.8</ele>
        <time>2022-06-09T10:19:43Z</time>
      </trkpt>
      <trkpt lat="44.86817" lon="3.41883">
        <ele>1298.5</ele>
        <time>2022-06-09T10:19:48Z</time>
      </trkpt>
      <trkpt lat="44.86819" lon="3.41877">
        <ele>1298.5</ele>
        <time>2022-06-09T10:19:53Z</time>
      </trkpt>
      <trkpt lat="44.86821" lon="3.41871">
        <ele>1298.7</ele>
        <time>2022-06-09T10:19:58Z</time>
      </trkpt>
      <trkpt lat="44.86824" lon="3.41865">
        <ele>1298.5</ele>
        <time>2022-06-09T10:20:03Z</time>
      </trkpt>
      <trkpt lat="44.86825" lon="3.41858">
        <ele>1297.9</ele>
        <time>2022-06-09T10:20:08Z</time>
      </trkpt>
      <trkpt lat="44.86827" lon="3.41851">
        <ele>1297.7</ele>
        <time>2022-06-09T10:20:12Z</time>
      </trkpt>
      <trkpt lat="44.86828" lon="3.41844">
        <ele>1297.4</ele>
        <time>2022-06-09T10:20:17Z</time>
      </trkpt>
      <trkpt lat="44.86831" lon="3.41837">
        <ele>1296.2</ele>
        <time>2022-06-09T10:20:22Z</time>
      </trkpt>
      <trkpt lat="44.86834" lon="3.41833">
        <ele>1295.5</ele>
        <time>2022-06-09T10:20:26Z</time>
      </trkpt>
      <trkpt lat="44.86836" lon="3.41826">
        <ele>1294.9</ele>
        <time>2022-06-09T10:20:32Z</time>
      </trkpt>
      <trkpt lat="44.86838" lon="3.4182">
        <ele>1294.2</ele>
        <time>2022-06-09T10:20:38Z</time>
      </trkpt>
      <trkpt lat="44.8684" lon="3.41813">
        <ele>1294</ele>
        <time>2022-06-09T10:20:43Z</time>
      </trkpt>
      <trkpt lat="44.86843" lon="3.41806">
        <ele>1294.2</ele>
        <time>2022-06-09T10:20:48Z</time>
      </trkpt>
      <trkpt lat="44.86845" lon="3.41801">
        <ele>1294.5</ele>
        <time>2022-06-09T10:20:52Z</time>
      </trkpt>
      <trkpt lat="44.86848" lon="3.41794">
        <ele>1294.6</ele>
        <time>2022-06-09T10:20:57Z</time>
      </trkpt>
      <trkpt lat="44.86851" lon="3.41789">
        <ele>1294.6</ele>
        <time>2022-06-09T10:21:01Z</time>
      </trkpt>
      <trkpt lat="44.86853" lon="3.41782">
        <ele>1294.5</ele>
        <time>2022-06-09T10:21:06Z</time>
      </trkpt>
      <trkpt lat="44.86856" lon="3.41775">
        <ele>1294.7</ele>
        <time>2022-06-09T10:21:11Z</time>
      </trkpt>
      <trkpt lat="44.86858" lon="3.4177">
        <ele>1292.9</ele>
        <time>2022-06-09T10:21:15Z</time>
      </trkpt>
      <trkpt lat="44.86861" lon="3.41764">
        <ele>1292.2</ele>
        <time>2022-06-09T10:21:20Z</time>
      </trkpt>
      <trkpt lat="44.86863" lon="3.41758">
        <ele>1292</ele>
        <time>2022-06-09T10:21:25Z</time>
      </trkpt>
      <trkpt lat="44.86866" lon="3.41752">
        <ele>1291.6</ele>
        <time>2022-06-09T10:21:30Z</time>
      </trkpt>
      <trkpt lat="44.86868" lon="3.41746">
        <ele>1291.9</ele>
        <time>2022-06-09T10:21:35Z</time>
      </trkpt>
      <trkpt lat="44.86871" lon="3.41738">
        <ele>1291.1</ele>
        <time>2022-06-09T10:21:40Z</time>
      </trkpt>
      <trkpt lat="44.86873" lon="3.41732">
        <ele>1290.7</ele>
        <time>2022-06-09T10:21:45Z</time>
      </trkpt>
      <trkpt lat="44.86876" lon="3.41726">
        <ele>1290.1</ele>
        <time>2022-06-09T10:21:50Z</time>
      </trkpt>
      <trkpt lat="44.86879" lon="3.4172">
        <ele>1289.1</ele>
        <time>2022-06-09T10:21:55Z</time>
      </trkpt>
      <trkpt lat="44.86882" lon="3.41714">
        <ele>1288.3</ele>
        <time>2022-06-09T10:22:00Z</time>
      </trkpt>
      <trkpt lat="44.86885" lon="3.41708">
        <ele>1287.8</ele>
        <time>2022-06-09T10:22:04Z</time>
      </trkpt>
      <trkpt lat="44.86889" lon="3.41703">
        <ele>1287.8</ele>
        <time>2022-06-09T10:22:09Z</time>
      </trkpt>
      <trkpt lat="44.86892" lon="3.41697">
        <ele>1287.9</ele>
        <time>2022-06-09T10:22:14Z</time>
      </trkpt>
      <trkpt lat="44.86894" lon="3.41691">
        <ele>1287.3</ele>
        <time>2022-06-09T10:22:18Z</time>
      </trkpt>
      <trkpt lat="44.86897" lon="3.41684">
        <ele>1286.7</ele>
        <time>2022-06-09T10:22:23Z</time>
      </trkpt>
      <trkpt lat="44.869" lon="3.41679">
        <ele>1286.5</ele>
        <time>2022-06-09T10:22:28Z</time>
      </trkpt>
      <trkpt lat="44.86904" lon="3.41675">
        <ele>1286.9</ele>
        <time>2022-06-09T10:22:33Z</time>
      </trkpt>
      <trkpt lat="44.86908" lon="3.4167">
        <ele>1287.2</ele>
        <time>2022-06-09T10:22:39Z</time>
      </trkpt>
      <trkpt lat="44.86912" lon="3.41667">
        <ele>1290.2</ele>
        <time>2022-06-09T10:23:43Z</time>
      </trkpt>
      <trkpt lat="44.86916" lon="3.41665">
        <ele>1290.8</ele>
        <time>2022-06-09T10:23:47Z</time>
      </trkpt>
      <trkpt lat="44.86921" lon="3.41663">
        <ele>1290.2</ele>
        <time>2022-06-09T10:23:51Z</time>
      </trkpt>
      <trkpt lat="44.86925" lon="3.4166">
        <ele>1289.3</ele>
        <time>2022-06-09T10:23:55Z</time>
      </trkpt>
      <trkpt lat="44.8693" lon="3.41658">
        <ele>1288.9</ele>
        <time>2022-06-09T10:24:00Z</time>
      </trkpt>
      <trkpt lat="44.86935" lon="3.41656">
        <ele>1288.3</ele>
        <time>2022-06-09T10:24:18Z</time>
      </trkpt>
      <trkpt lat="44.86939" lon="3.41653">
        <ele>1287.8</ele>
        <time>2022-06-09T10:24:23Z</time>
      </trkpt>
      <trkpt lat="44.86944" lon="3.4165">
        <ele>1286.4</ele>
        <time>2022-06-09T10:24:28Z</time>
      </trkpt>
      <trkpt lat="44.86948" lon="3.41647">
        <ele>1286.3</ele>
        <time>2022-06-09T10:24:33Z</time>
      </trkpt>
      <trkpt lat="44.86953" lon="3.41644">
        <ele>1285.8</ele>
        <time>2022-06-09T10:24:38Z</time>
      </trkpt>
      <trkpt lat="44.86958" lon="3.41644">
        <ele>1285.6</ele>
        <time>2022-06-09T10:24:43Z</time>
      </trkpt>
      <trkpt lat="44.86962" lon="3.41646">
        <ele>1284</ele>
        <time>2022-06-09T10:25:07Z</time>
      </trkpt>
      <trkpt lat="44.86967" lon="3.41645">
        <ele>1283.9</ele>
        <time>2022-06-09T10:25:23Z</time>
      </trkpt>
      <trkpt lat="44.86972" lon="3.41645">
        <ele>1283</ele>
        <time>2022-06-09T10:25:28Z</time>
      </trkpt>
      <trkpt lat="44.86978" lon="3.41646">
        <ele>1283</ele>
        <time>2022-06-09T10:25:33Z</time>
      </trkpt>
      <trkpt lat="44.86983" lon="3.41646">
        <ele>1283</ele>
        <time>2022-06-09T10:25:38Z</time>
      </trkpt>
      <trkpt lat="44.86988" lon="3.41645">
        <ele>1282.6</ele>
        <time>2022-06-09T10:25:43Z</time>
      </trkpt>
      <trkpt lat="44.86993" lon="3.41645">
        <ele>1283.2</ele>
        <time>2022-06-09T10:25:48Z</time>
      </trkpt>
      <trkpt lat="44.86998" lon="3.41645">
        <ele>1283.4</ele>
        <time>2022-06-09T10:25:54Z</time>
      </trkpt>
      <trkpt lat="44.87003" lon="3.41646">
        <ele>1282.6</ele>
        <time>2022-06-09T10:25:59Z</time>
      </trkpt>
      <trkpt lat="44.87008" lon="3.41646">
        <ele>1281.9</ele>
        <time>2022-06-09T10:26:05Z</time>
      </trkpt>
      <trkpt lat="44.87013" lon="3.41645">
        <ele>1279.1</ele>
        <time>2022-06-09T10:26:12Z</time>
      </trkpt>
      <trkpt lat="44.87018" lon="3.41644">
        <ele>1277.3</ele>
        <time>2022-06-09T10:26:19Z</time>
      </trkpt>
      <trkpt lat="44.87022" lon="3.4164">
        <ele>1277.8</ele>
        <time>2022-06-09T10:26:24Z</time>
      </trkpt>
      <trkpt lat="44.87025" lon="3.41636">
        <ele>1277.6</ele>
        <time>2022-06-09T10:26:30Z</time>
      </trkpt>
      <trkpt lat="44.87029" lon="3.41631">
        <ele>1276.6</ele>
        <time>2022-06-09T10:26:36Z</time>
      </trkpt>
      <trkpt lat="44.87032" lon="3.41626">
        <ele>1275.1</ele>
        <time>2022-06-09T10:26:43Z</time>
      </trkpt>
      <trkpt lat="44.87036" lon="3.41624">
        <ele>1274.4</ele>
        <time>2022-06-09T10:26:54Z</time>
      </trkpt>
      <trkpt lat="44.87038" lon="3.41617">
        <ele>1271</ele>
        <time>2022-06-09T10:28:57Z</time>
      </trkpt>
      <trkpt lat="44.8704" lon="3.41611">
        <ele>1271.4</ele>
        <time>2022-06-09T10:29:05Z</time>
      </trkpt>
      <trkpt lat="44.87043" lon="3.41605">
        <ele>1270.6</ele>
        <time>2022-06-09T10:29:11Z</time>
      </trkpt>
      <trkpt lat="44.87046" lon="3.41599">
        <ele>1269.9</ele>
        <time>2022-06-09T10:29:17Z</time>
      </trkpt>
      <trkpt lat="44.87045" lon="3.41592">
        <ele>1270.3</ele>
        <time>2022-06-09T10:29:22Z</time>
      </trkpt>
      <trkpt lat="44.87049" lon="3.41588">
        <ele>1268.8</ele>
        <time>2022-06-09T10:29:27Z</time>
      </trkpt>
      <trkpt lat="44.87052" lon="3.41584">
        <ele>1266.6</ele>
        <time>2022-06-09T10:29:32Z</time>
      </trkpt>
      <trkpt lat="44.87056" lon="3.41579">
        <ele>1264.8</ele>
        <time>2022-06-09T10:29:37Z</time>
      </trkpt>
      <trkpt lat="44.87058" lon="3.41572">
        <ele>1262.7</ele>
        <time>2022-06-09T10:29:41Z</time>
      </trkpt>
      <trkpt lat="44.87055" lon="3.41566">
        <ele>1260.6</ele>
        <time>2022-06-09T10:29:46Z</time>
      </trkpt>
      <trkpt lat="44.87055" lon="3.4156">
        <ele>1259.4</ele>
        <time>2022-06-09T10:29:55Z</time>
      </trkpt>
      <trkpt lat="44.87059" lon="3.41564">
        <ele>1255.2</ele>
        <time>2022-06-09T10:31:21Z</time>
      </trkpt>
      <trkpt lat="44.87062" lon="3.41569">
        <ele>1255.9</ele>
        <time>2022-06-09T10:31:30Z</time>
      </trkpt>
      <trkpt lat="44.87066" lon="3.41574">
        <ele>1256.9</ele>
        <time>2022-06-09T10:31:35Z</time>
      </trkpt>
      <trkpt lat="44.87071" lon="3.41575">
        <ele>1256.4</ele>
        <time>2022-06-09T10:31:45Z</time>
      </trkpt>
      <trkpt lat="44.87074" lon="3.4158">
        <ele>1256.4</ele>
        <time>2022-06-09T10:31:51Z</time>
      </trkpt>
      <trkpt lat="44.87078" lon="3.41585">
        <ele>1257.1</ele>
        <time>2022-06-09T10:31:57Z</time>
      </trkpt>
      <trkpt lat="44.87081" lon="3.4159">
        <ele>1258.8</ele>
        <time>2022-06-09T10:32:14Z</time>
      </trkpt>
      <trkpt lat="44.87084" lon="3.41594">
        <ele>1259.6</ele>
        <time>2022-06-09T10:32:20Z</time>
      </trkpt>
      <trkpt lat="44.87086" lon="3.416">
        <ele>1259.8</ele>
        <time>2022-06-09T10:32:34Z</time>
      </trkpt>
      <trkpt lat="44.87091" lon="3.41604">
        <ele>1260</ele>
        <time>2022-06-09T10:32:40Z</time>
      </trkpt>
      <trkpt lat="44.87095" lon="3.41609">
        <ele>1260.5</ele>
        <time>2022-06-09T10:32:45Z</time>
      </trkpt>
      <trkpt lat="44.87099" lon="3.41614">
        <ele>1260.5</ele>
        <time>2022-06-09T10:32:50Z</time>
      </trkpt>
      <trkpt lat="44.87103" lon="3.41617">
        <ele>1260.2</ele>
        <time>2022-06-09T10:32:54Z</time>
      </trkpt>
      <trkpt lat="44.87107" lon="3.41621">
        <ele>1259.9</ele>
        <time>2022-06-09T10:32:59Z</time>
      </trkpt>
      <trkpt lat="44.87112" lon="3.41624">
        <ele>1260.3</ele>
        <time>2022-06-09T10:33:04Z</time>
      </trkpt>
      <trkpt lat="44.87117" lon="3.41625">
        <ele>1260.8</ele>
        <time>2022-06-09T10:33:09Z</time>
      </trkpt>
      <trkpt lat="44.87122" lon="3.41627">
        <ele>1261.4</ele>
        <time>2022-06-09T10:33:14Z</time>
      </trkpt>
      <trkpt lat="44.87128" lon="3.41627">
        <ele>1261.4</ele>
        <time>2022-06-09T10:33:19Z</time>
      </trkpt>
      <trkpt lat="44.87133" lon="3.41629">
        <ele>1260.9</ele>
        <time>2022-06-09T10:33:23Z</time>
      </trkpt>
      <trkpt lat="44.87137" lon="3.41627">
        <ele>1260.8</ele>
        <time>2022-06-09T10:33:32Z</time>
      </trkpt>
      <trkpt lat="44.87142" lon="3.41623">
        <ele>1259.8</ele>
        <time>2022-06-09T10:33:38Z</time>
      </trkpt>
      <trkpt lat="44.87147" lon="3.41621">
        <ele>1259.1</ele>
        <time>2022-06-09T10:33:42Z</time>
      </trkpt>
      <trkpt lat="44.87151" lon="3.4162">
        <ele>1258.4</ele>
        <time>2022-06-09T10:33:46Z</time>
      </trkpt>
      <trkpt lat="44.87156" lon="3.41618">
        <ele>1258.6</ele>
        <time>2022-06-09T10:33:51Z</time>
      </trkpt>
      <trkpt lat="44.87161" lon="3.41616">
        <ele>1255.1</ele>
        <time>2022-06-09T10:34:21Z</time>
      </trkpt>
      <trkpt lat="44.87166" lon="3.41617">
        <ele>1255.2</ele>
        <time>2022-06-09T10:34:25Z</time>
      </trkpt>
      <trkpt lat="44.87171" lon="3.41617">
        <ele>1256.2</ele>
        <time>2022-06-09T10:34:30Z</time>
      </trkpt>
      <trkpt lat="44.87176" lon="3.41616">
        <ele>1256.9</ele>
        <time>2022-06-09T10:34:36Z</time>
      </trkpt>
      <trkpt lat="44.87179" lon="3.41612">
        <ele>1258.3</ele>
        <time>2022-06-09T10:34:41Z</time>
      </trkpt>
      <trkpt lat="44.87184" lon="3.41608">
        <ele>1259.4</ele>
        <time>2022-06-09T10:34:45Z</time>
      </trkpt>
      <trkpt lat="44.87189" lon="3.41606">
        <ele>1259.9</ele>
        <time>2022-06-09T10:34:49Z</time>
      </trkpt>
      <trkpt lat="44.87194" lon="3.41604">
        <ele>1258.8</ele>
        <time>2022-06-09T10:34:53Z</time>
      </trkpt>
      <trkpt lat="44.87198" lon="3.41603">
        <ele>1257.4</ele>
        <time>2022-06-09T10:34:57Z</time>
      </trkpt>
      <trkpt lat="44.87203" lon="3.416">
        <ele>1258.6</ele>
        <time>2022-06-09T10:35:03Z</time>
      </trkpt>
      <trkpt lat="44.87207" lon="3.41596">
        <ele>1261</ele>
        <time>2022-06-09T10:35:16Z</time>
      </trkpt>
      <trkpt lat="44.87211" lon="3.41594">
        <ele>1260.5</ele>
        <time>2022-06-09T10:35:23Z</time>
      </trkpt>
      <trkpt lat="44.87216" lon="3.41596">
        <ele>1258.6</ele>
        <time>2022-06-09T10:35:42Z</time>
      </trkpt>
      <trkpt lat="44.8722" lon="3.41593">
        <ele>1258.7</ele>
        <time>2022-06-09T10:35:51Z</time>
      </trkpt>
      <trkpt lat="44.87225" lon="3.4159">
        <ele>1258.2</ele>
        <time>2022-06-09T10:35:55Z</time>
      </trkpt>
      <trkpt lat="44.8723" lon="3.41588">
        <ele>1257.2</ele>
        <time>2022-06-09T10:35:59Z</time>
      </trkpt>
      <trkpt lat="44.87234" lon="3.41585">
        <ele>1256.6</ele>
        <time>2022-06-09T10:36:03Z</time>
      </trkpt>
      <trkpt lat="44.87238" lon="3.41582">
        <ele>1256.8</ele>
        <time>2022-06-09T10:36:07Z</time>
      </trkpt>
      <trkpt lat="44.87243" lon="3.41579">
        <ele>1256.8</ele>
        <time>2022-06-09T10:36:11Z</time>
      </trkpt>
      <trkpt lat="44.87247" lon="3.41576">
        <ele>1257.3</ele>
        <time>2022-06-09T10:36:15Z</time>
      </trkpt>
      <trkpt lat="44.87252" lon="3.41574">
        <ele>1257.1</ele>
        <time>2022-06-09T10:36:19Z</time>
      </trkpt>
      <trkpt lat="44.87257" lon="3.41571">
        <ele>1257.4</ele>
        <time>2022-06-09T10:36:23Z</time>
      </trkpt>
      <trkpt lat="44.87261" lon="3.41569">
        <ele>1257.9</ele>
        <time>2022-06-09T10:36:27Z</time>
      </trkpt>
      <trkpt lat="44.87266" lon="3.41565">
        <ele>1257.1</ele>
        <time>2022-06-09T10:36:32Z</time>
      </trkpt>
      <trkpt lat="44.87271" lon="3.41563">
        <ele>1256.9</ele>
        <time>2022-06-09T10:36:36Z</time>
      </trkpt>
      <trkpt lat="44.87275" lon="3.41561">
        <ele>1258.2</ele>
        <time>2022-06-09T10:36:40Z</time>
      </trkpt>
      <trkpt lat="44.87281" lon="3.41561">
        <ele>1259.1</ele>
        <time>2022-06-09T10:36:45Z</time>
      </trkpt>
      <trkpt lat="44.87286" lon="3.41564">
        <ele>1258.9</ele>
        <time>2022-06-09T10:36:49Z</time>
      </trkpt>
      <trkpt lat="44.8729" lon="3.41567">
        <ele>1258.4</ele>
        <time>2022-06-09T10:36:52Z</time>
      </trkpt>
      <trkpt lat="44.87295" lon="3.4157">
        <ele>1257.7</ele>
        <time>2022-06-09T10:36:56Z</time>
      </trkpt>
      <trkpt lat="44.873" lon="3.41571">
        <ele>1257.3</ele>
        <time>2022-06-09T10:37:00Z</time>
      </trkpt>
      <trkpt lat="44.87304" lon="3.41573">
        <ele>1256</ele>
        <time>2022-06-09T10:37:04Z</time>
      </trkpt>
      <trkpt lat="44.87309" lon="3.41575">
        <ele>1254.5</ele>
        <time>2022-06-09T10:37:09Z</time>
      </trkpt>
      <trkpt lat="44.87313" lon="3.41576">
        <ele>1253</ele>
        <time>2022-06-09T10:37:22Z</time>
      </trkpt>
      <trkpt lat="44.87318" lon="3.41579">
        <ele>1252.4</ele>
        <time>2022-06-09T10:37:26Z</time>
      </trkpt>
      <trkpt lat="44.87323" lon="3.4158">
        <ele>1251.3</ele>
        <time>2022-06-09T10:37:31Z</time>
      </trkpt>
      <trkpt lat="44.87328" lon="3.41581">
        <ele>1251.7</ele>
        <time>2022-06-09T10:38:23Z</time>
      </trkpt>
      <trkpt lat="44.87333" lon="3.41579">
        <ele>1251.9</ele>
        <time>2022-06-09T10:38:27Z</time>
      </trkpt>
      <trkpt lat="44.87339" lon="3.41577">
        <ele>1252</ele>
        <time>2022-06-09T10:38:31Z</time>
      </trkpt>
      <trkpt lat="44.87344" lon="3.41574">
        <ele>1252.1</ele>
        <time>2022-06-09T10:38:35Z</time>
      </trkpt>
      <trkpt lat="44.87349" lon="3.41571">
        <ele>1252.3</ele>
        <time>2022-06-09T10:38:39Z</time>
      </trkpt>
      <trkpt lat="44.87353" lon="3.41569">
        <ele>1251.9</ele>
        <time>2022-06-09T10:38:43Z</time>
      </trkpt>
      <trkpt lat="44.87358" lon="3.41565">
        <ele>1252.5</ele>
        <time>2022-06-09T10:38:47Z</time>
      </trkpt>
      <trkpt lat="44.87362" lon="3.41559">
        <ele>1252.7</ele>
        <time>2022-06-09T10:38:51Z</time>
      </trkpt>
      <trkpt lat="44.87366" lon="3.41555">
        <ele>1251.9</ele>
        <time>2022-06-09T10:38:55Z</time>
      </trkpt>
      <trkpt lat="44.87371" lon="3.41553">
        <ele>1248.6</ele>
        <time>2022-06-09T10:39:12Z</time>
      </trkpt>
      <trkpt lat="44.87376" lon="3.4155">
        <ele>1248.9</ele>
        <time>2022-06-09T10:39:17Z</time>
      </trkpt>
      <trkpt lat="44.87381" lon="3.41549">
        <ele>1248</ele>
        <time>2022-06-09T10:39:29Z</time>
      </trkpt>
      <trkpt lat="44.87384" lon="3.41545">
        <ele>1248.3</ele>
        <time>2022-06-09T10:39:38Z</time>
      </trkpt>
      <trkpt lat="44.87389" lon="3.41542">
        <ele>1248.9</ele>
        <time>2022-06-09T10:39:45Z</time>
      </trkpt>
      <trkpt lat="44.87393" lon="3.41539">
        <ele>1249.5</ele>
        <time>2022-06-09T10:39:49Z</time>
      </trkpt>
      <trkpt lat="44.87397" lon="3.41534">
        <ele>1249.7</ele>
        <time>2022-06-09T10:39:53Z</time>
      </trkpt>
      <trkpt lat="44.87401" lon="3.41528">
        <ele>1250.1</ele>
        <time>2022-06-09T10:39:58Z</time>
      </trkpt>
      <trkpt lat="44.87404" lon="3.41524">
        <ele>1250.8</ele>
        <time>2022-06-09T10:40:02Z</time>
      </trkpt>
      <trkpt lat="44.87407" lon="3.41519">
        <ele>1251.6</ele>
        <time>2022-06-09T10:40:06Z</time>
      </trkpt>
      <trkpt lat="44.87411" lon="3.41514">
        <ele>1252.7</ele>
        <time>2022-06-09T10:40:11Z</time>
      </trkpt>
      <trkpt lat="44.87415" lon="3.4151">
        <ele>1253.6</ele>
        <time>2022-06-09T10:40:16Z</time>
      </trkpt>
      <trkpt lat="44.8742" lon="3.41506">
        <ele>1254.5</ele>
        <time>2022-06-09T10:40:21Z</time>
      </trkpt>
      <trkpt lat="44.87425" lon="3.41502">
        <ele>1255.9</ele>
        <time>2022-06-09T10:40:26Z</time>
      </trkpt>
      <trkpt lat="44.87428" lon="3.41498">
        <ele>1256.5</ele>
        <time>2022-06-09T10:40:30Z</time>
      </trkpt>
      <trkpt lat="44.87432" lon="3.41493">
        <ele>1256.4</ele>
        <time>2022-06-09T10:40:34Z</time>
      </trkpt>
      <trkpt lat="44.87436" lon="3.41488">
        <ele>1256.1</ele>
        <time>2022-06-09T10:40:39Z</time>
      </trkpt>
      <trkpt lat="44.8744" lon="3.41484">
        <ele>1255.6</ele>
        <time>2022-06-09T10:40:43Z</time>
      </trkpt>
      <trkpt lat="44.87444" lon="3.4148">
        <ele>1255.6</ele>
        <time>2022-06-09T10:40:48Z</time>
      </trkpt>
      <trkpt lat="44.87448" lon="3.41476">
        <ele>1256.6</ele>
        <time>2022-06-09T10:40:53Z</time>
      </trkpt>
      <trkpt lat="44.87452" lon="3.41473">
        <ele>1257</ele>
        <time>2022-06-09T10:40:58Z</time>
      </trkpt>
      <trkpt lat="44.87456" lon="3.4147">
        <ele>1258.5</ele>
        <time>2022-06-09T10:41:03Z</time>
      </trkpt>
      <trkpt lat="44.87461" lon="3.4147">
        <ele>1259.7</ele>
        <time>2022-06-09T10:41:10Z</time>
      </trkpt>
      <trkpt lat="44.87466" lon="3.41467">
        <ele>1261.2</ele>
        <time>2022-06-09T10:41:18Z</time>
      </trkpt>
      <trkpt lat="44.8747" lon="3.41465">
        <ele>1214.3</ele>
        <time>2022-06-09T10:41:25Z</time>
      </trkpt>
      <trkpt lat="44.87474" lon="3.41461">
        <ele>1233.2</ele>
        <time>2022-06-09T10:41:32Z</time>
      </trkpt>
      <trkpt lat="44.87476" lon="3.41455">
        <ele>1249.4</ele>
        <time>2022-06-09T10:41:38Z</time>
      </trkpt>
      <trkpt lat="44.87479" lon="3.41449">
        <ele>1260.1</ele>
        <time>2022-06-09T10:41:46Z</time>
      </trkpt>
      <trkpt lat="44.87484" lon="3.41446">
        <ele>1263.2</ele>
        <time>2022-06-09T10:41:52Z</time>
      </trkpt>
      <trkpt lat="44.87488" lon="3.41442">
        <ele>1264.4</ele>
        <time>2022-06-09T10:41:58Z</time>
      </trkpt>
      <trkpt lat="44.87492" lon="3.4144">
        <ele>1265.7</ele>
        <time>2022-06-09T10:42:03Z</time>
      </trkpt>
      <trkpt lat="44.87496" lon="3.41437">
        <ele>1267.2</ele>
        <time>2022-06-09T10:42:08Z</time>
      </trkpt>
      <trkpt lat="44.875" lon="3.41433">
        <ele>1268.9</ele>
        <time>2022-06-09T10:42:15Z</time>
      </trkpt>
      <trkpt lat="44.87505" lon="3.41431">
        <ele>1267.7</ele>
        <time>2022-06-09T10:42:25Z</time>
      </trkpt>
      <trkpt lat="44.8751" lon="3.4143">
        <ele>1266.7</ele>
        <time>2022-06-09T10:42:30Z</time>
      </trkpt>
      <trkpt lat="44.87514" lon="3.41429">
        <ele>1266.9</ele>
        <time>2022-06-09T10:42:35Z</time>
      </trkpt>
      <trkpt lat="44.87519" lon="3.41427">
        <ele>1267</ele>
        <time>2022-06-09T10:42:41Z</time>
      </trkpt>
      <trkpt lat="44.87524" lon="3.41425">
        <ele>1267.3</ele>
        <time>2022-06-09T10:42:46Z</time>
      </trkpt>
      <trkpt lat="44.87529" lon="3.41422">
        <ele>1267.8</ele>
        <time>2022-06-09T10:42:51Z</time>
      </trkpt>
      <trkpt lat="44.87533" lon="3.4142">
        <ele>1267.7</ele>
        <time>2022-06-09T10:43:03Z</time>
      </trkpt>
      <trkpt lat="44.87537" lon="3.41417">
        <ele>1266.8</ele>
        <time>2022-06-09T10:43:10Z</time>
      </trkpt>
      <trkpt lat="44.87542" lon="3.41415">
        <ele>1268.5</ele>
        <time>2022-06-09T10:43:49Z</time>
      </trkpt>
      <trkpt lat="44.87545" lon="3.41411">
        <ele>1269.2</ele>
        <time>2022-06-09T10:43:54Z</time>
      </trkpt>
      <trkpt lat="44.87548" lon="3.41405">
        <ele>1270.5</ele>
        <time>2022-06-09T10:43:59Z</time>
      </trkpt>
      <trkpt lat="44.87552" lon="3.41399">
        <ele>1271.2</ele>
        <time>2022-06-09T10:44:04Z</time>
      </trkpt>
      <trkpt lat="44.87555" lon="3.41393">
        <ele>1271.7</ele>
        <time>2022-06-09T10:44:09Z</time>
      </trkpt>
      <trkpt lat="44.87557" lon="3.41387">
        <ele>1272.5</ele>
        <time>2022-06-09T10:44:14Z</time>
      </trkpt>
      <trkpt lat="44.8756" lon="3.41382">
        <ele>1272.1</ele>
        <time>2022-06-09T10:44:20Z</time>
      </trkpt>
      <trkpt lat="44.87563" lon="3.41378">
        <ele>1271.1</ele>
        <time>2022-06-09T10:44:26Z</time>
      </trkpt>
      <trkpt lat="44.87566" lon="3.41372">
        <ele>1270.2</ele>
        <time>2022-06-09T10:44:32Z</time>
      </trkpt>
      <trkpt lat="44.8757" lon="3.41367">
        <ele>1270.2</ele>
        <time>2022-06-09T10:44:48Z</time>
      </trkpt>
      <trkpt lat="44.87572" lon="3.41361">
        <ele>1269.6</ele>
        <time>2022-06-09T10:44:52Z</time>
      </trkpt>
      <trkpt lat="44.87574" lon="3.41356">
        <ele>1269.6</ele>
        <time>2022-06-09T10:44:56Z</time>
      </trkpt>
      <trkpt lat="44.87576" lon="3.41349">
        <ele>1268.9</ele>
        <time>2022-06-09T10:45:01Z</time>
      </trkpt>
      <trkpt lat="44.87578" lon="3.41342">
        <ele>1269.3</ele>
        <time>2022-06-09T10:45:06Z</time>
      </trkpt>
      <trkpt lat="44.8758" lon="3.41335">
        <ele>1268.3</ele>
        <time>2022-06-09T10:45:10Z</time>
      </trkpt>
      <trkpt lat="44.87582" lon="3.41329">
        <ele>1266.8</ele>
        <time>2022-06-09T10:45:14Z</time>
      </trkpt>
      <trkpt lat="44.87585" lon="3.41322">
        <ele>1267</ele>
        <time>2022-06-09T10:45:19Z</time>
      </trkpt>
      <trkpt lat="44.87587" lon="3.41315">
        <ele>1267.2</ele>
        <time>2022-06-09T10:45:25Z</time>
      </trkpt>
      <trkpt lat="44.8759" lon="3.41309">
        <ele>1268.1</ele>
        <time>2022-06-09T10:45:31Z</time>
      </trkpt>
      <trkpt lat="44.87594" lon="3.41304">
        <ele>1271.2</ele>
        <time>2022-06-09T10:45:45Z</time>
      </trkpt>
      <trkpt lat="44.87597" lon="3.41298">
        <ele>1271.5</ele>
        <time>2022-06-09T10:45:50Z</time>
      </trkpt>
      <trkpt lat="44.876" lon="3.41293">
        <ele>1271.7</ele>
        <time>2022-06-09T10:45:54Z</time>
      </trkpt>
      <trkpt lat="44.87603" lon="3.41288">
        <ele>1272.3</ele>
        <time>2022-06-09T10:45:59Z</time>
      </trkpt>
      <trkpt lat="44.87607" lon="3.41283">
        <ele>1271.5</ele>
        <time>2022-06-09T10:46:03Z</time>
      </trkpt>
      <trkpt lat="44.8761" lon="3.41279">
        <ele>1269.7</ele>
        <time>2022-06-09T10:46:07Z</time>
      </trkpt>
      <trkpt lat="44.87613" lon="3.41273">
        <ele>1268.7</ele>
        <time>2022-06-09T10:46:12Z</time>
      </trkpt>
      <trkpt lat="44.87615" lon="3.41267">
        <ele>1268</ele>
        <time>2022-06-09T10:46:18Z</time>
      </trkpt>
      <trkpt lat="44.87616" lon="3.4126">
        <ele>1269.1</ele>
        <time>2022-06-09T10:46:24Z</time>
      </trkpt>
      <trkpt lat="44.87619" lon="3.41255">
        <ele>1269.8</ele>
        <time>2022-06-09T10:46:31Z</time>
      </trkpt>
      <trkpt lat="44.87622" lon="3.41249">
        <ele>1270.5</ele>
        <time>2022-06-09T10:46:36Z</time>
      </trkpt>
      <trkpt lat="44.87625" lon="3.41243">
        <ele>1271.9</ele>
        <time>2022-06-09T10:46:41Z</time>
      </trkpt>
      <trkpt lat="44.87628" lon="3.41239">
        <ele>1273.8</ele>
        <time>2022-06-09T10:46:47Z</time>
      </trkpt>
      <trkpt lat="44.87632" lon="3.41235">
        <ele>1274.7</ele>
        <time>2022-06-09T10:46:55Z</time>
      </trkpt>
      <trkpt lat="44.87634" lon="3.41229">
        <ele>1273.3</ele>
        <time>2022-06-09T10:47:01Z</time>
      </trkpt>
      <trkpt lat="44.87636" lon="3.41223">
        <ele>1272.4</ele>
        <time>2022-06-09T10:47:06Z</time>
      </trkpt>
      <trkpt lat="44.8764" lon="3.41217">
        <ele>1273.6</ele>
        <time>2022-06-09T10:47:13Z</time>
      </trkpt>
      <trkpt lat="44.87644" lon="3.41215">
        <ele>1275.5</ele>
        <time>2022-06-09T10:47:20Z</time>
      </trkpt>
      <trkpt lat="44.87648" lon="3.41209">
        <ele>1274.8</ele>
        <time>2022-06-09T10:47:26Z</time>
      </trkpt>
      <trkpt lat="44.87652" lon="3.41205">
        <ele>1274.4</ele>
        <time>2022-06-09T10:47:32Z</time>
      </trkpt>
      <trkpt lat="44.87656" lon="3.41201">
        <ele>1274.5</ele>
        <time>2022-06-09T10:47:37Z</time>
      </trkpt>
      <trkpt lat="44.87659" lon="3.41196">
        <ele>1274.5</ele>
        <time>2022-06-09T10:47:43Z</time>
      </trkpt>
      <trkpt lat="44.87662" lon="3.41191">
        <ele>1273.8</ele>
        <time>2022-06-09T10:47:48Z</time>
      </trkpt>
      <trkpt lat="44.87666" lon="3.41187">
        <ele>1272.7</ele>
        <time>2022-06-09T10:47:53Z</time>
      </trkpt>
      <trkpt lat="44.87669" lon="3.41181">
        <ele>1271.5</ele>
        <time>2022-06-09T10:47:58Z</time>
      </trkpt>
      <trkpt lat="44.87672" lon="3.41176">
        <ele>1271.6</ele>
        <time>2022-06-09T10:48:04Z</time>
      </trkpt>
      <trkpt lat="44.87676" lon="3.4117">
        <ele>1273.2</ele>
        <time>2022-06-09T10:48:09Z</time>
      </trkpt>
      <trkpt lat="44.87678" lon="3.41164">
        <ele>1274</ele>
        <time>2022-06-09T10:48:14Z</time>
      </trkpt>
      <trkpt lat="44.87681" lon="3.41158">
        <ele>1274.4</ele>
        <time>2022-06-09T10:48:19Z</time>
      </trkpt>
      <trkpt lat="44.87684" lon="3.41152">
        <ele>1274.5</ele>
        <time>2022-06-09T10:48:24Z</time>
      </trkpt>
      <trkpt lat="44.87686" lon="3.41146">
        <ele>1274.6</ele>
        <time>2022-06-09T10:48:28Z</time>
      </trkpt>
      <trkpt lat="44.8769" lon="3.4114">
        <ele>1274.6</ele>
        <time>2022-06-09T10:48:33Z</time>
      </trkpt>
      <trkpt lat="44.87692" lon="3.41134">
        <ele>1274.9</ele>
        <time>2022-06-09T10:48:38Z</time>
      </trkpt>
      <trkpt lat="44.87696" lon="3.41129">
        <ele>1274.6</ele>
        <time>2022-06-09T10:48:42Z</time>
      </trkpt>
      <trkpt lat="44.87699" lon="3.41125">
        <ele>1274.5</ele>
        <time>2022-06-09T10:48:46Z</time>
      </trkpt>
      <trkpt lat="44.87702" lon="3.41118">
        <ele>1274.5</ele>
        <time>2022-06-09T10:48:51Z</time>
      </trkpt>
      <trkpt lat="44.87704" lon="3.41113">
        <ele>1274.6</ele>
        <time>2022-06-09T10:48:55Z</time>
      </trkpt>
      <trkpt lat="44.87707" lon="3.41107">
        <ele>1273.9</ele>
        <time>2022-06-09T10:49:00Z</time>
      </trkpt>
      <trkpt lat="44.8771" lon="3.41101">
        <ele>1274.3</ele>
        <time>2022-06-09T10:49:05Z</time>
      </trkpt>
      <trkpt lat="44.87712" lon="3.41094">
        <ele>1274.5</ele>
        <time>2022-06-09T10:49:12Z</time>
      </trkpt>
      <trkpt lat="44.87714" lon="3.41088">
        <ele>1274.2</ele>
        <time>2022-06-09T10:49:16Z</time>
      </trkpt>
      <trkpt lat="44.87716" lon="3.41081">
        <ele>1274.3</ele>
        <time>2022-06-09T10:49:20Z</time>
      </trkpt>
      <trkpt lat="44.87717" lon="3.41074">
        <ele>1274.3</ele>
        <time>2022-06-09T10:49:25Z</time>
      </trkpt>
      <trkpt lat="44.87718" lon="3.41068">
        <ele>1274.6</ele>
        <time>2022-06-09T10:49:30Z</time>
      </trkpt>
      <trkpt lat="44.87718" lon="3.41061">
        <ele>1275.8</ele>
        <time>2022-06-09T10:49:35Z</time>
      </trkpt>
      <trkpt lat="44.87718" lon="3.41053">
        <ele>1277.2</ele>
        <time>2022-06-09T10:49:40Z</time>
      </trkpt>
      <trkpt lat="44.87719" lon="3.41047">
        <ele>1277.1</ele>
        <time>2022-06-09T10:49:44Z</time>
      </trkpt>
      <trkpt lat="44.87719" lon="3.4104">
        <ele>1276.7</ele>
        <time>2022-06-09T10:49:49Z</time>
      </trkpt>
      <trkpt lat="44.87722" lon="3.41035">
        <ele>1275.2</ele>
        <time>2022-06-09T10:49:55Z</time>
      </trkpt>
      <trkpt lat="44.87722" lon="3.41027">
        <ele>1276.1</ele>
        <time>2022-06-09T10:50:00Z</time>
      </trkpt>
      <trkpt lat="44.87723" lon="3.4102">
        <ele>1276.7</ele>
        <time>2022-06-09T10:50:05Z</time>
      </trkpt>
      <trkpt lat="44.87725" lon="3.41013">
        <ele>1276.4</ele>
        <time>2022-06-09T10:50:10Z</time>
      </trkpt>
      <trkpt lat="44.87728" lon="3.41007">
        <ele>1276.2</ele>
        <time>2022-06-09T10:50:15Z</time>
      </trkpt>
      <trkpt lat="44.87728" lon="3.40999">
        <ele>1276.2</ele>
        <time>2022-06-09T10:50:20Z</time>
      </trkpt>
      <trkpt lat="44.87727" lon="3.40992">
        <ele>1276</ele>
        <time>2022-06-09T10:50:24Z</time>
      </trkpt>
      <trkpt lat="44.87727" lon="3.40985">
        <ele>1276</ele>
        <time>2022-06-09T10:50:29Z</time>
      </trkpt>
      <trkpt lat="44.87728" lon="3.40978">
        <ele>1276.1</ele>
        <time>2022-06-09T10:50:35Z</time>
      </trkpt>
      <trkpt lat="44.87729" lon="3.40971">
        <ele>1276.4</ele>
        <time>2022-06-09T10:50:41Z</time>
      </trkpt>
      <trkpt lat="44.8773" lon="3.40963">
        <ele>1276.4</ele>
        <time>2022-06-09T10:50:47Z</time>
      </trkpt>
      <trkpt lat="44.87731" lon="3.40957">
        <ele>1276.1</ele>
        <time>2022-06-09T10:50:52Z</time>
      </trkpt>
      <trkpt lat="44.87733" lon="3.4095">
        <ele>1275.9</ele>
        <time>2022-06-09T10:50:57Z</time>
      </trkpt>
      <trkpt lat="44.87735" lon="3.40944">
        <ele>1273.4</ele>
        <time>2022-06-09T10:51:01Z</time>
      </trkpt>
      <trkpt lat="44.87739" lon="3.40939">
        <ele>1272.4</ele>
        <time>2022-06-09T10:51:07Z</time>
      </trkpt>
      <trkpt lat="44.8774" lon="3.40933">
        <ele>1272.4</ele>
        <time>2022-06-09T10:51:12Z</time>
      </trkpt>
      <trkpt lat="44.87739" lon="3.40926">
        <ele>1272.2</ele>
        <time>2022-06-09T10:51:18Z</time>
      </trkpt>
      <trkpt lat="44.87741" lon="3.4092">
        <ele>1270</ele>
        <time>2022-06-09T10:51:23Z</time>
      </trkpt>
      <trkpt lat="44.87742" lon="3.40913">
        <ele>1268.5</ele>
        <time>2022-06-09T10:51:27Z</time>
      </trkpt>
      <trkpt lat="44.87742" lon="3.40907">
        <ele>1267.5</ele>
        <time>2022-06-09T10:51:33Z</time>
      </trkpt>
      <trkpt lat="44.87742" lon="3.409">
        <ele>1265.9</ele>
        <time>2022-06-09T10:51:44Z</time>
      </trkpt>
      <trkpt lat="44.87744" lon="3.40894">
        <ele>1263.6</ele>
        <time>2022-06-09T10:52:04Z</time>
      </trkpt>
      <trkpt lat="44.87746" lon="3.40889">
        <ele>1264.6</ele>
        <time>2022-06-09T10:52:11Z</time>
      </trkpt>
      <trkpt lat="44.87748" lon="3.40882">
        <ele>1263.9</ele>
        <time>2022-06-09T10:52:17Z</time>
      </trkpt>
      <trkpt lat="44.87751" lon="3.40876">
        <ele>1264.1</ele>
        <time>2022-06-09T10:52:23Z</time>
      </trkpt>
      <trkpt lat="44.87754" lon="3.4087">
        <ele>1262.9</ele>
        <time>2022-06-09T10:52:35Z</time>
      </trkpt>
      <trkpt lat="44.87755" lon="3.40863">
        <ele>1262.8</ele>
        <time>2022-06-09T10:52:40Z</time>
      </trkpt>
      <trkpt lat="44.87755" lon="3.40856">
        <ele>1263.2</ele>
        <time>2022-06-09T10:52:46Z</time>
      </trkpt>
      <trkpt lat="44.87753" lon="3.4085">
        <ele>1263.2</ele>
        <time>2022-06-09T10:52:51Z</time>
      </trkpt>
      <trkpt lat="44.8775" lon="3.40845">
        <ele>1261.8</ele>
        <time>2022-06-09T10:52:57Z</time>
      </trkpt>
      <trkpt lat="44.87746" lon="3.40841">
        <ele>1260.5</ele>
        <time>2022-06-09T10:53:04Z</time>
      </trkpt>
      <trkpt lat="44.87742" lon="3.40837">
        <ele>1255.3</ele>
        <time>2022-06-09T10:53:57Z</time>
      </trkpt>
      <trkpt lat="44.87739" lon="3.40832">
        <ele>1254.6</ele>
        <time>2022-06-09T10:54:06Z</time>
      </trkpt>
      <trkpt lat="44.87736" lon="3.40826">
        <ele>1253.3</ele>
        <time>2022-06-09T10:54:15Z</time>
      </trkpt>
      <trkpt lat="44.87734" lon="3.40821">
        <ele>1253.5</ele>
        <time>2022-06-09T10:54:21Z</time>
      </trkpt>
      <trkpt lat="44.87731" lon="3.40814">
        <ele>1255.1</ele>
        <time>2022-06-09T10:54:29Z</time>
      </trkpt>
      <trkpt lat="44.87728" lon="3.40809">
        <ele>1255.7</ele>
        <time>2022-06-09T10:54:35Z</time>
      </trkpt>
      <trkpt lat="44.87725" lon="3.40803">
        <ele>1256.2</ele>
        <time>2022-06-09T10:54:40Z</time>
      </trkpt>
      <trkpt lat="44.87724" lon="3.40797">
        <ele>1255.4</ele>
        <time>2022-06-09T10:54:45Z</time>
      </trkpt>
      <trkpt lat="44.87723" lon="3.40791">
        <ele>1253.5</ele>
        <time>2022-06-09T10:54:50Z</time>
      </trkpt>
      <trkpt lat="44.87721" lon="3.40784">
        <ele>1252.5</ele>
        <time>2022-06-09T10:54:55Z</time>
      </trkpt>
      <trkpt lat="44.87719" lon="3.40778">
        <ele>1253.8</ele>
        <time>2022-06-09T10:55:01Z</time>
      </trkpt>
      <trkpt lat="44.87715" lon="3.40776">
        <ele>1252.3</ele>
        <time>2022-06-09T10:56:07Z</time>
      </trkpt>
      <trkpt lat="44.87716" lon="3.40769">
        <ele>1252.4</ele>
        <time>2022-06-09T10:56:17Z</time>
      </trkpt>
      <trkpt lat="44.87715" lon="3.40762">
        <ele>1250.3</ele>
        <time>2022-06-09T10:56:32Z</time>
      </trkpt>
      <trkpt lat="44.87712" lon="3.40756">
        <ele>1249.8</ele>
        <time>2022-06-09T10:56:37Z</time>
      </trkpt>
      <trkpt lat="44.8771" lon="3.40751">
        <ele>1249.4</ele>
        <time>2022-06-09T10:56:41Z</time>
      </trkpt>
      <trkpt lat="44.87707" lon="3.40746">
        <ele>1249.3</ele>
        <time>2022-06-09T10:56:45Z</time>
      </trkpt>
      <trkpt lat="44.87703" lon="3.40741">
        <ele>1250.7</ele>
        <time>2022-06-09T10:56:51Z</time>
      </trkpt>
      <trkpt lat="44.87699" lon="3.40738">
        <ele>1250.3</ele>
        <time>2022-06-09T10:57:17Z</time>
      </trkpt>
      <trkpt lat="44.87695" lon="3.40734">
        <ele>1250.5</ele>
        <time>2022-06-09T10:57:21Z</time>
      </trkpt>
      <trkpt lat="44.87691" lon="3.40731">
        <ele>1250.5</ele>
        <time>2022-06-09T10:57:25Z</time>
      </trkpt>
      <trkpt lat="44.87689" lon="3.40726">
        <ele>1249.8</ele>
        <time>2022-06-09T10:57:34Z</time>
      </trkpt>
      <trkpt lat="44.87684" lon="3.40723">
        <ele>1251.5</ele>
        <time>2022-06-09T10:57:52Z</time>
      </trkpt>
      <trkpt lat="44.8768" lon="3.4072">
        <ele>1251.9</ele>
        <time>2022-06-09T10:57:56Z</time>
      </trkpt>
      <trkpt lat="44.87676" lon="3.40717">
        <ele>1252.6</ele>
        <time>2022-06-09T10:58:00Z</time>
      </trkpt>
      <trkpt lat="44.87672" lon="3.40714">
        <ele>1252.6</ele>
        <time>2022-06-09T10:58:04Z</time>
      </trkpt>
      <trkpt lat="44.87668" lon="3.4071">
        <ele>1252.2</ele>
        <time>2022-06-09T10:58:09Z</time>
      </trkpt>
      <trkpt lat="44.87663" lon="3.40707">
        <ele>1252.2</ele>
        <time>2022-06-09T10:58:15Z</time>
      </trkpt>
      <trkpt lat="44.87659" lon="3.40705">
        <ele>1252.2</ele>
        <time>2022-06-09T10:58:20Z</time>
      </trkpt>
      <trkpt lat="44.87654" lon="3.40703">
        <ele>1253.7</ele>
        <time>2022-06-09T10:58:26Z</time>
      </trkpt>
      <trkpt lat="44.87649" lon="3.407">
        <ele>1255.7</ele>
        <time>2022-06-09T10:58:32Z</time>
      </trkpt>
      <trkpt lat="44.87646" lon="3.40696">
        <ele>1255</ele>
        <time>2022-06-09T10:58:37Z</time>
      </trkpt>
      <trkpt lat="44.87643" lon="3.40691">
        <ele>1245.1</ele>
        <time>2022-06-09T11:00:08Z</time>
      </trkpt>
      <trkpt lat="44.87639" lon="3.40686">
        <ele>1246.8</ele>
        <time>2022-06-09T11:00:17Z</time>
      </trkpt>
      <trkpt lat="44.87635" lon="3.40682">
        <ele>1247.6</ele>
        <time>2022-06-09T11:00:22Z</time>
      </trkpt>
      <trkpt lat="44.87631" lon="3.40676">
        <ele>1248.1</ele>
        <time>2022-06-09T11:00:27Z</time>
      </trkpt>
      <trkpt lat="44.87628" lon="3.4067">
        <ele>1249.3</ele>
        <time>2022-06-09T11:00:32Z</time>
      </trkpt>
      <trkpt lat="44.87626" lon="3.40663">
        <ele>1248.5</ele>
        <time>2022-06-09T11:00:37Z</time>
      </trkpt>
      <trkpt lat="44.87623" lon="3.40657">
        <ele>1248.5</ele>
        <time>2022-06-09T11:00:42Z</time>
      </trkpt>
      <trkpt lat="44.8762" lon="3.4065">
        <ele>1247.7</ele>
        <time>2022-06-09T11:00:47Z</time>
      </trkpt>
      <trkpt lat="44.87617" lon="3.40644">
        <ele>1247.6</ele>
        <time>2022-06-09T11:00:52Z</time>
      </trkpt>
      <trkpt lat="44.87616" lon="3.40638">
        <ele>1246.5</ele>
        <time>2022-06-09T11:00:56Z</time>
      </trkpt>
      <trkpt lat="44.87614" lon="3.40632">
        <ele>1246.3</ele>
        <time>2022-06-09T11:01:00Z</time>
      </trkpt>
      <trkpt lat="44.87611" lon="3.40627">
        <ele>1247.1</ele>
        <time>2022-06-09T11:01:04Z</time>
      </trkpt>
      <trkpt lat="44.87609" lon="3.4062">
        <ele>1247.9</ele>
        <time>2022-06-09T11:01:09Z</time>
      </trkpt>
      <trkpt lat="44.87607" lon="3.40614">
        <ele>1248</ele>
        <time>2022-06-09T11:01:14Z</time>
      </trkpt>
      <trkpt lat="44.87606" lon="3.40606">
        <ele>1247.9</ele>
        <time>2022-06-09T11:01:19Z</time>
      </trkpt>
      <trkpt lat="44.87606" lon="3.406">
        <ele>1248.3</ele>
        <time>2022-06-09T11:01:24Z</time>
      </trkpt>
      <trkpt lat="44.87606" lon="3.40593">
        <ele>1248.2</ele>
        <time>2022-06-09T11:01:29Z</time>
      </trkpt>
      <trkpt lat="44.87607" lon="3.40585">
        <ele>1248.2</ele>
        <time>2022-06-09T11:01:34Z</time>
      </trkpt>
      <trkpt lat="44.87608" lon="3.40579">
        <ele>1247.8</ele>
        <time>2022-06-09T11:01:38Z</time>
      </trkpt>
      <trkpt lat="44.87609" lon="3.40573">
        <ele>1244.9</ele>
        <time>2022-06-09T11:01:51Z</time>
      </trkpt>
      <trkpt lat="44.87608" lon="3.40566">
        <ele>1243.8</ele>
        <time>2022-06-09T11:01:57Z</time>
      </trkpt>
      <trkpt lat="44.87609" lon="3.40559">
        <ele>1243</ele>
        <time>2022-06-09T11:02:02Z</time>
      </trkpt>
      <trkpt lat="44.87609" lon="3.40552">
        <ele>1243.8</ele>
        <time>2022-06-09T11:02:07Z</time>
      </trkpt>
      <trkpt lat="44.87608" lon="3.40544">
        <ele>1244.1</ele>
        <time>2022-06-09T11:02:12Z</time>
      </trkpt>
      <trkpt lat="44.87608" lon="3.40537">
        <ele>1245</ele>
        <time>2022-06-09T11:02:17Z</time>
      </trkpt>
      <trkpt lat="44.8761" lon="3.4053">
        <ele>1244.7</ele>
        <time>2022-06-09T11:02:21Z</time>
      </trkpt>
      <trkpt lat="44.87611" lon="3.40523">
        <ele>1244.9</ele>
        <time>2022-06-09T11:02:26Z</time>
      </trkpt>
      <trkpt lat="44.87611" lon="3.40516">
        <ele>1244.5</ele>
        <time>2022-06-09T11:02:30Z</time>
      </trkpt>
      <trkpt lat="44.87612" lon="3.4051">
        <ele>1244.3</ele>
        <time>2022-06-09T11:02:34Z</time>
      </trkpt>
      <trkpt lat="44.87613" lon="3.40502">
        <ele>1243.8</ele>
        <time>2022-06-09T11:02:39Z</time>
      </trkpt>
      <trkpt lat="44.87613" lon="3.40495">
        <ele>1243.3</ele>
        <time>2022-06-09T11:02:44Z</time>
      </trkpt>
      <trkpt lat="44.87613" lon="3.40488">
        <ele>1241.2</ele>
        <time>2022-06-09T11:02:49Z</time>
      </trkpt>
      <trkpt lat="44.87612" lon="3.40482">
        <ele>1239.7</ele>
        <time>2022-06-09T11:02:59Z</time>
      </trkpt>
      <trkpt lat="44.87609" lon="3.40476">
        <ele>1240.6</ele>
        <time>2022-06-09T11:03:06Z</time>
      </trkpt>
      <trkpt lat="44.87605" lon="3.40472">
        <ele>1239.4</ele>
        <time>2022-06-09T11:03:12Z</time>
      </trkpt>
      <trkpt lat="44.87601" lon="3.40468">
        <ele>1239.8</ele>
        <time>2022-06-09T11:03:17Z</time>
      </trkpt>
      <trkpt lat="44.87597" lon="3.40463">
        <ele>1239.9</ele>
        <time>2022-06-09T11:03:22Z</time>
      </trkpt>
      <trkpt lat="44.87595" lon="3.40458">
        <ele>1240</ele>
        <time>2022-06-09T11:03:26Z</time>
      </trkpt>
      <trkpt lat="44.87591" lon="3.40451">
        <ele>1238.8</ele>
        <time>2022-06-09T11:03:30Z</time>
      </trkpt>
      <trkpt lat="44.87587" lon="3.40446">
        <ele>1237.1</ele>
        <time>2022-06-09T11:03:34Z</time>
      </trkpt>
      <trkpt lat="44.87584" lon="3.40441">
        <ele>1235.7</ele>
        <time>2022-06-09T11:03:39Z</time>
      </trkpt>
      <trkpt lat="44.8758" lon="3.40436">
        <ele>1234.7</ele>
        <time>2022-06-09T11:03:44Z</time>
      </trkpt>
      <trkpt lat="44.87577" lon="3.4043">
        <ele>1233.2</ele>
        <time>2022-06-09T11:03:49Z</time>
      </trkpt>
      <trkpt lat="44.87573" lon="3.40427">
        <ele>1231.9</ele>
        <time>2022-06-09T11:03:56Z</time>
      </trkpt>
      <trkpt lat="44.87568" lon="3.40427">
        <ele>1230.9</ele>
        <time>2022-06-09T11:04:06Z</time>
      </trkpt>
      <trkpt lat="44.87564" lon="3.40428">
        <ele>1227.7</ele>
        <time>2022-06-09T11:04:32Z</time>
      </trkpt>
      <trkpt lat="44.87559" lon="3.4043">
        <ele>1227.9</ele>
        <time>2022-06-09T11:04:37Z</time>
      </trkpt>
      <trkpt lat="44.87555" lon="3.40431">
        <ele>1227.6</ele>
        <time>2022-06-09T11:04:41Z</time>
      </trkpt>
      <trkpt lat="44.8755" lon="3.40432">
        <ele>1225.9</ele>
        <time>2022-06-09T11:04:48Z</time>
      </trkpt>
      <trkpt lat="44.87545" lon="3.40433">
        <ele>1224.5</ele>
        <time>2022-06-09T11:04:58Z</time>
      </trkpt>
      <trkpt lat="44.8754" lon="3.40434">
        <ele>1224.1</ele>
        <time>2022-06-09T11:05:07Z</time>
      </trkpt>
      <trkpt lat="44.87535" lon="3.40437">
        <ele>1223.5</ele>
        <time>2022-06-09T11:05:13Z</time>
      </trkpt>
      <trkpt lat="44.8753" lon="3.40438">
        <ele>1222.9</ele>
        <time>2022-06-09T11:05:17Z</time>
      </trkpt>
      <trkpt lat="44.87525" lon="3.4044">
        <ele>1222.9</ele>
        <time>2022-06-09T11:05:21Z</time>
      </trkpt>
      <trkpt lat="44.87521" lon="3.40442">
        <ele>1222.7</ele>
        <time>2022-06-09T11:05:25Z</time>
      </trkpt>
      <trkpt lat="44.87515" lon="3.40444">
        <ele>1222.6</ele>
        <time>2022-06-09T11:05:30Z</time>
      </trkpt>
      <trkpt lat="44.8751" lon="3.40447">
        <ele>1221.4</ele>
        <time>2022-06-09T11:05:35Z</time>
      </trkpt>
      <trkpt lat="44.87506" lon="3.40449">
        <ele>1220.4</ele>
        <time>2022-06-09T11:05:39Z</time>
      </trkpt>
      <trkpt lat="44.87502" lon="3.40452">
        <ele>1219.4</ele>
        <time>2022-06-09T11:05:43Z</time>
      </trkpt>
      <trkpt lat="44.87496" lon="3.40455">
        <ele>1218.3</ele>
        <time>2022-06-09T11:05:48Z</time>
      </trkpt>
      <trkpt lat="44.87492" lon="3.40457">
        <ele>1217.9</ele>
        <time>2022-06-09T11:05:52Z</time>
      </trkpt>
      <trkpt lat="44.87487" lon="3.40458">
        <ele>1217.3</ele>
        <time>2022-06-09T11:05:56Z</time>
      </trkpt>
      <trkpt lat="44.87482" lon="3.4046">
        <ele>1216.9</ele>
        <time>2022-06-09T11:06:00Z</time>
      </trkpt>
      <trkpt lat="44.87477" lon="3.40462">
        <ele>1216.7</ele>
        <time>2022-06-09T11:06:04Z</time>
      </trkpt>
      <trkpt lat="44.87473" lon="3.40463">
        <ele>1216.7</ele>
        <time>2022-06-09T11:06:08Z</time>
      </trkpt>
      <trkpt lat="44.87468" lon="3.40463">
        <ele>1216.4</ele>
        <time>2022-06-09T11:06:12Z</time>
      </trkpt>
      <trkpt lat="44.87463" lon="3.40463">
        <ele>1216.3</ele>
        <time>2022-06-09T11:06:16Z</time>
      </trkpt>
      <trkpt lat="44.87457" lon="3.40462">
        <ele>1216.1</ele>
        <time>2022-06-09T11:06:21Z</time>
      </trkpt>
      <trkpt lat="44.87452" lon="3.40461">
        <ele>1215.7</ele>
        <time>2022-06-09T11:06:25Z</time>
      </trkpt>
      <trkpt lat="44.87447" lon="3.40459">
        <ele>1215.3</ele>
        <time>2022-06-09T11:06:29Z</time>
      </trkpt>
      <trkpt lat="44.87443" lon="3.40455">
        <ele>1214.6</ele>
        <time>2022-06-09T11:06:33Z</time>
      </trkpt>
      <trkpt lat="44.8744" lon="3.40449">
        <ele>1214.2</ele>
        <time>2022-06-09T11:06:37Z</time>
      </trkpt>
      <trkpt lat="44.87437" lon="3.40444">
        <ele>1214.2</ele>
        <time>2022-06-09T11:06:41Z</time>
      </trkpt>
      <trkpt lat="44.87434" lon="3.40439">
        <ele>1214.4</ele>
        <time>2022-06-09T11:06:45Z</time>
      </trkpt>
      <trkpt lat="44.87432" lon="3.40433">
        <ele>1215.2</ele>
        <time>2022-06-09T11:06:49Z</time>
      </trkpt>
      <trkpt lat="44.87429" lon="3.40427">
        <ele>1215.3</ele>
        <time>2022-06-09T11:06:53Z</time>
      </trkpt>
      <trkpt lat="44.87426" lon="3.40421">
        <ele>1215.7</ele>
        <time>2022-06-09T11:06:57Z</time>
      </trkpt>
      <trkpt lat="44.87424" lon="3.40415">
        <ele>1215</ele>
        <time>2022-06-09T11:07:02Z</time>
      </trkpt>
      <trkpt lat="44.87421" lon="3.4041">
        <ele>1214.8</ele>
        <time>2022-06-09T11:07:07Z</time>
      </trkpt>
      <trkpt lat="44.87418" lon="3.40404">
        <ele>1215.1</ele>
        <time>2022-06-09T11:07:11Z</time>
      </trkpt>
      <trkpt lat="44.87416" lon="3.40397">
        <ele>1214.1</ele>
        <time>2022-06-09T11:07:15Z</time>
      </trkpt>
      <trkpt lat="44.87415" lon="3.4039">
        <ele>1212.6</ele>
        <time>2022-06-09T11:07:26Z</time>
      </trkpt>
      <trkpt lat="44.87411" lon="3.40384">
        <ele>1212.9</ele>
        <time>2022-06-09T11:07:31Z</time>
      </trkpt>
      <trkpt lat="44.87408" lon="3.40379">
        <ele>1213</ele>
        <time>2022-06-09T11:07:35Z</time>
      </trkpt>
      <trkpt lat="44.87406" lon="3.40373">
        <ele>1213.6</ele>
        <time>2022-06-09T11:07:39Z</time>
      </trkpt>
      <trkpt lat="44.87403" lon="3.40366">
        <ele>1214.4</ele>
        <time>2022-06-09T11:07:44Z</time>
      </trkpt>
      <trkpt lat="44.87399" lon="3.40361">
        <ele>1214.6</ele>
        <time>2022-06-09T11:07:48Z</time>
      </trkpt>
      <trkpt lat="44.87396" lon="3.40357">
        <ele>1214.7</ele>
        <time>2022-06-09T11:07:52Z</time>
      </trkpt>
      <trkpt lat="44.87392" lon="3.40353">
        <ele>1214.4</ele>
        <time>2022-06-09T11:07:56Z</time>
      </trkpt>
      <trkpt lat="44.87387" lon="3.40349">
        <ele>1213.6</ele>
        <time>2022-06-09T11:08:00Z</time>
      </trkpt>
      <trkpt lat="44.87383" lon="3.40345">
        <ele>1213.1</ele>
        <time>2022-06-09T11:08:04Z</time>
      </trkpt>
      <trkpt lat="44.8738" lon="3.40341">
        <ele>1212.5</ele>
        <time>2022-06-09T11:08:08Z</time>
      </trkpt>
      <trkpt lat="44.87376" lon="3.40337">
        <ele>1211.3</ele>
        <time>2022-06-09T11:08:24Z</time>
      </trkpt>
      <trkpt lat="44.87373" lon="3.40332">
        <ele>1210.7</ele>
        <time>2022-06-09T11:08:28Z</time>
      </trkpt>
      <trkpt lat="44.87369" lon="3.40327">
        <ele>1210.4</ele>
        <time>2022-06-09T11:08:32Z</time>
      </trkpt>
      <trkpt lat="44.87365" lon="3.40324">
        <ele>1209.8</ele>
        <time>2022-06-09T11:08:36Z</time>
      </trkpt>
      <trkpt lat="44.87361" lon="3.40319">
        <ele>1209.3</ele>
        <time>2022-06-09T11:08:40Z</time>
      </trkpt>
      <trkpt lat="44.87358" lon="3.40315">
        <ele>1208.8</ele>
        <time>2022-06-09T11:08:44Z</time>
      </trkpt>
      <trkpt lat="44.87354" lon="3.4031">
        <ele>1208.5</ele>
        <time>2022-06-09T11:08:48Z</time>
      </trkpt>
      <trkpt lat="44.8735" lon="3.40305">
        <ele>1208.3</ele>
        <time>2022-06-09T11:08:53Z</time>
      </trkpt>
      <trkpt lat="44.87348" lon="3.403">
        <ele>1207.7</ele>
        <time>2022-06-09T11:08:57Z</time>
      </trkpt>
      <trkpt lat="44.87345" lon="3.40294">
        <ele>1207.8</ele>
        <time>2022-06-09T11:09:01Z</time>
      </trkpt>
      <trkpt lat="44.87341" lon="3.40289">
        <ele>1207.8</ele>
        <time>2022-06-09T11:09:06Z</time>
      </trkpt>
      <trkpt lat="44.87338" lon="3.40284">
        <ele>1208.3</ele>
        <time>2022-06-09T11:09:11Z</time>
      </trkpt>
      <trkpt lat="44.87334" lon="3.4028">
        <ele>1208.5</ele>
        <time>2022-06-09T11:09:17Z</time>
      </trkpt>
      <trkpt lat="44.8733" lon="3.40276">
        <ele>1208.6</ele>
        <time>2022-06-09T11:09:22Z</time>
      </trkpt>
      <trkpt lat="44.87327" lon="3.40271">
        <ele>1209</ele>
        <time>2022-06-09T11:09:26Z</time>
      </trkpt>
      <trkpt lat="44.87324" lon="3.40266">
        <ele>1208.6</ele>
        <time>2022-06-09T11:09:30Z</time>
      </trkpt>
      <trkpt lat="44.87321" lon="3.4026">
        <ele>1208.1</ele>
        <time>2022-06-09T11:09:35Z</time>
      </trkpt>
      <trkpt lat="44.87318" lon="3.40255">
        <ele>1207.2</ele>
        <time>2022-06-09T11:09:40Z</time>
      </trkpt>
      <trkpt lat="44.87316" lon="3.40249">
        <ele>1206.1</ele>
        <time>2022-06-09T11:09:45Z</time>
      </trkpt>
      <trkpt lat="44.87313" lon="3.40244">
        <ele>1205</ele>
        <time>2022-06-09T11:09:53Z</time>
      </trkpt>
      <trkpt lat="44.8731" lon="3.40237">
        <ele>1205.2</ele>
        <time>2022-06-09T11:09:59Z</time>
      </trkpt>
      <trkpt lat="44.87309" lon="3.4023">
        <ele>1203.2</ele>
        <time>2022-06-09T11:10:14Z</time>
      </trkpt>
      <trkpt lat="44.87309" lon="3.40223">
        <ele>1200.4</ele>
        <time>2022-06-09T11:10:21Z</time>
      </trkpt>
      <trkpt lat="44.8731" lon="3.40216">
        <ele>1197.7</ele>
        <time>2022-06-09T11:10:28Z</time>
      </trkpt>
      <trkpt lat="44.87311" lon="3.40209">
        <ele>1196.8</ele>
        <time>2022-06-09T11:10:34Z</time>
      </trkpt>
      <trkpt lat="44.87313" lon="3.40204">
        <ele>1197.8</ele>
        <time>2022-06-09T11:10:52Z</time>
      </trkpt>
      <trkpt lat="44.87314" lon="3.40197">
        <ele>1198.2</ele>
        <time>2022-06-09T11:10:58Z</time>
      </trkpt>
      <trkpt lat="44.87312" lon="3.40192">
        <ele>1198.7</ele>
        <time>2022-06-09T11:11:03Z</time>
      </trkpt>
      <trkpt lat="44.87307" lon="3.40191">
        <ele>1198.2</ele>
        <time>2022-06-09T11:11:08Z</time>
      </trkpt>
      <trkpt lat="44.87303" lon="3.40195">
        <ele>1195.9</ele>
        <time>2022-06-09T11:11:21Z</time>
      </trkpt>
      <trkpt lat="44.87299" lon="3.40196">
        <ele>1195.5</ele>
        <time>2022-06-09T11:11:26Z</time>
      </trkpt>
      <trkpt lat="44.87293" lon="3.40199">
        <ele>1194.7</ele>
        <time>2022-06-09T11:11:35Z</time>
      </trkpt>
      <trkpt lat="44.87289" lon="3.40202">
        <ele>1194.5</ele>
        <time>2022-06-09T11:11:39Z</time>
      </trkpt>
      <trkpt lat="44.87284" lon="3.40204">
        <ele>1194.7</ele>
        <time>2022-06-09T11:11:43Z</time>
      </trkpt>
      <trkpt lat="44.87279" lon="3.40206">
        <ele>1194.7</ele>
        <time>2022-06-09T11:11:47Z</time>
      </trkpt>
      <trkpt lat="44.87275" lon="3.40209">
        <ele>1194.6</ele>
        <time>2022-06-09T11:11:51Z</time>
      </trkpt>
      <trkpt lat="44.8727" lon="3.40212">
        <ele>1193.9</ele>
        <time>2022-06-09T11:11:55Z</time>
      </trkpt>
      <trkpt lat="44.87266" lon="3.40215">
        <ele>1193.7</ele>
        <time>2022-06-09T11:11:59Z</time>
      </trkpt>
      <trkpt lat="44.87261" lon="3.40217">
        <ele>1193.2</ele>
        <time>2022-06-09T11:12:04Z</time>
      </trkpt>
      <trkpt lat="44.87257" lon="3.40221">
        <ele>1192.9</ele>
        <time>2022-06-09T11:12:10Z</time>
      </trkpt>
      <trkpt lat="44.87252" lon="3.40223">
        <ele>1192.2</ele>
        <time>2022-06-09T11:12:15Z</time>
      </trkpt>
      <trkpt lat="44.87247" lon="3.40226">
        <ele>1191.5</ele>
        <time>2022-06-09T11:12:20Z</time>
      </trkpt>
      <trkpt lat="44.87243" lon="3.40229">
        <ele>1190.4</ele>
        <time>2022-06-09T11:12:25Z</time>
      </trkpt>
      <trkpt lat="44.8724" lon="3.40233">
        <ele>1189.3</ele>
        <time>2022-06-09T11:12:30Z</time>
      </trkpt>
      <trkpt lat="44.87236" lon="3.40239">
        <ele>1188.4</ele>
        <time>2022-06-09T11:12:37Z</time>
      </trkpt>
      <trkpt lat="44.87233" lon="3.40245">
        <ele>1188.5</ele>
        <time>2022-06-09T11:12:43Z</time>
      </trkpt>
      <trkpt lat="44.87231" lon="3.40251">
        <ele>1188.4</ele>
        <time>2022-06-09T11:12:48Z</time>
      </trkpt>
      <trkpt lat="44.87228" lon="3.40256">
        <ele>1188.8</ele>
        <time>2022-06-09T11:12:54Z</time>
      </trkpt>
      <trkpt lat="44.87224" lon="3.40261">
        <ele>1188.5</ele>
        <time>2022-06-09T11:13:00Z</time>
      </trkpt>
      <trkpt lat="44.8722" lon="3.40265">
        <ele>1188</ele>
        <time>2022-06-09T11:13:05Z</time>
      </trkpt>
      <trkpt lat="44.87217" lon="3.4027">
        <ele>1187.4</ele>
        <time>2022-06-09T11:13:11Z</time>
      </trkpt>
      <trkpt lat="44.87213" lon="3.40274">
        <ele>1187.8</ele>
        <time>2022-06-09T11:13:17Z</time>
      </trkpt>
      <trkpt lat="44.8721" lon="3.40279">
        <ele>1188.8</ele>
        <time>2022-06-09T11:13:22Z</time>
      </trkpt>
      <trkpt lat="44.87207" lon="3.40284">
        <ele>1189.2</ele>
        <time>2022-06-09T11:13:28Z</time>
      </trkpt>
      <trkpt lat="44.87204" lon="3.40289">
        <ele>1188.7</ele>
        <time>2022-06-09T11:13:35Z</time>
      </trkpt>
      <trkpt lat="44.872" lon="3.40294">
        <ele>1187.9</ele>
        <time>2022-06-09T11:13:41Z</time>
      </trkpt>
      <trkpt lat="44.87196" lon="3.40298">
        <ele>1187.7</ele>
        <time>2022-06-09T11:13:46Z</time>
      </trkpt>
      <trkpt lat="44.87193" lon="3.40302">
        <ele>1186.9</ele>
        <time>2022-06-09T11:13:51Z</time>
      </trkpt>
      <trkpt lat="44.87189" lon="3.40306">
        <ele>1186.3</ele>
        <time>2022-06-09T11:13:57Z</time>
      </trkpt>
      <trkpt lat="44.87187" lon="3.40313">
        <ele>1185.7</ele>
        <time>2022-06-09T11:14:10Z</time>
      </trkpt>
      <trkpt lat="44.87183" lon="3.40317">
        <ele>1186</ele>
        <time>2022-06-09T11:14:14Z</time>
      </trkpt>
      <trkpt lat="44.87178" lon="3.4032">
        <ele>1186</ele>
        <time>2022-06-09T11:14:18Z</time>
      </trkpt>
      <trkpt lat="44.87173" lon="3.40323">
        <ele>1185.5</ele>
        <time>2022-06-09T11:14:23Z</time>
      </trkpt>
      <trkpt lat="44.87169" lon="3.40322">
        <ele>1184.9</ele>
        <time>2022-06-09T11:14:29Z</time>
      </trkpt>
      <trkpt lat="44.87166" lon="3.40316">
        <ele>1184.7</ele>
        <time>2022-06-09T11:14:33Z</time>
      </trkpt>
      <trkpt lat="44.87161" lon="3.40314">
        <ele>1184</ele>
        <time>2022-06-09T11:14:40Z</time>
      </trkpt>
      <trkpt lat="44.87156" lon="3.40312">
        <ele>1183.8</ele>
        <time>2022-06-09T11:14:45Z</time>
      </trkpt>
      <trkpt lat="44.87161" lon="3.40312">
        <ele>1183.4</ele>
        <time>2022-06-09T11:14:59Z</time>
      </trkpt>
      <trkpt lat="44.87165" lon="3.40317">
        <ele>1182.1</ele>
        <time>2022-06-09T11:15:05Z</time>
      </trkpt>
      <trkpt lat="44.87163" lon="3.40324">
        <ele>1180.9</ele>
        <time>2022-06-09T11:15:14Z</time>
      </trkpt>
      <trkpt lat="44.8716" lon="3.40328">
        <ele>1180.3</ele>
        <time>2022-06-09T11:15:19Z</time>
      </trkpt>
      <trkpt lat="44.87164" lon="3.40325">
        <ele>1183.9</ele>
        <time>2022-06-09T11:15:38Z</time>
      </trkpt>
      <trkpt lat="44.87168" lon="3.40321">
        <ele>1185.7</ele>
        <time>2022-06-09T11:15:44Z</time>
      </trkpt>
      <trkpt lat="44.8717" lon="3.40327">
        <ele>1186.3</ele>
        <time>2022-06-09T11:15:53Z</time>
      </trkpt>
      <trkpt lat="44.8717" lon="3.40334">
        <ele>1186.4</ele>
        <time>2022-06-09T11:16:00Z</time>
      </trkpt>
      <trkpt lat="44.8717" lon="3.40341">
        <ele>1186.5</ele>
        <time>2022-06-09T11:16:09Z</time>
      </trkpt>
      <trkpt lat="44.87168" lon="3.40348">
        <ele>1186.2</ele>
        <time>2022-06-09T11:16:14Z</time>
      </trkpt>
      <trkpt lat="44.87169" lon="3.40354">
        <ele>1185</ele>
        <time>2022-06-09T11:16:20Z</time>
      </trkpt>
      <trkpt lat="44.87174" lon="3.40353">
        <ele>1183.9</ele>
        <time>2022-06-09T11:16:28Z</time>
      </trkpt>
      <trkpt lat="44.87176" lon="3.40346">
        <ele>1183.4</ele>
        <time>2022-06-09T11:16:36Z</time>
      </trkpt>
      <trkpt lat="44.87175" lon="3.40353">
        <ele>1184.7</ele>
        <time>2022-06-09T11:16:56Z</time>
      </trkpt>
      <trkpt lat="44.87176" lon="3.4036">
        <ele>1184.7</ele>
        <time>2022-06-09T11:17:02Z</time>
      </trkpt>
      <trkpt lat="44.87179" lon="3.40365">
        <ele>1184.6</ele>
        <time>2022-06-09T11:17:06Z</time>
      </trkpt>
      <trkpt lat="44.87184" lon="3.4037">
        <ele>1184.6</ele>
        <time>2022-06-09T11:17:11Z</time>
      </trkpt>
      <trkpt lat="44.87186" lon="3.40376">
        <ele>1182.7</ele>
        <time>2022-06-09T11:17:16Z</time>
      </trkpt>
      <trkpt lat="44.87191" lon="3.40379">
        <ele>1182.4</ele>
        <time>2022-06-09T11:17:21Z</time>
      </trkpt>
      <trkpt lat="44.87196" lon="3.40379">
        <ele>1183.1</ele>
        <time>2022-06-09T11:17:25Z</time>
      </trkpt>
      <trkpt lat="44.87201" lon="3.40379">
        <ele>1183.9</ele>
        <time>2022-06-09T11:17:30Z</time>
      </trkpt>
      <trkpt lat="44.87206" lon="3.4038">
        <ele>1183.6</ele>
        <time>2022-06-09T11:17:35Z</time>
      </trkpt>
      <trkpt lat="44.87211" lon="3.40383">
        <ele>1182.4</ele>
        <time>2022-06-09T11:17:42Z</time>
      </trkpt>
      <trkpt lat="44.87216" lon="3.40383">
        <ele>1182.1</ele>
        <time>2022-06-09T11:17:50Z</time>
      </trkpt>
      <trkpt lat="44.87218" lon="3.40377">
        <ele>1182.1</ele>
        <time>2022-06-09T11:17:55Z</time>
      </trkpt>
      <trkpt lat="44.87221" lon="3.40371">
        <ele>1181.7</ele>
        <time>2022-06-09T11:18:00Z</time>
      </trkpt>
      <trkpt lat="44.87218" lon="3.40377">
        <ele>1180.2</ele>
        <time>2022-06-09T11:18:11Z</time>
      </trkpt>
      <trkpt lat="44.87216" lon="3.40384">
        <ele>1179.9</ele>
        <time>2022-06-09T11:18:16Z</time>
      </trkpt>
      <trkpt lat="44.87213" lon="3.40391">
        <ele>1179.6</ele>
        <time>2022-06-09T11:18:21Z</time>
      </trkpt>
      <trkpt lat="44.87209" lon="3.40396">
        <ele>1179.2</ele>
        <time>2022-06-09T11:18:25Z</time>
      </trkpt>
      <trkpt lat="44.87207" lon="3.40402">
        <ele>1179.3</ele>
        <time>2022-06-09T11:18:29Z</time>
      </trkpt>
      <trkpt lat="44.87204" lon="3.40408">
        <ele>1179.8</ele>
        <time>2022-06-09T11:18:33Z</time>
      </trkpt>
      <trkpt lat="44.87203" lon="3.40415">
        <ele>1180.2</ele>
        <time>2022-06-09T11:18:39Z</time>
      </trkpt>
      <trkpt lat="44.872" lon="3.4042">
        <ele>1180</ele>
        <time>2022-06-09T11:18:46Z</time>
      </trkpt>
      <trkpt lat="44.87194" lon="3.4042">
        <ele>1180.6</ele>
        <time>2022-06-09T11:18:52Z</time>
      </trkpt>
      <trkpt lat="44.8719" lon="3.40419">
        <ele>1181</ele>
        <time>2022-06-09T11:18:56Z</time>
      </trkpt>
      <trkpt lat="44.87185" lon="3.40418">
        <ele>1181.1</ele>
        <time>2022-06-09T11:19:01Z</time>
      </trkpt>
      <trkpt lat="44.8718" lon="3.40417">
        <ele>1180.9</ele>
        <time>2022-06-09T11:19:05Z</time>
      </trkpt>
      <trkpt lat="44.87176" lon="3.40416">
        <ele>1179.3</ele>
        <time>2022-06-09T11:19:12Z</time>
      </trkpt>
      <trkpt lat="44.8717" lon="3.40415">
        <ele>1176.5</ele>
        <time>2022-06-09T11:19:20Z</time>
      </trkpt>
      <trkpt lat="44.87168" lon="3.40408">
        <ele>1176.4</ele>
        <time>2022-06-09T11:19:34Z</time>
      </trkpt>
      <trkpt lat="44.87164" lon="3.40402">
        <ele>1177</ele>
        <time>2022-06-09T11:19:38Z</time>
      </trkpt>
      <trkpt lat="44.87161" lon="3.40397">
        <ele>1177.5</ele>
        <time>2022-06-09T11:19:42Z</time>
      </trkpt>
      <trkpt lat="44.87157" lon="3.40393">
        <ele>1178.1</ele>
        <time>2022-06-09T11:19:46Z</time>
      </trkpt>
      <trkpt lat="44.87153" lon="3.40388">
        <ele>1179.3</ele>
        <time>2022-06-09T11:19:51Z</time>
      </trkpt>
      <trkpt lat="44.87151" lon="3.40381">
        <ele>1178.5</ele>
        <time>2022-06-09T11:19:57Z</time>
      </trkpt>
      <trkpt lat="44.87149" lon="3.40375">
        <ele>1177.8</ele>
        <time>2022-06-09T11:20:16Z</time>
      </trkpt>
      <trkpt lat="44.87145" lon="3.40373">
        <ele>1178.2</ele>
        <time>2022-06-09T11:20:22Z</time>
      </trkpt>
      <trkpt lat="44.87147" lon="3.40367">
        <ele>1173.5</ele>
        <time>2022-06-09T11:26:31Z</time>
      </trkpt>
      <trkpt lat="44.87148" lon="3.40373">
        <ele>1182.7</ele>
        <time>2022-06-09T11:57:36Z</time>
      </trkpt>
      <trkpt lat="44.87149" lon="3.4038">
        <ele>1182.3</ele>
        <time>2022-06-09T11:57:45Z</time>
      </trkpt>
      <trkpt lat="44.87147" lon="3.40373">
        <ele>1178.5</ele>
        <time>2022-06-09T11:59:15Z</time>
      </trkpt>
      <trkpt lat="44.87145" lon="3.40368">
        <ele>1179.6</ele>
        <time>2022-06-09T11:59:22Z</time>
      </trkpt>
      <trkpt lat="44.87143" lon="3.40361">
        <ele>1180.3</ele>
        <time>2022-06-09T11:59:29Z</time>
      </trkpt>
      <trkpt lat="44.87142" lon="3.40354">
        <ele>1180.6</ele>
        <time>2022-06-09T11:59:36Z</time>
      </trkpt>
      <trkpt lat="44.87142" lon="3.40347">
        <ele>1180.3</ele>
        <time>2022-06-09T11:59:45Z</time>
      </trkpt>
      <trkpt lat="44.87145" lon="3.40343">
        <ele>1180.8</ele>
        <time>2022-06-09T11:59:52Z</time>
      </trkpt>
      <trkpt lat="44.8715" lon="3.40343">
        <ele>1180.8</ele>
        <time>2022-06-09T12:00:01Z</time>
      </trkpt>
      <trkpt lat="44.87153" lon="3.40348">
        <ele>1181.6</ele>
        <time>2022-06-09T12:00:07Z</time>
      </trkpt>
      <trkpt lat="44.87158" lon="3.40351">
        <ele>1182.2</ele>
        <time>2022-06-09T12:00:14Z</time>
      </trkpt>
      <trkpt lat="44.87163" lon="3.4035">
        <ele>1181.5</ele>
        <time>2022-06-09T12:00:22Z</time>
      </trkpt>
      <trkpt lat="44.87168" lon="3.40346">
        <ele>1182.3</ele>
        <time>2022-06-09T12:00:28Z</time>
      </trkpt>
      <trkpt lat="44.8717" lon="3.40341">
        <ele>1183.1</ele>
        <time>2022-06-09T12:00:33Z</time>
      </trkpt>
      <trkpt lat="44.87174" lon="3.40342">
        <ele>1185.1</ele>
        <time>2022-06-09T12:00:58Z</time>
      </trkpt>
      <trkpt lat="44.87173" lon="3.40336">
        <ele>1185.5</ele>
        <time>2022-06-09T12:01:23Z</time>
      </trkpt>
      <trkpt lat="44.87174" lon="3.40329">
        <ele>1186.2</ele>
        <time>2022-06-09T12:01:27Z</time>
      </trkpt>
      <trkpt lat="44.87175" lon="3.40323">
        <ele>1186.6</ele>
        <time>2022-06-09T12:01:31Z</time>
      </trkpt>
      <trkpt lat="44.87179" lon="3.40319">
        <ele>1187.1</ele>
        <time>2022-06-09T12:01:36Z</time>
      </trkpt>
      <trkpt lat="44.87183" lon="3.40316">
        <ele>1187.1</ele>
        <time>2022-06-09T12:01:43Z</time>
      </trkpt>
      <trkpt lat="44.87186" lon="3.40311">
        <ele>1187.8</ele>
        <time>2022-06-09T12:02:03Z</time>
      </trkpt>
      <trkpt lat="44.87189" lon="3.40304">
        <ele>1188.1</ele>
        <time>2022-06-09T12:02:12Z</time>
      </trkpt>
      <trkpt lat="44.87192" lon="3.403">
        <ele>1188.2</ele>
        <time>2022-06-09T12:02:17Z</time>
      </trkpt>
      <trkpt lat="44.87196" lon="3.40296">
        <ele>1188.9</ele>
        <time>2022-06-09T12:02:23Z</time>
      </trkpt>
      <trkpt lat="44.87201" lon="3.40292">
        <ele>1188.7</ele>
        <time>2022-06-09T12:02:29Z</time>
      </trkpt>
      <trkpt lat="44.87205" lon="3.40288">
        <ele>1188.4</ele>
        <time>2022-06-09T12:02:34Z</time>
      </trkpt>
      <trkpt lat="44.87209" lon="3.40284">
        <ele>1188.9</ele>
        <time>2022-06-09T12:02:39Z</time>
      </trkpt>
      <trkpt lat="44.87212" lon="3.40278">
        <ele>1189.2</ele>
        <time>2022-06-09T12:02:44Z</time>
      </trkpt>
      <trkpt lat="44.87215" lon="3.40273">
        <ele>1190.4</ele>
        <time>2022-06-09T12:02:49Z</time>
      </trkpt>
      <trkpt lat="44.87219" lon="3.40268">
        <ele>1191.5</ele>
        <time>2022-06-09T12:02:54Z</time>
      </trkpt>
      <trkpt lat="44.87223" lon="3.40264">
        <ele>1191.4</ele>
        <time>2022-06-09T12:02:59Z</time>
      </trkpt>
      <trkpt lat="44.87227" lon="3.40258">
        <ele>1189.9</ele>
        <time>2022-06-09T12:03:05Z</time>
      </trkpt>
      <trkpt lat="44.87231" lon="3.40254">
        <ele>1188.9</ele>
        <time>2022-06-09T12:03:10Z</time>
      </trkpt>
      <trkpt lat="44.87235" lon="3.40248">
        <ele>1188.5</ele>
        <time>2022-06-09T12:03:15Z</time>
      </trkpt>
      <trkpt lat="44.87237" lon="3.40243">
        <ele>1189.4</ele>
        <time>2022-06-09T12:03:20Z</time>
      </trkpt>
      <trkpt lat="44.87241" lon="3.40238">
        <ele>1190</ele>
        <time>2022-06-09T12:03:25Z</time>
      </trkpt>
      <trkpt lat="44.87245" lon="3.40233">
        <ele>1189.7</ele>
        <time>2022-06-09T12:03:30Z</time>
      </trkpt>
      <trkpt lat="44.87248" lon="3.40228">
        <ele>1190.5</ele>
        <time>2022-06-09T12:03:36Z</time>
      </trkpt>
      <trkpt lat="44.87252" lon="3.40224">
        <ele>1191.7</ele>
        <time>2022-06-09T12:03:41Z</time>
      </trkpt>
      <trkpt lat="44.87257" lon="3.4022">
        <ele>1192.7</ele>
        <time>2022-06-09T12:03:46Z</time>
      </trkpt>
      <trkpt lat="44.87261" lon="3.40217">
        <ele>1193</ele>
        <time>2022-06-09T12:03:52Z</time>
      </trkpt>
      <trkpt lat="44.87266" lon="3.40215">
        <ele>1193.3</ele>
        <time>2022-06-09T12:03:58Z</time>
      </trkpt>
      <trkpt lat="44.8727" lon="3.40212">
        <ele>1192.8</ele>
        <time>2022-06-09T12:04:04Z</time>
      </trkpt>
      <trkpt lat="44.87274" lon="3.40209">
        <ele>1192.9</ele>
        <time>2022-06-09T12:04:09Z</time>
      </trkpt>
      <trkpt lat="44.87279" lon="3.40206">
        <ele>1193.3</ele>
        <time>2022-06-09T12:04:14Z</time>
      </trkpt>
      <trkpt lat="44.87284" lon="3.40203">
        <ele>1193.6</ele>
        <time>2022-06-09T12:04:19Z</time>
      </trkpt>
      <trkpt lat="44.87288" lon="3.40202">
        <ele>1193.8</ele>
        <time>2022-06-09T12:04:23Z</time>
      </trkpt>
      <trkpt lat="44.87293" lon="3.40199">
        <ele>1194.6</ele>
        <time>2022-06-09T12:04:28Z</time>
      </trkpt>
      <trkpt lat="44.87298" lon="3.40196">
        <ele>1195.7</ele>
        <time>2022-06-09T12:04:33Z</time>
      </trkpt>
      <trkpt lat="44.87302" lon="3.40194">
        <ele>1196.5</ele>
        <time>2022-06-09T12:04:38Z</time>
      </trkpt>
      <trkpt lat="44.87307" lon="3.40193">
        <ele>1197.4</ele>
        <time>2022-06-09T12:04:44Z</time>
      </trkpt>
      <trkpt lat="44.87312" lon="3.40192">
        <ele>1197.3</ele>
        <time>2022-06-09T12:04:50Z</time>
      </trkpt>
      <trkpt lat="44.87316" lon="3.40188">
        <ele>1198.4</ele>
        <time>2022-06-09T12:05:04Z</time>
      </trkpt>
      <trkpt lat="44.87315" lon="3.40181">
        <ele>1199.8</ele>
        <time>2022-06-09T12:05:11Z</time>
      </trkpt>
      <trkpt lat="44.87315" lon="3.40174">
        <ele>1201.2</ele>
        <time>2022-06-09T12:05:19Z</time>
      </trkpt>
      <trkpt lat="44.87311" lon="3.40169">
        <ele>1201.4</ele>
        <time>2022-06-09T12:05:28Z</time>
      </trkpt>
      <trkpt lat="44.87308" lon="3.40164">
        <ele>1201.8</ele>
        <time>2022-06-09T12:05:35Z</time>
      </trkpt>
      <trkpt lat="44.87305" lon="3.40158">
        <ele>1202.2</ele>
        <time>2022-06-09T12:05:44Z</time>
      </trkpt>
      <trkpt lat="44.87304" lon="3.40151">
        <ele>1202.5</ele>
        <time>2022-06-09T12:05:55Z</time>
      </trkpt>
      <trkpt lat="44.87303" lon="3.40145">
        <ele>1203.1</ele>
        <time>2022-06-09T12:06:03Z</time>
      </trkpt>
      <trkpt lat="44.87301" lon="3.40138">
        <ele>1203.8</ele>
        <time>2022-06-09T12:06:10Z</time>
      </trkpt>
      <trkpt lat="44.87298" lon="3.40132">
        <ele>1204</ele>
        <time>2022-06-09T12:06:17Z</time>
      </trkpt>
      <trkpt lat="44.87296" lon="3.40126">
        <ele>1204.6</ele>
        <time>2022-06-09T12:06:23Z</time>
      </trkpt>
      <trkpt lat="44.87294" lon="3.4012">
        <ele>1205.1</ele>
        <time>2022-06-09T12:06:29Z</time>
      </trkpt>
      <trkpt lat="44.87292" lon="3.40114">
        <ele>1204.8</ele>
        <time>2022-06-09T12:06:36Z</time>
      </trkpt>
      <trkpt lat="44.87289" lon="3.40109">
        <ele>1204.4</ele>
        <time>2022-06-09T12:06:43Z</time>
      </trkpt>
      <trkpt lat="44.87284" lon="3.40105">
        <ele>1205.9</ele>
        <time>2022-06-09T12:06:57Z</time>
      </trkpt>
      <trkpt lat="44.87281" lon="3.401">
        <ele>1206.4</ele>
        <time>2022-06-09T12:07:03Z</time>
      </trkpt>
      <trkpt lat="44.87277" lon="3.40096">
        <ele>1206.4</ele>
        <time>2022-06-09T12:07:09Z</time>
      </trkpt>
      <trkpt lat="44.87273" lon="3.40093">
        <ele>1206.8</ele>
        <time>2022-06-09T12:07:15Z</time>
      </trkpt>
      <trkpt lat="44.87269" lon="3.40089">
        <ele>1206.6</ele>
        <time>2022-06-09T12:07:28Z</time>
      </trkpt>
      <trkpt lat="44.87264" lon="3.40087">
        <ele>1206.5</ele>
        <time>2022-06-09T12:07:33Z</time>
      </trkpt>
      <trkpt lat="44.8726" lon="3.40083">
        <ele>1205.9</ele>
        <time>2022-06-09T12:07:47Z</time>
      </trkpt>
      <trkpt lat="44.87255" lon="3.40081">
        <ele>1206.5</ele>
        <time>2022-06-09T12:07:52Z</time>
      </trkpt>
      <trkpt lat="44.87251" lon="3.40078">
        <ele>1207.1</ele>
        <time>2022-06-09T12:07:57Z</time>
      </trkpt>
      <trkpt lat="44.87246" lon="3.40074">
        <ele>1207.6</ele>
        <time>2022-06-09T12:08:02Z</time>
      </trkpt>
      <trkpt lat="44.87242" lon="3.40071">
        <ele>1207.9</ele>
        <time>2022-06-09T12:08:07Z</time>
      </trkpt>
      <trkpt lat="44.87237" lon="3.40068">
        <ele>1208.9</ele>
        <time>2022-06-09T12:08:13Z</time>
      </trkpt>
      <trkpt lat="44.87233" lon="3.40064">
        <ele>1210.3</ele>
        <time>2022-06-09T12:08:26Z</time>
      </trkpt>
      <trkpt lat="44.87228" lon="3.4006">
        <ele>1211</ele>
        <time>2022-06-09T12:08:31Z</time>
      </trkpt>
      <trkpt lat="44.87223" lon="3.40058">
        <ele>1212.1</ele>
        <time>2022-06-09T12:08:35Z</time>
      </trkpt>
      <trkpt lat="44.87219" lon="3.40054">
        <ele>1212.3</ele>
        <time>2022-06-09T12:08:40Z</time>
      </trkpt>
      <trkpt lat="44.87214" lon="3.40051">
        <ele>1212.8</ele>
        <time>2022-06-09T12:08:45Z</time>
      </trkpt>
      <trkpt lat="44.8721" lon="3.40048">
        <ele>1212.2</ele>
        <time>2022-06-09T12:08:50Z</time>
      </trkpt>
      <trkpt lat="44.87206" lon="3.40045">
        <ele>1212.5</ele>
        <time>2022-06-09T12:08:54Z</time>
      </trkpt>
      <trkpt lat="44.87202" lon="3.4004">
        <ele>1212.7</ele>
        <time>2022-06-09T12:08:59Z</time>
      </trkpt>
      <trkpt lat="44.87199" lon="3.40035">
        <ele>1212.1</ele>
        <time>2022-06-09T12:09:05Z</time>
      </trkpt>
      <trkpt lat="44.87195" lon="3.4003">
        <ele>1213.2</ele>
        <time>2022-06-09T12:09:20Z</time>
      </trkpt>
      <trkpt lat="44.87191" lon="3.40025">
        <ele>1213</ele>
        <time>2022-06-09T12:09:25Z</time>
      </trkpt>
      <trkpt lat="44.87188" lon="3.40021">
        <ele>1213</ele>
        <time>2022-06-09T12:09:31Z</time>
      </trkpt>
      <trkpt lat="44.87184" lon="3.40016">
        <ele>1213.1</ele>
        <time>2022-06-09T12:09:37Z</time>
      </trkpt>
      <trkpt lat="44.8718" lon="3.40011">
        <ele>1213.9</ele>
        <time>2022-06-09T12:09:42Z</time>
      </trkpt>
      <trkpt lat="44.87176" lon="3.40007">
        <ele>1214.4</ele>
        <time>2022-06-09T12:09:47Z</time>
      </trkpt>
      <trkpt lat="44.87171" lon="3.40004">
        <ele>1214.3</ele>
        <time>2022-06-09T12:09:55Z</time>
      </trkpt>
      <trkpt lat="44.87168" lon="3.39999">
        <ele>1215.6</ele>
        <time>2022-06-09T12:10:01Z</time>
      </trkpt>
      <trkpt lat="44.87164" lon="3.39994">
        <ele>1215.6</ele>
        <time>2022-06-09T12:10:07Z</time>
      </trkpt>
      <trkpt lat="44.8716" lon="3.39991">
        <ele>1215.7</ele>
        <time>2022-06-09T12:10:12Z</time>
      </trkpt>
      <trkpt lat="44.87156" lon="3.39987">
        <ele>1215.7</ele>
        <time>2022-06-09T12:10:17Z</time>
      </trkpt>
      <trkpt lat="44.87152" lon="3.39983">
        <ele>1215.9</ele>
        <time>2022-06-09T12:10:22Z</time>
      </trkpt>
      <trkpt lat="44.87148" lon="3.3998">
        <ele>1217.2</ele>
        <time>2022-06-09T12:10:27Z</time>
      </trkpt>
      <trkpt lat="44.87145" lon="3.39975">
        <ele>1218.3</ele>
        <time>2022-06-09T12:10:34Z</time>
      </trkpt>
      <trkpt lat="44.87142" lon="3.39969">
        <ele>1218.9</ele>
        <time>2022-06-09T12:10:40Z</time>
      </trkpt>
      <trkpt lat="44.87141" lon="3.39962">
        <ele>1220</ele>
        <time>2022-06-09T12:10:46Z</time>
      </trkpt>
      <trkpt lat="44.8714" lon="3.39954">
        <ele>1221.5</ele>
        <time>2022-06-09T12:10:53Z</time>
      </trkpt>
      <trkpt lat="44.87141" lon="3.39948">
        <ele>1224.4</ele>
        <time>2022-06-09T12:11:00Z</time>
      </trkpt>
      <trkpt lat="44.87142" lon="3.39941">
        <ele>1226.8</ele>
        <time>2022-06-09T12:11:11Z</time>
      </trkpt>
      <trkpt lat="44.87146" lon="3.39937">
        <ele>1226.9</ele>
        <time>2022-06-09T12:11:20Z</time>
      </trkpt>
      <trkpt lat="44.8715" lon="3.39935">
        <ele>1227.2</ele>
        <time>2022-06-09T12:11:28Z</time>
      </trkpt>
      <trkpt lat="44.87155" lon="3.39935">
        <ele>1227.7</ele>
        <time>2022-06-09T12:11:37Z</time>
      </trkpt>
      <trkpt lat="44.87159" lon="3.39938">
        <ele>1228.3</ele>
        <time>2022-06-09T12:11:45Z</time>
      </trkpt>
      <trkpt lat="44.87164" lon="3.39938">
        <ele>1229.7</ele>
        <time>2022-06-09T12:12:13Z</time>
      </trkpt>
      <trkpt lat="44.87169" lon="3.39938">
        <ele>1231.2</ele>
        <time>2022-06-09T12:12:19Z</time>
      </trkpt>
      <trkpt lat="44.87173" lon="3.39933">
        <ele>1232.4</ele>
        <time>2022-06-09T12:12:26Z</time>
      </trkpt>
      <trkpt lat="44.87178" lon="3.39931">
        <ele>1232.7</ele>
        <time>2022-06-09T12:12:32Z</time>
      </trkpt>
      <trkpt lat="44.87182" lon="3.39929">
        <ele>1231.9</ele>
        <time>2022-06-09T12:12:39Z</time>
      </trkpt>
      <trkpt lat="44.87186" lon="3.39925">
        <ele>1231.8</ele>
        <time>2022-06-09T12:12:50Z</time>
      </trkpt>
      <trkpt lat="44.8719" lon="3.39921">
        <ele>1233</ele>
        <time>2022-06-09T12:12:56Z</time>
      </trkpt>
      <trkpt lat="44.87192" lon="3.39916">
        <ele>1234.3</ele>
        <time>2022-06-09T12:13:01Z</time>
      </trkpt>
      <trkpt lat="44.87196" lon="3.39911">
        <ele>1235.4</ele>
        <time>2022-06-09T12:13:09Z</time>
      </trkpt>
      <trkpt lat="44.87199" lon="3.39906">
        <ele>1235</ele>
        <time>2022-06-09T12:13:17Z</time>
      </trkpt>
      <trkpt lat="44.87202" lon="3.39901">
        <ele>1234.2</ele>
        <time>2022-06-09T12:13:29Z</time>
      </trkpt>
      <trkpt lat="44.87205" lon="3.39895">
        <ele>1232.2</ele>
        <time>2022-06-09T12:13:52Z</time>
      </trkpt>
      <trkpt lat="44.87207" lon="3.39889">
        <ele>1232.5</ele>
        <time>2022-06-09T12:13:58Z</time>
      </trkpt>
      <trkpt lat="44.87208" lon="3.39882">
        <ele>1233.5</ele>
        <time>2022-06-09T12:14:04Z</time>
      </trkpt>
      <trkpt lat="44.87211" lon="3.39876">
        <ele>1235.1</ele>
        <time>2022-06-09T12:14:10Z</time>
      </trkpt>
      <trkpt lat="44.87213" lon="3.3987">
        <ele>1237</ele>
        <time>2022-06-09T12:14:15Z</time>
      </trkpt>
      <trkpt lat="44.87215" lon="3.39864">
        <ele>1238.4</ele>
        <time>2022-06-09T12:14:21Z</time>
      </trkpt>
      <trkpt lat="44.87218" lon="3.39858">
        <ele>1237.5</ele>
        <time>2022-06-09T12:14:33Z</time>
      </trkpt>
      <trkpt lat="44.87223" lon="3.39856">
        <ele>1236.3</ele>
        <time>2022-06-09T12:14:39Z</time>
      </trkpt>
      <trkpt lat="44.87227" lon="3.39853">
        <ele>1236.8</ele>
        <time>2022-06-09T12:14:43Z</time>
      </trkpt>
      <trkpt lat="44.87231" lon="3.39851">
        <ele>1236.1</ele>
        <time>2022-06-09T12:14:47Z</time>
      </trkpt>
      <trkpt lat="44.87236" lon="3.39849">
        <ele>1236.3</ele>
        <time>2022-06-09T12:14:52Z</time>
      </trkpt>
      <trkpt lat="44.8724" lon="3.39846">
        <ele>1235.5</ele>
        <time>2022-06-09T12:14:57Z</time>
      </trkpt>
      <trkpt lat="44.87245" lon="3.39844">
        <ele>1237.4</ele>
        <time>2022-06-09T12:15:03Z</time>
      </trkpt>
      <trkpt lat="44.87249" lon="3.39841">
        <ele>1239</ele>
        <time>2022-06-09T12:15:11Z</time>
      </trkpt>
      <trkpt lat="44.87254" lon="3.39837">
        <ele>1240.1</ele>
        <time>2022-06-09T12:15:16Z</time>
      </trkpt>
      <trkpt lat="44.87259" lon="3.39834">
        <ele>1241.2</ele>
        <time>2022-06-09T12:15:22Z</time>
      </trkpt>
      <trkpt lat="44.87262" lon="3.39831">
        <ele>1241.3</ele>
        <time>2022-06-09T12:15:27Z</time>
      </trkpt>
      <trkpt lat="44.87267" lon="3.3983">
        <ele>1241.4</ele>
        <time>2022-06-09T12:15:32Z</time>
      </trkpt>
      <trkpt lat="44.87271" lon="3.39827">
        <ele>1243</ele>
        <time>2022-06-09T12:15:38Z</time>
      </trkpt>
      <trkpt lat="44.87276" lon="3.39826">
        <ele>1244.4</ele>
        <time>2022-06-09T12:15:45Z</time>
      </trkpt>
      <trkpt lat="44.87281" lon="3.39827">
        <ele>1245.1</ele>
        <time>2022-06-09T12:15:51Z</time>
      </trkpt>
      <trkpt lat="44.87286" lon="3.39825">
        <ele>1244.5</ele>
        <time>2022-06-09T12:16:00Z</time>
      </trkpt>
      <trkpt lat="44.87291" lon="3.39825">
        <ele>1244.2</ele>
        <time>2022-06-09T12:16:04Z</time>
      </trkpt>
      <trkpt lat="44.87296" lon="3.39825">
        <ele>1243.6</ele>
        <time>2022-06-09T12:16:08Z</time>
      </trkpt>
      <trkpt lat="44.87301" lon="3.39826">
        <ele>1243.3</ele>
        <time>2022-06-09T12:16:12Z</time>
      </trkpt>
      <trkpt lat="44.87306" lon="3.39826">
        <ele>1243.3</ele>
        <time>2022-06-09T12:16:16Z</time>
      </trkpt>
      <trkpt lat="44.87312" lon="3.39826">
        <ele>1242.5</ele>
        <time>2022-06-09T12:16:21Z</time>
      </trkpt>
      <trkpt lat="44.87316" lon="3.39825">
        <ele>1242</ele>
        <time>2022-06-09T12:16:26Z</time>
      </trkpt>
      <trkpt lat="44.87321" lon="3.39824">
        <ele>1241.7</ele>
        <time>2022-06-09T12:16:30Z</time>
      </trkpt>
      <trkpt lat="44.87326" lon="3.39822">
        <ele>1242</ele>
        <time>2022-06-09T12:16:34Z</time>
      </trkpt>
      <trkpt lat="44.87331" lon="3.39818">
        <ele>1242.6</ele>
        <time>2022-06-09T12:16:38Z</time>
      </trkpt>
      <trkpt lat="44.87336" lon="3.39816">
        <ele>1242.6</ele>
        <time>2022-06-09T12:16:43Z</time>
      </trkpt>
      <trkpt lat="44.8734" lon="3.39814">
        <ele>1242.9</ele>
        <time>2022-06-09T12:16:48Z</time>
      </trkpt>
      <trkpt lat="44.87345" lon="3.39811">
        <ele>1243.7</ele>
        <time>2022-06-09T12:16:54Z</time>
      </trkpt>
      <trkpt lat="44.8735" lon="3.39809">
        <ele>1244.6</ele>
        <time>2022-06-09T12:17:00Z</time>
      </trkpt>
      <trkpt lat="44.87354" lon="3.39807">
        <ele>1244.9</ele>
        <time>2022-06-09T12:17:05Z</time>
      </trkpt>
      <trkpt lat="44.87359" lon="3.39804">
        <ele>1245</ele>
        <time>2022-06-09T12:17:10Z</time>
      </trkpt>
      <trkpt lat="44.87363" lon="3.39803">
        <ele>1244.5</ele>
        <time>2022-06-09T12:17:15Z</time>
      </trkpt>
      <trkpt lat="44.87368" lon="3.39799">
        <ele>1244.5</ele>
        <time>2022-06-09T12:17:19Z</time>
      </trkpt>
      <trkpt lat="44.87373" lon="3.39797">
        <ele>1244.3</ele>
        <time>2022-06-09T12:17:24Z</time>
      </trkpt>
      <trkpt lat="44.87378" lon="3.39795">
        <ele>1244.3</ele>
        <time>2022-06-09T12:17:29Z</time>
      </trkpt>
      <trkpt lat="44.87384" lon="3.39793">
        <ele>1244.3</ele>
        <time>2022-06-09T12:17:34Z</time>
      </trkpt>
      <trkpt lat="44.87388" lon="3.3979">
        <ele>1244.1</ele>
        <time>2022-06-09T12:17:38Z</time>
      </trkpt>
      <trkpt lat="44.87392" lon="3.39787">
        <ele>1244.5</ele>
        <time>2022-06-09T12:17:42Z</time>
      </trkpt>
      <trkpt lat="44.87397" lon="3.39785">
        <ele>1243.8</ele>
        <time>2022-06-09T12:17:47Z</time>
      </trkpt>
      <trkpt lat="44.87401" lon="3.39782">
        <ele>1243.3</ele>
        <time>2022-06-09T12:17:55Z</time>
      </trkpt>
      <trkpt lat="44.87406" lon="3.39779">
        <ele>1243.3</ele>
        <time>2022-06-09T12:17:59Z</time>
      </trkpt>
      <trkpt lat="44.8741" lon="3.39775">
        <ele>1243.2</ele>
        <time>2022-06-09T12:18:04Z</time>
      </trkpt>
      <trkpt lat="44.87414" lon="3.39772">
        <ele>1242.2</ele>
        <time>2022-06-09T12:18:09Z</time>
      </trkpt>
      <trkpt lat="44.87418" lon="3.39768">
        <ele>1241</ele>
        <time>2022-06-09T12:18:14Z</time>
      </trkpt>
      <trkpt lat="44.87422" lon="3.39764">
        <ele>1240.1</ele>
        <time>2022-06-09T12:18:18Z</time>
      </trkpt>
      <trkpt lat="44.87427" lon="3.3976">
        <ele>1239.4</ele>
        <time>2022-06-09T12:18:23Z</time>
      </trkpt>
      <trkpt lat="44.8743" lon="3.39755">
        <ele>1239</ele>
        <time>2022-06-09T12:18:28Z</time>
      </trkpt>
      <trkpt lat="44.87435" lon="3.3975">
        <ele>1239.3</ele>
        <time>2022-06-09T12:18:33Z</time>
      </trkpt>
      <trkpt lat="44.87438" lon="3.39745">
        <ele>1239.9</ele>
        <time>2022-06-09T12:18:37Z</time>
      </trkpt>
      <trkpt lat="44.87441" lon="3.3974">
        <ele>1240.7</ele>
        <time>2022-06-09T12:18:41Z</time>
      </trkpt>
      <trkpt lat="44.87445" lon="3.39736">
        <ele>1240.8</ele>
        <time>2022-06-09T12:18:45Z</time>
      </trkpt>
      <trkpt lat="44.87448" lon="3.39731">
        <ele>1241</ele>
        <time>2022-06-09T12:18:49Z</time>
      </trkpt>
      <trkpt lat="44.87451" lon="3.39725">
        <ele>1239.9</ele>
        <time>2022-06-09T12:18:53Z</time>
      </trkpt>
      <trkpt lat="44.87454" lon="3.3972">
        <ele>1239.7</ele>
        <time>2022-06-09T12:18:57Z</time>
      </trkpt>
      <trkpt lat="44.87457" lon="3.39714">
        <ele>1240.3</ele>
        <time>2022-06-09T12:19:02Z</time>
      </trkpt>
      <trkpt lat="44.8746" lon="3.39709">
        <ele>1240.1</ele>
        <time>2022-06-09T12:19:10Z</time>
      </trkpt>
      <trkpt lat="44.87462" lon="3.39702">
        <ele>1241.7</ele>
        <time>2022-06-09T12:19:16Z</time>
      </trkpt>
      <trkpt lat="44.87464" lon="3.39695">
        <ele>1243.4</ele>
        <time>2022-06-09T12:19:23Z</time>
      </trkpt>
      <trkpt lat="44.87467" lon="3.39689">
        <ele>1244.1</ele>
        <time>2022-06-09T12:19:29Z</time>
      </trkpt>
      <trkpt lat="44.87471" lon="3.39684">
        <ele>1244.3</ele>
        <time>2022-06-09T12:19:35Z</time>
      </trkpt>
      <trkpt lat="44.87475" lon="3.3968">
        <ele>1242.8</ele>
        <time>2022-06-09T12:19:42Z</time>
      </trkpt>
      <trkpt lat="44.87479" lon="3.39677">
        <ele>1242.8</ele>
        <time>2022-06-09T12:19:48Z</time>
      </trkpt>
      <trkpt lat="44.87484" lon="3.39673">
        <ele>1242.3</ele>
        <time>2022-06-09T12:19:54Z</time>
      </trkpt>
      <trkpt lat="44.87488" lon="3.3967">
        <ele>1241.1</ele>
        <time>2022-06-09T12:20:00Z</time>
      </trkpt>
      <trkpt lat="44.87492" lon="3.39667">
        <ele>1241.9</ele>
        <time>2022-06-09T12:20:06Z</time>
      </trkpt>
      <trkpt lat="44.87496" lon="3.39663">
        <ele>1243.5</ele>
        <time>2022-06-09T12:20:14Z</time>
      </trkpt>
      <trkpt lat="44.875" lon="3.39659">
        <ele>1244.4</ele>
        <time>2022-06-09T12:20:21Z</time>
      </trkpt>
      <trkpt lat="44.87504" lon="3.39655">
        <ele>1245.6</ele>
        <time>2022-06-09T12:20:26Z</time>
      </trkpt>
      <trkpt lat="44.87507" lon="3.39649">
        <ele>1246.6</ele>
        <time>2022-06-09T12:20:33Z</time>
      </trkpt>
      <trkpt lat="44.8751" lon="3.39644">
        <ele>1246.6</ele>
        <time>2022-06-09T12:20:40Z</time>
      </trkpt>
      <trkpt lat="44.87512" lon="3.39637">
        <ele>1248.3</ele>
        <time>2022-06-09T12:20:47Z</time>
      </trkpt>
      <trkpt lat="44.87515" lon="3.39631">
        <ele>1249.9</ele>
        <time>2022-06-09T12:20:54Z</time>
      </trkpt>
      <trkpt lat="44.87518" lon="3.39626">
        <ele>1249.9</ele>
        <time>2022-06-09T12:20:59Z</time>
      </trkpt>
      <trkpt lat="44.8752" lon="3.39621">
        <ele>1250.3</ele>
        <time>2022-06-09T12:21:05Z</time>
      </trkpt>
      <trkpt lat="44.87524" lon="3.39616">
        <ele>1251.2</ele>
        <time>2022-06-09T12:21:10Z</time>
      </trkpt>
      <trkpt lat="44.87528" lon="3.39611">
        <ele>1251.7</ele>
        <time>2022-06-09T12:21:14Z</time>
      </trkpt>
      <trkpt lat="44.87531" lon="3.39605">
        <ele>1254.8</ele>
        <time>2022-06-09T12:21:19Z</time>
      </trkpt>
      <trkpt lat="44.87536" lon="3.39602">
        <ele>1253.8</ele>
        <time>2022-06-09T12:21:25Z</time>
      </trkpt>
      <trkpt lat="44.8754" lon="3.39596">
        <ele>1253.4</ele>
        <time>2022-06-09T12:21:30Z</time>
      </trkpt>
      <trkpt lat="44.87542" lon="3.39591">
        <ele>1253.4</ele>
        <time>2022-06-09T12:21:33Z</time>
      </trkpt>
      <trkpt lat="44.87544" lon="3.39585">
        <ele>1253.5</ele>
        <time>2022-06-09T12:21:36Z</time>
      </trkpt>
      <trkpt lat="44.87547" lon="3.39577">
        <ele>1253.3</ele>
        <time>2022-06-09T12:21:40Z</time>
      </trkpt>
      <trkpt lat="44.87548" lon="3.3957">
        <ele>1252.6</ele>
        <time>2022-06-09T12:21:44Z</time>
      </trkpt>
      <trkpt lat="44.87548" lon="3.39562">
        <ele>1252.6</ele>
        <time>2022-06-09T12:21:48Z</time>
      </trkpt>
      <trkpt lat="44.87549" lon="3.39554">
        <ele>1252.7</ele>
        <time>2022-06-09T12:21:52Z</time>
      </trkpt>
      <trkpt lat="44.8755" lon="3.39548">
        <ele>1252.8</ele>
        <time>2022-06-09T12:21:56Z</time>
      </trkpt>
      <trkpt lat="44.87552" lon="3.39541">
        <ele>1252.6</ele>
        <time>2022-06-09T12:22:01Z</time>
      </trkpt>
      <trkpt lat="44.87554" lon="3.39535">
        <ele>1250.7</ele>
        <time>2022-06-09T12:22:06Z</time>
      </trkpt>
      <trkpt lat="44.87557" lon="3.39529">
        <ele>1249.4</ele>
        <time>2022-06-09T12:22:11Z</time>
      </trkpt>
      <trkpt lat="44.87559" lon="3.39523">
        <ele>1247.6</ele>
        <time>2022-06-09T12:22:16Z</time>
      </trkpt>
      <trkpt lat="44.87563" lon="3.39517">
        <ele>1247.7</ele>
        <time>2022-06-09T12:22:20Z</time>
      </trkpt>
      <trkpt lat="44.87566" lon="3.39511">
        <ele>1248.5</ele>
        <time>2022-06-09T12:22:24Z</time>
      </trkpt>
      <trkpt lat="44.87568" lon="3.39504">
        <ele>1249.5</ele>
        <time>2022-06-09T12:22:28Z</time>
      </trkpt>
      <trkpt lat="44.8757" lon="3.39498">
        <ele>1250.3</ele>
        <time>2022-06-09T12:22:32Z</time>
      </trkpt>
      <trkpt lat="44.87571" lon="3.3949">
        <ele>1250.1</ele>
        <time>2022-06-09T12:22:38Z</time>
      </trkpt>
      <trkpt lat="44.87572" lon="3.39484">
        <ele>1250</ele>
        <time>2022-06-09T12:22:43Z</time>
      </trkpt>
      <trkpt lat="44.87574" lon="3.39477">
        <ele>1250.3</ele>
        <time>2022-06-09T12:22:48Z</time>
      </trkpt>
      <trkpt lat="44.87577" lon="3.39471">
        <ele>1250.5</ele>
        <time>2022-06-09T12:22:55Z</time>
      </trkpt>
      <trkpt lat="44.87581" lon="3.39469">
        <ele>1251.3</ele>
        <time>2022-06-09T12:23:04Z</time>
      </trkpt>
      <trkpt lat="44.87584" lon="3.39465">
        <ele>1251</ele>
        <time>2022-06-09T12:23:13Z</time>
      </trkpt>
      <trkpt lat="44.87588" lon="3.3946">
        <ele>1250.1</ele>
        <time>2022-06-09T12:23:19Z</time>
      </trkpt>
      <trkpt lat="44.87591" lon="3.39456">
        <ele>1249.2</ele>
        <time>2022-06-09T12:23:24Z</time>
      </trkpt>
      <trkpt lat="44.87594" lon="3.3945">
        <ele>1247.6</ele>
        <time>2022-06-09T12:23:30Z</time>
      </trkpt>
      <trkpt lat="44.87596" lon="3.39444">
        <ele>1247.2</ele>
        <time>2022-06-09T12:23:35Z</time>
      </trkpt>
      <trkpt lat="44.87599" lon="3.39438">
        <ele>1247.5</ele>
        <time>2022-06-09T12:23:40Z</time>
      </trkpt>
      <trkpt lat="44.87602" lon="3.39434">
        <ele>1247.8</ele>
        <time>2022-06-09T12:23:46Z</time>
      </trkpt>
      <trkpt lat="44.87605" lon="3.39428">
        <ele>1248</ele>
        <time>2022-06-09T12:23:54Z</time>
      </trkpt>
      <trkpt lat="44.87608" lon="3.39422">
        <ele>1247.5</ele>
        <time>2022-06-09T12:24:01Z</time>
      </trkpt>
      <trkpt lat="44.8761" lon="3.39416">
        <ele>1247</ele>
        <time>2022-06-09T12:24:07Z</time>
      </trkpt>
      <trkpt lat="44.8761" lon="3.39409">
        <ele>1246.9</ele>
        <time>2022-06-09T12:24:13Z</time>
      </trkpt>
      <trkpt lat="44.8761" lon="3.39403">
        <ele>1247.4</ele>
        <time>2022-06-09T12:24:19Z</time>
      </trkpt>
      <trkpt lat="44.87611" lon="3.39396">
        <ele>1247.2</ele>
        <time>2022-06-09T12:24:24Z</time>
      </trkpt>
      <trkpt lat="44.87611" lon="3.39389">
        <ele>1247.2</ele>
        <time>2022-06-09T12:24:29Z</time>
      </trkpt>
      <trkpt lat="44.87612" lon="3.39382">
        <ele>1245.8</ele>
        <time>2022-06-09T12:24:34Z</time>
      </trkpt>
      <trkpt lat="44.87612" lon="3.39375">
        <ele>1244.3</ele>
        <time>2022-06-09T12:24:39Z</time>
      </trkpt>
      <trkpt lat="44.87614" lon="3.39369">
        <ele>1243.5</ele>
        <time>2022-06-09T12:24:43Z</time>
      </trkpt>
      <trkpt lat="44.87616" lon="3.39362">
        <ele>1245.2</ele>
        <time>2022-06-09T12:25:01Z</time>
      </trkpt>
      <trkpt lat="44.87617" lon="3.39356">
        <ele>1245.4</ele>
        <time>2022-06-09T12:25:05Z</time>
      </trkpt>
      <trkpt lat="44.87618" lon="3.39349">
        <ele>1245.6</ele>
        <time>2022-06-09T12:25:09Z</time>
      </trkpt>
      <trkpt lat="44.8762" lon="3.39342">
        <ele>1246.6</ele>
        <time>2022-06-09T12:25:13Z</time>
      </trkpt>
      <trkpt lat="44.87622" lon="3.39335">
        <ele>1247.2</ele>
        <time>2022-06-09T12:25:18Z</time>
      </trkpt>
      <trkpt lat="44.87623" lon="3.39328">
        <ele>1247.8</ele>
        <time>2022-06-09T12:25:22Z</time>
      </trkpt>
      <trkpt lat="44.87625" lon="3.39321">
        <ele>1248.2</ele>
        <time>2022-06-09T12:25:27Z</time>
      </trkpt>
      <trkpt lat="44.87628" lon="3.39315">
        <ele>1247.2</ele>
        <time>2022-06-09T12:25:32Z</time>
      </trkpt>
      <trkpt lat="44.87631" lon="3.39309">
        <ele>1246</ele>
        <time>2022-06-09T12:25:39Z</time>
      </trkpt>
      <trkpt lat="44.87634" lon="3.39304">
        <ele>1245.4</ele>
        <time>2022-06-09T12:25:44Z</time>
      </trkpt>
      <trkpt lat="44.87637" lon="3.39298">
        <ele>1245.9</ele>
        <time>2022-06-09T12:25:48Z</time>
      </trkpt>
      <trkpt lat="44.87639" lon="3.39293">
        <ele>1245.2</ele>
        <time>2022-06-09T12:25:52Z</time>
      </trkpt>
      <trkpt lat="44.87643" lon="3.39288">
        <ele>1244.1</ele>
        <time>2022-06-09T12:25:57Z</time>
      </trkpt>
      <trkpt lat="44.87646" lon="3.39282">
        <ele>1244.2</ele>
        <time>2022-06-09T12:26:04Z</time>
      </trkpt>
      <trkpt lat="44.8765" lon="3.39277">
        <ele>1245.1</ele>
        <time>2022-06-09T12:26:10Z</time>
      </trkpt>
      <trkpt lat="44.87654" lon="3.39273">
        <ele>1246.4</ele>
        <time>2022-06-09T12:26:14Z</time>
      </trkpt>
      <trkpt lat="44.87656" lon="3.39268">
        <ele>1246.7</ele>
        <time>2022-06-09T12:26:18Z</time>
      </trkpt>
      <trkpt lat="44.87659" lon="3.39261">
        <ele>1247.5</ele>
        <time>2022-06-09T12:26:23Z</time>
      </trkpt>
      <trkpt lat="44.87662" lon="3.39255">
        <ele>1247.9</ele>
        <time>2022-06-09T12:26:28Z</time>
      </trkpt>
      <trkpt lat="44.87665" lon="3.39249">
        <ele>1246.8</ele>
        <time>2022-06-09T12:26:33Z</time>
      </trkpt>
      <trkpt lat="44.87669" lon="3.39244">
        <ele>1244.2</ele>
        <time>2022-06-09T12:26:40Z</time>
      </trkpt>
      <trkpt lat="44.87673" lon="3.39241">
        <ele>1243.9</ele>
        <time>2022-06-09T12:26:47Z</time>
      </trkpt>
      <trkpt lat="44.87677" lon="3.39237">
        <ele>1243.6</ele>
        <time>2022-06-09T12:26:53Z</time>
      </trkpt>
      <trkpt lat="44.8768" lon="3.39232">
        <ele>1243.6</ele>
        <time>2022-06-09T12:26:58Z</time>
      </trkpt>
      <trkpt lat="44.87683" lon="3.39225">
        <ele>1244.9</ele>
        <time>2022-06-09T12:27:05Z</time>
      </trkpt>
      <trkpt lat="44.87684" lon="3.39219">
        <ele>1245.1</ele>
        <time>2022-06-09T12:27:09Z</time>
      </trkpt>
      <trkpt lat="44.87686" lon="3.39213">
        <ele>1245</ele>
        <time>2022-06-09T12:27:14Z</time>
      </trkpt>
      <trkpt lat="44.87686" lon="3.39206">
        <ele>1243.1</ele>
        <time>2022-06-09T12:27:19Z</time>
      </trkpt>
      <trkpt lat="44.87686" lon="3.392">
        <ele>1241.6</ele>
        <time>2022-06-09T12:27:24Z</time>
      </trkpt>
      <trkpt lat="44.87682" lon="3.39194">
        <ele>1241.1</ele>
        <time>2022-06-09T12:27:29Z</time>
      </trkpt>
      <trkpt lat="44.87678" lon="3.3919">
        <ele>1240.6</ele>
        <time>2022-06-09T12:27:34Z</time>
      </trkpt>
      <trkpt lat="44.87673" lon="3.39188">
        <ele>1238.8</ele>
        <time>2022-06-09T12:27:39Z</time>
      </trkpt>
      <trkpt lat="44.87669" lon="3.39188">
        <ele>1235.7</ele>
        <time>2022-06-09T12:27:43Z</time>
      </trkpt>
      <trkpt lat="44.87664" lon="3.39187">
        <ele>1230.6</ele>
        <time>2022-06-09T12:28:01Z</time>
      </trkpt>
      <trkpt lat="44.87659" lon="3.39186">
        <ele>1229.2</ele>
        <time>2022-06-09T12:28:07Z</time>
      </trkpt>
      <trkpt lat="44.87654" lon="3.39186">
        <ele>1228.3</ele>
        <time>2022-06-09T12:28:13Z</time>
      </trkpt>
      <trkpt lat="44.87649" lon="3.39186">
        <ele>1228.3</ele>
        <time>2022-06-09T12:28:18Z</time>
      </trkpt>
      <trkpt lat="44.87645" lon="3.39184">
        <ele>1227.7</ele>
        <time>2022-06-09T12:28:23Z</time>
      </trkpt>
      <trkpt lat="44.8764" lon="3.39183">
        <ele>1228</ele>
        <time>2022-06-09T12:28:28Z</time>
      </trkpt>
      <trkpt lat="44.87635" lon="3.39181">
        <ele>1229.2</ele>
        <time>2022-06-09T12:28:39Z</time>
      </trkpt>
      <trkpt lat="44.8763" lon="3.39179">
        <ele>1229.7</ele>
        <time>2022-06-09T12:28:46Z</time>
      </trkpt>
      <trkpt lat="44.87625" lon="3.39177">
        <ele>1229.5</ele>
        <time>2022-06-09T12:28:53Z</time>
      </trkpt>
      <trkpt lat="44.8762" lon="3.39177">
        <ele>1229.4</ele>
        <time>2022-06-09T12:29:00Z</time>
      </trkpt>
      <trkpt lat="44.87615" lon="3.39177">
        <ele>1229.5</ele>
        <time>2022-06-09T12:29:07Z</time>
      </trkpt>
      <trkpt lat="44.87611" lon="3.39176">
        <ele>1229.4</ele>
        <time>2022-06-09T12:29:18Z</time>
      </trkpt>
      <trkpt lat="44.87606" lon="3.39175">
        <ele>1230.2</ele>
        <time>2022-06-09T12:29:28Z</time>
      </trkpt>
      <trkpt lat="44.87601" lon="3.39174">
        <ele>1229.4</ele>
        <time>2022-06-09T12:29:36Z</time>
      </trkpt>
      <trkpt lat="44.87597" lon="3.39175">
        <ele>1229.4</ele>
        <time>2022-06-09T12:29:42Z</time>
      </trkpt>
      <trkpt lat="44.87591" lon="3.39174">
        <ele>1229.8</ele>
        <time>2022-06-09T12:29:50Z</time>
      </trkpt>
      <trkpt lat="44.87586" lon="3.39175">
        <ele>1230.7</ele>
        <time>2022-06-09T12:29:56Z</time>
      </trkpt>
      <trkpt lat="44.87581" lon="3.39176">
        <ele>1231.4</ele>
        <time>2022-06-09T12:30:02Z</time>
      </trkpt>
      <trkpt lat="44.87576" lon="3.39176">
        <ele>1231.6</ele>
        <time>2022-06-09T12:30:08Z</time>
      </trkpt>
      <trkpt lat="44.87572" lon="3.39176">
        <ele>1231</ele>
        <time>2022-06-09T12:30:14Z</time>
      </trkpt>
      <trkpt lat="44.87567" lon="3.39176">
        <ele>1229.8</ele>
        <time>2022-06-09T12:30:22Z</time>
      </trkpt>
      <trkpt lat="44.87562" lon="3.39177">
        <ele>1228.1</ele>
        <time>2022-06-09T12:30:31Z</time>
      </trkpt>
      <trkpt lat="44.87557" lon="3.39178">
        <ele>1225.7</ele>
        <time>2022-06-09T12:30:38Z</time>
      </trkpt>
      <trkpt lat="44.87552" lon="3.39178">
        <ele>1224.4</ele>
        <time>2022-06-09T12:30:44Z</time>
      </trkpt>
      <trkpt lat="44.87547" lon="3.39178">
        <ele>1223.9</ele>
        <time>2022-06-09T12:30:50Z</time>
      </trkpt>
      <trkpt lat="44.87541" lon="3.39177">
        <ele>1224.3</ele>
        <time>2022-06-09T12:30:55Z</time>
      </trkpt>
      <trkpt lat="44.87536" lon="3.39174">
        <ele>1225.3</ele>
        <time>2022-06-09T12:31:01Z</time>
      </trkpt>
      <trkpt lat="44.87532" lon="3.39172">
        <ele>1224.2</ele>
        <time>2022-06-09T12:31:06Z</time>
      </trkpt>
      <trkpt lat="44.87529" lon="3.39166">
        <ele>1220.7</ele>
        <time>2022-06-09T12:31:13Z</time>
      </trkpt>
      <trkpt lat="44.8753" lon="3.39159">
        <ele>1219.6</ele>
        <time>2022-06-09T12:31:20Z</time>
      </trkpt>
      <trkpt lat="44.8753" lon="3.39152">
        <ele>1220.1</ele>
        <time>2022-06-09T12:31:26Z</time>
      </trkpt>
      <trkpt lat="44.87531" lon="3.39145">
        <ele>1219.6</ele>
        <time>2022-06-09T12:31:31Z</time>
      </trkpt>
      <trkpt lat="44.8753" lon="3.39138">
        <ele>1219.6</ele>
        <time>2022-06-09T12:31:36Z</time>
      </trkpt>
      <trkpt lat="44.8753" lon="3.39132">
        <ele>1218.1</ele>
        <time>2022-06-09T12:31:40Z</time>
      </trkpt>
      <trkpt lat="44.87528" lon="3.39125">
        <ele>1216.8</ele>
        <time>2022-06-09T12:31:47Z</time>
      </trkpt>
      <trkpt lat="44.87524" lon="3.3912">
        <ele>1215.7</ele>
        <time>2022-06-09T12:31:52Z</time>
      </trkpt>
      <trkpt lat="44.8752" lon="3.39115">
        <ele>1215.7</ele>
        <time>2022-06-09T12:31:58Z</time>
      </trkpt>
      <trkpt lat="44.87516" lon="3.39111">
        <ele>1214.7</ele>
        <time>2022-06-09T12:32:03Z</time>
      </trkpt>
      <trkpt lat="44.87513" lon="3.39106">
        <ele>1213.6</ele>
        <time>2022-06-09T12:32:07Z</time>
      </trkpt>
      <trkpt lat="44.87509" lon="3.39102">
        <ele>1212.3</ele>
        <time>2022-06-09T12:32:12Z</time>
      </trkpt>
      <trkpt lat="44.87504" lon="3.39098">
        <ele>1212.4</ele>
        <time>2022-06-09T12:32:17Z</time>
      </trkpt>
      <trkpt lat="44.875" lon="3.39097">
        <ele>1211.8</ele>
        <time>2022-06-09T12:32:21Z</time>
      </trkpt>
      <trkpt lat="44.87494" lon="3.39096">
        <ele>1212.3</ele>
        <time>2022-06-09T12:32:25Z</time>
      </trkpt>
      <trkpt lat="44.87489" lon="3.39096">
        <ele>1212.6</ele>
        <time>2022-06-09T12:32:29Z</time>
      </trkpt>
      <trkpt lat="44.87484" lon="3.39097">
        <ele>1211.8</ele>
        <time>2022-06-09T12:32:34Z</time>
      </trkpt>
      <trkpt lat="44.8748" lon="3.39101">
        <ele>1209.5</ele>
        <time>2022-06-09T12:32:41Z</time>
      </trkpt>
      <trkpt lat="44.87476" lon="3.39105">
        <ele>1206.5</ele>
        <time>2022-06-09T12:32:50Z</time>
      </trkpt>
      <trkpt lat="44.87473" lon="3.3911">
        <ele>1207.1</ele>
        <time>2022-06-09T12:32:57Z</time>
      </trkpt>
      <trkpt lat="44.87468" lon="3.39112">
        <ele>1208</ele>
        <time>2022-06-09T12:33:03Z</time>
      </trkpt>
      <trkpt lat="44.87463" lon="3.39112">
        <ele>1208.5</ele>
        <time>2022-06-09T12:33:09Z</time>
      </trkpt>
      <trkpt lat="44.87458" lon="3.39112">
        <ele>1209.4</ele>
        <time>2022-06-09T12:33:13Z</time>
      </trkpt>
      <trkpt lat="44.87453" lon="3.39114">
        <ele>1209.8</ele>
        <time>2022-06-09T12:33:17Z</time>
      </trkpt>
      <trkpt lat="44.87449" lon="3.39116">
        <ele>1209.7</ele>
        <time>2022-06-09T12:33:21Z</time>
      </trkpt>
      <trkpt lat="44.87444" lon="3.39118">
        <ele>1209.3</ele>
        <time>2022-06-09T12:33:27Z</time>
      </trkpt>
      <trkpt lat="44.87439" lon="3.3912">
        <ele>1210</ele>
        <time>2022-06-09T12:33:31Z</time>
      </trkpt>
      <trkpt lat="44.87434" lon="3.39121">
        <ele>1209.7</ele>
        <time>2022-06-09T12:33:35Z</time>
      </trkpt>
      <trkpt lat="44.8743" lon="3.39122">
        <ele>1208.8</ele>
        <time>2022-06-09T12:33:39Z</time>
      </trkpt>
      <trkpt lat="44.87425" lon="3.39122">
        <ele>1208.4</ele>
        <time>2022-06-09T12:33:44Z</time>
      </trkpt>
      <trkpt lat="44.8742" lon="3.39122">
        <ele>1209.8</ele>
        <time>2022-06-09T12:33:48Z</time>
      </trkpt>
      <trkpt lat="44.87414" lon="3.39122">
        <ele>1210.5</ele>
        <time>2022-06-09T12:33:52Z</time>
      </trkpt>
      <trkpt lat="44.8741" lon="3.39124">
        <ele>1210.9</ele>
        <time>2022-06-09T12:33:57Z</time>
      </trkpt>
      <trkpt lat="44.87405" lon="3.39127">
        <ele>1210.9</ele>
        <time>2022-06-09T12:34:04Z</time>
      </trkpt>
      <trkpt lat="44.874" lon="3.3913">
        <ele>1210.5</ele>
        <time>2022-06-09T12:34:09Z</time>
      </trkpt>
      <trkpt lat="44.87395" lon="3.39131">
        <ele>1209.4</ele>
        <time>2022-06-09T12:34:13Z</time>
      </trkpt>
      <trkpt lat="44.87391" lon="3.39134">
        <ele>1207.7</ele>
        <time>2022-06-09T12:34:18Z</time>
      </trkpt>
      <trkpt lat="44.87386" lon="3.39136">
        <ele>1207</ele>
        <time>2022-06-09T12:34:22Z</time>
      </trkpt>
      <trkpt lat="44.87381" lon="3.39137">
        <ele>1206.7</ele>
        <time>2022-06-09T12:34:26Z</time>
      </trkpt>
      <trkpt lat="44.87377" lon="3.39139">
        <ele>1205.6</ele>
        <time>2022-06-09T12:34:31Z</time>
      </trkpt>
      <trkpt lat="44.87372" lon="3.3914">
        <ele>1204.9</ele>
        <time>2022-06-09T12:34:36Z</time>
      </trkpt>
      <trkpt lat="44.87366" lon="3.39141">
        <ele>1204.3</ele>
        <time>2022-06-09T12:34:41Z</time>
      </trkpt>
      <trkpt lat="44.87362" lon="3.39142">
        <ele>1203</ele>
        <time>2022-06-09T12:34:46Z</time>
      </trkpt>
      <trkpt lat="44.87357" lon="3.39144">
        <ele>1202</ele>
        <time>2022-06-09T12:34:51Z</time>
      </trkpt>
      <trkpt lat="44.87352" lon="3.39145">
        <ele>1201.4</ele>
        <time>2022-06-09T12:34:56Z</time>
      </trkpt>
      <trkpt lat="44.87347" lon="3.39147">
        <ele>1200.2</ele>
        <time>2022-06-09T12:35:02Z</time>
      </trkpt>
      <trkpt lat="44.87342" lon="3.39149">
        <ele>1197.9</ele>
        <time>2022-06-09T12:35:10Z</time>
      </trkpt>
      <trkpt lat="44.87337" lon="3.3915">
        <ele>1199.1</ele>
        <time>2022-06-09T12:35:15Z</time>
      </trkpt>
      <trkpt lat="44.87332" lon="3.3915">
        <ele>1199.1</ele>
        <time>2022-06-09T12:35:20Z</time>
      </trkpt>
      <trkpt lat="44.87328" lon="3.39151">
        <ele>1198.5</ele>
        <time>2022-06-09T12:35:24Z</time>
      </trkpt>
      <trkpt lat="44.87323" lon="3.39151">
        <ele>1197.3</ele>
        <time>2022-06-09T12:35:30Z</time>
      </trkpt>
      <trkpt lat="44.87318" lon="3.39152">
        <ele>1196.4</ele>
        <time>2022-06-09T12:35:36Z</time>
      </trkpt>
      <trkpt lat="44.87313" lon="3.39152">
        <ele>1194.5</ele>
        <time>2022-06-09T12:35:41Z</time>
      </trkpt>
      <trkpt lat="44.87308" lon="3.39153">
        <ele>1193.7</ele>
        <time>2022-06-09T12:35:46Z</time>
      </trkpt>
      <trkpt lat="44.87304" lon="3.39156">
        <ele>1193.4</ele>
        <time>2022-06-09T12:35:51Z</time>
      </trkpt>
      <trkpt lat="44.873" lon="3.39159">
        <ele>1190.7</ele>
        <time>2022-06-09T12:36:02Z</time>
      </trkpt>
      <trkpt lat="44.87296" lon="3.39163">
        <ele>1188</ele>
        <time>2022-06-09T12:36:10Z</time>
      </trkpt>
      <trkpt lat="44.87291" lon="3.39166">
        <ele>1186.7</ele>
        <time>2022-06-09T12:36:16Z</time>
      </trkpt>
      <trkpt lat="44.87287" lon="3.3917">
        <ele>1185.4</ele>
        <time>2022-06-09T12:36:22Z</time>
      </trkpt>
      <trkpt lat="44.87284" lon="3.39176">
        <ele>1184.6</ele>
        <time>2022-06-09T12:36:27Z</time>
      </trkpt>
      <trkpt lat="44.87282" lon="3.39182">
        <ele>1182.9</ele>
        <time>2022-06-09T12:36:32Z</time>
      </trkpt>
      <trkpt lat="44.87277" lon="3.39185">
        <ele>1181.2</ele>
        <time>2022-06-09T12:36:39Z</time>
      </trkpt>
      <trkpt lat="44.87274" lon="3.3919">
        <ele>1179.7</ele>
        <time>2022-06-09T12:36:50Z</time>
      </trkpt>
      <trkpt lat="44.87271" lon="3.39197">
        <ele>1179.4</ele>
        <time>2022-06-09T12:37:02Z</time>
      </trkpt>
      <trkpt lat="44.87267" lon="3.392">
        <ele>1178.7</ele>
        <time>2022-06-09T12:37:07Z</time>
      </trkpt>
      <trkpt lat="44.87262" lon="3.392">
        <ele>1177.8</ele>
        <time>2022-06-09T12:37:13Z</time>
      </trkpt>
      <trkpt lat="44.87259" lon="3.39195">
        <ele>1177.5</ele>
        <time>2022-06-09T12:37:20Z</time>
      </trkpt>
      <trkpt lat="44.87257" lon="3.39189">
        <ele>1179.2</ele>
        <time>2022-06-09T12:37:36Z</time>
      </trkpt>
      <trkpt lat="44.87256" lon="3.39183">
        <ele>1181.7</ele>
        <time>2022-06-09T12:37:47Z</time>
      </trkpt>
      <trkpt lat="44.87254" lon="3.39177">
        <ele>1182.3</ele>
        <time>2022-06-09T12:37:55Z</time>
      </trkpt>
      <trkpt lat="44.87249" lon="3.39178">
        <ele>1186</ele>
        <time>2022-06-09T12:38:17Z</time>
      </trkpt>
      <trkpt lat="44.87244" lon="3.39179">
        <ele>1186.6</ele>
        <time>2022-06-09T12:38:22Z</time>
      </trkpt>
      <trkpt lat="44.8724" lon="3.39181">
        <ele>1186.5</ele>
        <time>2022-06-09T12:38:28Z</time>
      </trkpt>
      <trkpt lat="44.87235" lon="3.39182">
        <ele>1186</ele>
        <time>2022-06-09T12:38:34Z</time>
      </trkpt>
      <trkpt lat="44.87229" lon="3.39183">
        <ele>1184.9</ele>
        <time>2022-06-09T12:38:39Z</time>
      </trkpt>
      <trkpt lat="44.87224" lon="3.39184">
        <ele>1183.9</ele>
        <time>2022-06-09T12:38:43Z</time>
      </trkpt>
      <trkpt lat="44.87219" lon="3.39184">
        <ele>1182.6</ele>
        <time>2022-06-09T12:38:48Z</time>
      </trkpt>
      <trkpt lat="44.87215" lon="3.39186">
        <ele>1181.7</ele>
        <time>2022-06-09T12:38:52Z</time>
      </trkpt>
      <trkpt lat="44.8721" lon="3.39186">
        <ele>1180.1</ele>
        <time>2022-06-09T12:38:56Z</time>
      </trkpt>
      <trkpt lat="44.87205" lon="3.39185">
        <ele>1179.2</ele>
        <time>2022-06-09T12:39:01Z</time>
      </trkpt>
      <trkpt lat="44.872" lon="3.39183">
        <ele>1178.7</ele>
        <time>2022-06-09T12:39:06Z</time>
      </trkpt>
      <trkpt lat="44.87195" lon="3.3918">
        <ele>1178.7</ele>
        <time>2022-06-09T12:39:12Z</time>
      </trkpt>
      <trkpt lat="44.8719" lon="3.3918">
        <ele>1177.9</ele>
        <time>2022-06-09T12:39:17Z</time>
      </trkpt>
      <trkpt lat="44.87186" lon="3.39176">
        <ele>1177.8</ele>
        <time>2022-06-09T12:39:22Z</time>
      </trkpt>
      <trkpt lat="44.87181" lon="3.39172">
        <ele>1178.7</ele>
        <time>2022-06-09T12:39:28Z</time>
      </trkpt>
      <trkpt lat="44.87177" lon="3.3917">
        <ele>1178.9</ele>
        <time>2022-06-09T12:39:33Z</time>
      </trkpt>
      <trkpt lat="44.87172" lon="3.39166">
        <ele>1178.8</ele>
        <time>2022-06-09T12:39:39Z</time>
      </trkpt>
      <trkpt lat="44.87167" lon="3.39163">
        <ele>1178.2</ele>
        <time>2022-06-09T12:39:48Z</time>
      </trkpt>
      <trkpt lat="44.87163" lon="3.3916">
        <ele>1178.4</ele>
        <time>2022-06-09T12:39:53Z</time>
      </trkpt>
      <trkpt lat="44.8716" lon="3.39156">
        <ele>1178.6</ele>
        <time>2022-06-09T12:39:58Z</time>
      </trkpt>
      <trkpt lat="44.87156" lon="3.39152">
        <ele>1179</ele>
        <time>2022-06-09T12:40:04Z</time>
      </trkpt>
      <trkpt lat="44.87153" lon="3.39147">
        <ele>1179.4</ele>
        <time>2022-06-09T12:40:09Z</time>
      </trkpt>
      <trkpt lat="44.87149" lon="3.39142">
        <ele>1180.8</ele>
        <time>2022-06-09T12:40:14Z</time>
      </trkpt>
      <trkpt lat="44.87145" lon="3.39138">
        <ele>1180.6</ele>
        <time>2022-06-09T12:40:19Z</time>
      </trkpt>
      <trkpt lat="44.8714" lon="3.39134">
        <ele>1181</ele>
        <time>2022-06-09T12:40:24Z</time>
      </trkpt>
      <trkpt lat="44.87135" lon="3.39131">
        <ele>1181.6</ele>
        <time>2022-06-09T12:40:29Z</time>
      </trkpt>
      <trkpt lat="44.8713" lon="3.39127">
        <ele>1182.2</ele>
        <time>2022-06-09T12:40:34Z</time>
      </trkpt>
      <trkpt lat="44.87126" lon="3.39123">
        <ele>1183</ele>
        <time>2022-06-09T12:40:39Z</time>
      </trkpt>
      <trkpt lat="44.87121" lon="3.39119">
        <ele>1183.1</ele>
        <time>2022-06-09T12:40:44Z</time>
      </trkpt>
      <trkpt lat="44.87117" lon="3.39114">
        <ele>1184.3</ele>
        <time>2022-06-09T12:40:49Z</time>
      </trkpt>
      <trkpt lat="44.87114" lon="3.39109">
        <ele>1185.1</ele>
        <time>2022-06-09T12:40:54Z</time>
      </trkpt>
      <trkpt lat="44.8711" lon="3.39105">
        <ele>1184.9</ele>
        <time>2022-06-09T12:41:00Z</time>
      </trkpt>
      <trkpt lat="44.87107" lon="3.39099">
        <ele>1184.2</ele>
        <time>2022-06-09T12:41:05Z</time>
      </trkpt>
      <trkpt lat="44.87103" lon="3.39095">
        <ele>1184.3</ele>
        <time>2022-06-09T12:41:09Z</time>
      </trkpt>
      <trkpt lat="44.871" lon="3.3909">
        <ele>1184.5</ele>
        <time>2022-06-09T12:41:13Z</time>
      </trkpt>
      <trkpt lat="44.87098" lon="3.39083">
        <ele>1183.8</ele>
        <time>2022-06-09T12:41:18Z</time>
      </trkpt>
      <trkpt lat="44.87096" lon="3.39076">
        <ele>1182.5</ele>
        <time>2022-06-09T12:41:23Z</time>
      </trkpt>
      <trkpt lat="44.87094" lon="3.3907">
        <ele>1181.1</ele>
        <time>2022-06-09T12:41:27Z</time>
      </trkpt>
      <trkpt lat="44.87092" lon="3.39063">
        <ele>1179.8</ele>
        <time>2022-06-09T12:41:31Z</time>
      </trkpt>
      <trkpt lat="44.87091" lon="3.39055">
        <ele>1178.5</ele>
        <time>2022-06-09T12:41:36Z</time>
      </trkpt>
      <trkpt lat="44.87089" lon="3.39049">
        <ele>1179.5</ele>
        <time>2022-06-09T12:41:41Z</time>
      </trkpt>
      <trkpt lat="44.87089" lon="3.39042">
        <ele>1178.9</ele>
        <time>2022-06-09T12:41:46Z</time>
      </trkpt>
      <trkpt lat="44.87087" lon="3.39035">
        <ele>1177.3</ele>
        <time>2022-06-09T12:41:51Z</time>
      </trkpt>
      <trkpt lat="44.87085" lon="3.3903">
        <ele>1177.4</ele>
        <time>2022-06-09T12:41:55Z</time>
      </trkpt>
      <trkpt lat="44.87082" lon="3.39024">
        <ele>1178.2</ele>
        <time>2022-06-09T12:41:59Z</time>
      </trkpt>
      <trkpt lat="44.87081" lon="3.39016">
        <ele>1177.8</ele>
        <time>2022-06-09T12:42:04Z</time>
      </trkpt>
      <trkpt lat="44.87079" lon="3.39009">
        <ele>1178</ele>
        <time>2022-06-09T12:42:09Z</time>
      </trkpt>
      <trkpt lat="44.87079" lon="3.39002">
        <ele>1177.8</ele>
        <time>2022-06-09T12:42:14Z</time>
      </trkpt>
      <trkpt lat="44.87079" lon="3.38994">
        <ele>1177.8</ele>
        <time>2022-06-09T12:42:19Z</time>
      </trkpt>
      <trkpt lat="44.87078" lon="3.38987">
        <ele>1178.3</ele>
        <time>2022-06-09T12:42:24Z</time>
      </trkpt>
      <trkpt lat="44.87078" lon="3.3898">
        <ele>1178.9</ele>
        <time>2022-06-09T12:42:28Z</time>
      </trkpt>
      <trkpt lat="44.87078" lon="3.38973">
        <ele>1178.9</ele>
        <time>2022-06-09T12:42:32Z</time>
      </trkpt>
      <trkpt lat="44.87079" lon="3.38966">
        <ele>1177.4</ele>
        <time>2022-06-09T12:42:36Z</time>
      </trkpt>
      <trkpt lat="44.8708" lon="3.38959">
        <ele>1175.6</ele>
        <time>2022-06-09T12:42:40Z</time>
      </trkpt>
      <trkpt lat="44.8708" lon="3.38951">
        <ele>1175.1</ele>
        <time>2022-06-09T12:42:45Z</time>
      </trkpt>
      <trkpt lat="44.8708" lon="3.38944">
        <ele>1175.7</ele>
        <time>2022-06-09T12:42:50Z</time>
      </trkpt>
      <trkpt lat="44.8708" lon="3.38937">
        <ele>1176.3</ele>
        <time>2022-06-09T12:42:55Z</time>
      </trkpt>
      <trkpt lat="44.87078" lon="3.38931">
        <ele>1175.8</ele>
        <time>2022-06-09T12:43:00Z</time>
      </trkpt>
      <trkpt lat="44.87076" lon="3.38924">
        <ele>1175.3</ele>
        <time>2022-06-09T12:43:05Z</time>
      </trkpt>
      <trkpt lat="44.87074" lon="3.38918">
        <ele>1175.8</ele>
        <time>2022-06-09T12:43:10Z</time>
      </trkpt>
      <trkpt lat="44.87072" lon="3.38911">
        <ele>1176.1</ele>
        <time>2022-06-09T12:43:15Z</time>
      </trkpt>
      <trkpt lat="44.87071" lon="3.38903">
        <ele>1176.3</ele>
        <time>2022-06-09T12:43:20Z</time>
      </trkpt>
      <trkpt lat="44.87069" lon="3.38897">
        <ele>1176.9</ele>
        <time>2022-06-09T12:43:25Z</time>
      </trkpt>
      <trkpt lat="44.87067" lon="3.38891">
        <ele>1178.7</ele>
        <time>2022-06-09T12:43:30Z</time>
      </trkpt>
      <trkpt lat="44.87066" lon="3.38884">
        <ele>1180.7</ele>
        <time>2022-06-09T12:43:35Z</time>
      </trkpt>
      <trkpt lat="44.87064" lon="3.38877">
        <ele>1181.6</ele>
        <time>2022-06-09T12:43:40Z</time>
      </trkpt>
      <trkpt lat="44.87062" lon="3.3887">
        <ele>1182.1</ele>
        <time>2022-06-09T12:43:45Z</time>
      </trkpt>
      <trkpt lat="44.8706" lon="3.38863">
        <ele>1181.8</ele>
        <time>2022-06-09T12:43:50Z</time>
      </trkpt>
      <trkpt lat="44.87058" lon="3.38857">
        <ele>1181.8</ele>
        <time>2022-06-09T12:43:54Z</time>
      </trkpt>
      <trkpt lat="44.87056" lon="3.3885">
        <ele>1181.5</ele>
        <time>2022-06-09T12:43:59Z</time>
      </trkpt>
      <trkpt lat="44.87054" lon="3.38843">
        <ele>1180.9</ele>
        <time>2022-06-09T12:44:04Z</time>
      </trkpt>
      <trkpt lat="44.87053" lon="3.38836">
        <ele>1181.1</ele>
        <time>2022-06-09T12:44:09Z</time>
      </trkpt>
      <trkpt lat="44.8705" lon="3.3883">
        <ele>1180.7</ele>
        <time>2022-06-09T12:44:14Z</time>
      </trkpt>
      <trkpt lat="44.87048" lon="3.38825">
        <ele>1180.9</ele>
        <time>2022-06-09T12:44:19Z</time>
      </trkpt>
      <trkpt lat="44.87046" lon="3.38819">
        <ele>1180.9</ele>
        <time>2022-06-09T12:44:24Z</time>
      </trkpt>
      <trkpt lat="44.87046" lon="3.38811">
        <ele>1180.1</ele>
        <time>2022-06-09T12:44:29Z</time>
      </trkpt>
      <trkpt lat="44.87046" lon="3.38805">
        <ele>1180</ele>
        <time>2022-06-09T12:44:33Z</time>
      </trkpt>
      <trkpt lat="44.87045" lon="3.38798">
        <ele>1178.4</ele>
        <time>2022-06-09T12:44:38Z</time>
      </trkpt>
      <trkpt lat="44.87042" lon="3.38792">
        <ele>1177</ele>
        <time>2022-06-09T12:44:44Z</time>
      </trkpt>
      <trkpt lat="44.87039" lon="3.38786">
        <ele>1176.2</ele>
        <time>2022-06-09T12:44:50Z</time>
      </trkpt>
      <trkpt lat="44.87036" lon="3.3878">
        <ele>1176.9</ele>
        <time>2022-06-09T12:44:56Z</time>
      </trkpt>
      <trkpt lat="44.87034" lon="3.38774">
        <ele>1176.4</ele>
        <time>2022-06-09T12:45:01Z</time>
      </trkpt>
      <trkpt lat="44.87031" lon="3.38768">
        <ele>1176.4</ele>
        <time>2022-06-09T12:45:06Z</time>
      </trkpt>
      <trkpt lat="44.8703" lon="3.38761">
        <ele>1177</ele>
        <time>2022-06-09T12:45:12Z</time>
      </trkpt>
      <trkpt lat="44.87028" lon="3.38755">
        <ele>1177.5</ele>
        <time>2022-06-09T12:45:18Z</time>
      </trkpt>
      <trkpt lat="44.87025" lon="3.38749">
        <ele>1178.1</ele>
        <time>2022-06-09T12:45:23Z</time>
      </trkpt>
      <trkpt lat="44.87022" lon="3.38743">
        <ele>1177.4</ele>
        <time>2022-06-09T12:45:27Z</time>
      </trkpt>
      <trkpt lat="44.8702" lon="3.38738">
        <ele>1177.4</ele>
        <time>2022-06-09T12:45:31Z</time>
      </trkpt>
      <trkpt lat="44.87017" lon="3.38731">
        <ele>1175.7</ele>
        <time>2022-06-09T12:45:36Z</time>
      </trkpt>
      <trkpt lat="44.87014" lon="3.38725">
        <ele>1175.3</ele>
        <time>2022-06-09T12:45:41Z</time>
      </trkpt>
      <trkpt lat="44.87011" lon="3.3872">
        <ele>1176.7</ele>
        <time>2022-06-09T12:45:46Z</time>
      </trkpt>
      <trkpt lat="44.87008" lon="3.38714">
        <ele>1178.1</ele>
        <time>2022-06-09T12:45:52Z</time>
      </trkpt>
      <trkpt lat="44.87005" lon="3.38709">
        <ele>1177.4</ele>
        <time>2022-06-09T12:45:57Z</time>
      </trkpt>
      <trkpt lat="44.87001" lon="3.38705">
        <ele>1176.4</ele>
        <time>2022-06-09T12:46:02Z</time>
      </trkpt>
      <trkpt lat="44.86997" lon="3.38701">
        <ele>1176.8</ele>
        <time>2022-06-09T12:46:07Z</time>
      </trkpt>
      <trkpt lat="44.86994" lon="3.38696">
        <ele>1177.3</ele>
        <time>2022-06-09T12:46:12Z</time>
      </trkpt>
      <trkpt lat="44.8699" lon="3.3869">
        <ele>1177.2</ele>
        <time>2022-06-09T12:46:18Z</time>
      </trkpt>
      <trkpt lat="44.86988" lon="3.38685">
        <ele>1176.9</ele>
        <time>2022-06-09T12:46:24Z</time>
      </trkpt>
      <trkpt lat="44.86984" lon="3.38681">
        <ele>1177.5</ele>
        <time>2022-06-09T12:46:30Z</time>
      </trkpt>
      <trkpt lat="44.86982" lon="3.38676">
        <ele>1178.3</ele>
        <time>2022-06-09T12:46:38Z</time>
      </trkpt>
      <trkpt lat="44.86982" lon="3.38669">
        <ele>1181</ele>
        <time>2022-06-09T12:46:47Z</time>
      </trkpt>
      <trkpt lat="44.8698" lon="3.38662">
        <ele>1181.1</ele>
        <time>2022-06-09T12:46:54Z</time>
      </trkpt>
      <trkpt lat="44.86977" lon="3.38657">
        <ele>1180.7</ele>
        <time>2022-06-09T12:46:59Z</time>
      </trkpt>
      <trkpt lat="44.86976" lon="3.3865">
        <ele>1177.4</ele>
        <time>2022-06-09T12:47:09Z</time>
      </trkpt>
      <trkpt lat="44.86974" lon="3.38645">
        <ele>1177.6</ele>
        <time>2022-06-09T12:47:20Z</time>
      </trkpt>
      <trkpt lat="44.86969" lon="3.38643">
        <ele>1183.9</ele>
        <time>2022-06-09T12:49:01Z</time>
      </trkpt>
      <trkpt lat="44.86965" lon="3.38644">
        <ele>1180.9</ele>
        <time>2022-06-09T12:50:41Z</time>
      </trkpt>
      <trkpt lat="44.86962" lon="3.38639">
        <ele>1185.6</ele>
        <time>2022-06-09T13:25:35Z</time>
      </trkpt>
      <trkpt lat="44.86958" lon="3.38638">
        <ele>1185.2</ele>
        <time>2022-06-09T13:25:42Z</time>
      </trkpt>
      <trkpt lat="44.86953" lon="3.38636">
        <ele>1186.1</ele>
        <time>2022-06-09T13:25:49Z</time>
      </trkpt>
      <trkpt lat="44.86949" lon="3.38637">
        <ele>1187.1</ele>
        <time>2022-06-09T13:25:55Z</time>
      </trkpt>
      <trkpt lat="44.86944" lon="3.38637">
        <ele>1187.1</ele>
        <time>2022-06-09T13:26:02Z</time>
      </trkpt>
      <trkpt lat="44.86939" lon="3.3864">
        <ele>1188.6</ele>
        <time>2022-06-09T13:26:09Z</time>
      </trkpt>
      <trkpt lat="44.86934" lon="3.38643">
        <ele>1188.8</ele>
        <time>2022-06-09T13:26:14Z</time>
      </trkpt>
      <trkpt lat="44.8693" lon="3.38648">
        <ele>1190.1</ele>
        <time>2022-06-09T13:26:19Z</time>
      </trkpt>
      <trkpt lat="44.86926" lon="3.38652">
        <ele>1190.3</ele>
        <time>2022-06-09T13:26:24Z</time>
      </trkpt>
      <trkpt lat="44.86921" lon="3.38655">
        <ele>1190.4</ele>
        <time>2022-06-09T13:26:28Z</time>
      </trkpt>
      <trkpt lat="44.86917" lon="3.38659">
        <ele>1190.8</ele>
        <time>2022-06-09T13:26:32Z</time>
      </trkpt>
      <trkpt lat="44.86914" lon="3.38663">
        <ele>1191.1</ele>
        <time>2022-06-09T13:26:36Z</time>
      </trkpt>
      <trkpt lat="44.8691" lon="3.38667">
        <ele>1190.9</ele>
        <time>2022-06-09T13:26:40Z</time>
      </trkpt>
      <trkpt lat="44.86907" lon="3.38673">
        <ele>1191.5</ele>
        <time>2022-06-09T13:26:46Z</time>
      </trkpt>
      <trkpt lat="44.86904" lon="3.38679">
        <ele>1190.1</ele>
        <time>2022-06-09T13:26:51Z</time>
      </trkpt>
      <trkpt lat="44.86902" lon="3.38685">
        <ele>1190.3</ele>
        <time>2022-06-09T13:26:56Z</time>
      </trkpt>
      <trkpt lat="44.86898" lon="3.38691">
        <ele>1192.4</ele>
        <time>2022-06-09T13:27:02Z</time>
      </trkpt>
      <trkpt lat="44.86894" lon="3.38693">
        <ele>1194</ele>
        <time>2022-06-09T13:27:07Z</time>
      </trkpt>
      <trkpt lat="44.86889" lon="3.38697">
        <ele>1195.4</ele>
        <time>2022-06-09T13:27:13Z</time>
      </trkpt>
      <trkpt lat="44.86886" lon="3.38701">
        <ele>1197.1</ele>
        <time>2022-06-09T13:27:20Z</time>
      </trkpt>
      <trkpt lat="44.86881" lon="3.38704">
        <ele>1197.3</ele>
        <time>2022-06-09T13:27:25Z</time>
      </trkpt>
      <trkpt lat="44.86876" lon="3.38705">
        <ele>1196.8</ele>
        <time>2022-06-09T13:27:34Z</time>
      </trkpt>
      <trkpt lat="44.86871" lon="3.38706">
        <ele>1197.4</ele>
        <time>2022-06-09T13:27:41Z</time>
      </trkpt>
      <trkpt lat="44.86867" lon="3.38707">
        <ele>1197</ele>
        <time>2022-06-09T13:27:46Z</time>
      </trkpt>
      <trkpt lat="44.86862" lon="3.38708">
        <ele>1198.3</ele>
        <time>2022-06-09T13:27:53Z</time>
      </trkpt>
      <trkpt lat="44.86857" lon="3.38705">
        <ele>1198.8</ele>
        <time>2022-06-09T13:28:00Z</time>
      </trkpt>
      <trkpt lat="44.86852" lon="3.38705">
        <ele>1198.9</ele>
        <time>2022-06-09T13:28:06Z</time>
      </trkpt>
      <trkpt lat="44.86848" lon="3.38705">
        <ele>1199.2</ele>
        <time>2022-06-09T13:28:11Z</time>
      </trkpt>
      <trkpt lat="44.86843" lon="3.38705">
        <ele>1198.8</ele>
        <time>2022-06-09T13:28:16Z</time>
      </trkpt>
      <trkpt lat="44.86838" lon="3.38704">
        <ele>1198.4</ele>
        <time>2022-06-09T13:28:21Z</time>
      </trkpt>
      <trkpt lat="44.86832" lon="3.38705">
        <ele>1198.1</ele>
        <time>2022-06-09T13:28:28Z</time>
      </trkpt>
      <trkpt lat="44.86827" lon="3.38703">
        <ele>1197.4</ele>
        <time>2022-06-09T13:28:33Z</time>
      </trkpt>
      <trkpt lat="44.86822" lon="3.38703">
        <ele>1196.8</ele>
        <time>2022-06-09T13:28:37Z</time>
      </trkpt>
      <trkpt lat="44.86817" lon="3.38703">
        <ele>1197.3</ele>
        <time>2022-06-09T13:28:40Z</time>
      </trkpt>
      <trkpt lat="44.86813" lon="3.38702">
        <ele>1197</ele>
        <time>2022-06-09T13:28:45Z</time>
      </trkpt>
      <trkpt lat="44.86808" lon="3.38701">
        <ele>1196</ele>
        <time>2022-06-09T13:28:50Z</time>
      </trkpt>
      <trkpt lat="44.86802" lon="3.38699">
        <ele>1195.1</ele>
        <time>2022-06-09T13:28:55Z</time>
      </trkpt>
      <trkpt lat="44.86797" lon="3.38698">
        <ele>1195.2</ele>
        <time>2022-06-09T13:28:59Z</time>
      </trkpt>
      <trkpt lat="44.86792" lon="3.38698">
        <ele>1195.2</ele>
        <time>2022-06-09T13:29:04Z</time>
      </trkpt>
      <trkpt lat="44.86788" lon="3.38698">
        <ele>1195.3</ele>
        <time>2022-06-09T13:29:09Z</time>
      </trkpt>
      <trkpt lat="44.86783" lon="3.38697">
        <ele>1194.5</ele>
        <time>2022-06-09T13:29:12Z</time>
      </trkpt>
      <trkpt lat="44.86778" lon="3.38695">
        <ele>1192.5</ele>
        <time>2022-06-09T13:29:17Z</time>
      </trkpt>
      <trkpt lat="44.86774" lon="3.38694">
        <ele>1192.1</ele>
        <time>2022-06-09T13:29:22Z</time>
      </trkpt>
      <trkpt lat="44.86769" lon="3.38693">
        <ele>1191.3</ele>
        <time>2022-06-09T13:29:27Z</time>
      </trkpt>
      <trkpt lat="44.86764" lon="3.38694">
        <ele>1191.4</ele>
        <time>2022-06-09T13:29:33Z</time>
      </trkpt>
      <trkpt lat="44.86759" lon="3.38695">
        <ele>1191</ele>
        <time>2022-06-09T13:29:39Z</time>
      </trkpt>
      <trkpt lat="44.86754" lon="3.38696">
        <ele>1189.3</ele>
        <time>2022-06-09T13:29:46Z</time>
      </trkpt>
      <trkpt lat="44.8675" lon="3.38697">
        <ele>1189.2</ele>
        <time>2022-06-09T13:29:51Z</time>
      </trkpt>
      <trkpt lat="44.86745" lon="3.38699">
        <ele>1190.9</ele>
        <time>2022-06-09T13:29:57Z</time>
      </trkpt>
      <trkpt lat="44.8674" lon="3.38698">
        <ele>1190.8</ele>
        <time>2022-06-09T13:30:02Z</time>
      </trkpt>
      <trkpt lat="44.86735" lon="3.38694">
        <ele>1190.1</ele>
        <time>2022-06-09T13:30:09Z</time>
      </trkpt>
      <trkpt lat="44.86732" lon="3.3869">
        <ele>1190</ele>
        <time>2022-06-09T13:30:23Z</time>
      </trkpt>
      <trkpt lat="44.86728" lon="3.38686">
        <ele>1191.4</ele>
        <time>2022-06-09T13:30:27Z</time>
      </trkpt>
      <trkpt lat="44.86723" lon="3.38685">
        <ele>1192.3</ele>
        <time>2022-06-09T13:30:30Z</time>
      </trkpt>
      <trkpt lat="44.86718" lon="3.38684">
        <ele>1192.7</ele>
        <time>2022-06-09T13:30:35Z</time>
      </trkpt>
      <trkpt lat="44.86713" lon="3.38684">
        <ele>1193.9</ele>
        <time>2022-06-09T13:30:40Z</time>
      </trkpt>
      <trkpt lat="44.86708" lon="3.38683">
        <ele>1194.2</ele>
        <time>2022-06-09T13:30:44Z</time>
      </trkpt>
      <trkpt lat="44.86703" lon="3.3868">
        <ele>1194.8</ele>
        <time>2022-06-09T13:30:49Z</time>
      </trkpt>
      <trkpt lat="44.86698" lon="3.38678">
        <ele>1194.6</ele>
        <time>2022-06-09T13:30:53Z</time>
      </trkpt>
      <trkpt lat="44.86694" lon="3.38676">
        <ele>1195</ele>
        <time>2022-06-09T13:30:58Z</time>
      </trkpt>
      <trkpt lat="44.86689" lon="3.38673">
        <ele>1194.3</ele>
        <time>2022-06-09T13:31:05Z</time>
      </trkpt>
      <trkpt lat="44.86685" lon="3.3867">
        <ele>1193.9</ele>
        <time>2022-06-09T13:31:08Z</time>
      </trkpt>
      <trkpt lat="44.86681" lon="3.38667">
        <ele>1192.6</ele>
        <time>2022-06-09T13:31:14Z</time>
      </trkpt>
      <trkpt lat="44.86676" lon="3.38664">
        <ele>1190.4</ele>
        <time>2022-06-09T13:31:21Z</time>
      </trkpt>
      <trkpt lat="44.86671" lon="3.38661">
        <ele>1188.7</ele>
        <time>2022-06-09T13:31:27Z</time>
      </trkpt>
      <trkpt lat="44.86665" lon="3.3866">
        <ele>1187.7</ele>
        <time>2022-06-09T13:31:32Z</time>
      </trkpt>
      <trkpt lat="44.8666" lon="3.38659">
        <ele>1185.6</ele>
        <time>2022-06-09T13:31:36Z</time>
      </trkpt>
      <trkpt lat="44.86656" lon="3.38658">
        <ele>1184.4</ele>
        <time>2022-06-09T13:31:40Z</time>
      </trkpt>
      <trkpt lat="44.86651" lon="3.38657">
        <ele>1183.9</ele>
        <time>2022-06-09T13:31:45Z</time>
      </trkpt>
      <trkpt lat="44.86646" lon="3.38655">
        <ele>1182.3</ele>
        <time>2022-06-09T13:31:51Z</time>
      </trkpt>
      <trkpt lat="44.86641" lon="3.38653">
        <ele>1181.9</ele>
        <time>2022-06-09T13:31:57Z</time>
      </trkpt>
      <trkpt lat="44.86636" lon="3.38651">
        <ele>1180.4</ele>
        <time>2022-06-09T13:32:02Z</time>
      </trkpt>
      <trkpt lat="44.86632" lon="3.38649">
        <ele>1178.9</ele>
        <time>2022-06-09T13:32:07Z</time>
      </trkpt>
      <trkpt lat="44.86627" lon="3.38647">
        <ele>1178.6</ele>
        <time>2022-06-09T13:32:12Z</time>
      </trkpt>
      <trkpt lat="44.86623" lon="3.38644">
        <ele>1178.7</ele>
        <time>2022-06-09T13:32:17Z</time>
      </trkpt>
      <trkpt lat="44.86618" lon="3.38646">
        <ele>1179.3</ele>
        <time>2022-06-09T13:32:21Z</time>
      </trkpt>
      <trkpt lat="44.86619" lon="3.38653">
        <ele>1179.6</ele>
        <time>2022-06-09T13:32:30Z</time>
      </trkpt>
      <trkpt lat="44.86618" lon="3.3866">
        <ele>1180.7</ele>
        <time>2022-06-09T13:32:35Z</time>
      </trkpt>
      <trkpt lat="44.86618" lon="3.38667">
        <ele>1181.8</ele>
        <time>2022-06-09T13:32:41Z</time>
      </trkpt>
      <trkpt lat="44.86619" lon="3.38674">
        <ele>1182.5</ele>
        <time>2022-06-09T13:32:47Z</time>
      </trkpt>
      <trkpt lat="44.86622" lon="3.3868">
        <ele>1182.5</ele>
        <time>2022-06-09T13:32:53Z</time>
      </trkpt>
      <trkpt lat="44.86625" lon="3.38685">
        <ele>1182.2</ele>
        <time>2022-06-09T13:32:56Z</time>
      </trkpt>
      <trkpt lat="44.86627" lon="3.38691">
        <ele>1181.4</ele>
        <time>2022-06-09T13:33:00Z</time>
      </trkpt>
      <trkpt lat="44.8663" lon="3.38698">
        <ele>1181</ele>
        <time>2022-06-09T13:33:05Z</time>
      </trkpt>
      <trkpt lat="44.86633" lon="3.38703">
        <ele>1181.4</ele>
        <time>2022-06-09T13:33:13Z</time>
      </trkpt>
      <trkpt lat="44.86637" lon="3.38707">
        <ele>1180.6</ele>
        <time>2022-06-09T13:33:20Z</time>
      </trkpt>
      <trkpt lat="44.8664" lon="3.38712">
        <ele>1179.2</ele>
        <time>2022-06-09T13:33:23Z</time>
      </trkpt>
      <trkpt lat="44.86643" lon="3.38717">
        <ele>1179.8</ele>
        <time>2022-06-09T13:33:28Z</time>
      </trkpt>
      <trkpt lat="44.86646" lon="3.38723">
        <ele>1181.1</ele>
        <time>2022-06-09T13:33:35Z</time>
      </trkpt>
      <trkpt lat="44.8665" lon="3.38727">
        <ele>1184.2</ele>
        <time>2022-06-09T13:33:47Z</time>
      </trkpt>
      <trkpt lat="44.86653" lon="3.38733">
        <ele>1185.6</ele>
        <time>2022-06-09T13:33:54Z</time>
      </trkpt>
      <trkpt lat="44.86654" lon="3.3874">
        <ele>1187.8</ele>
        <time>2022-06-09T13:34:00Z</time>
      </trkpt>
      <trkpt lat="44.86655" lon="3.38747">
        <ele>1188.7</ele>
        <time>2022-06-09T13:34:07Z</time>
      </trkpt>
      <trkpt lat="44.86655" lon="3.38753">
        <ele>1188.7</ele>
        <time>2022-06-09T13:34:12Z</time>
      </trkpt>
      <trkpt lat="44.86653" lon="3.3876">
        <ele>1189.1</ele>
        <time>2022-06-09T13:34:17Z</time>
      </trkpt>
      <trkpt lat="44.86651" lon="3.38767">
        <ele>1189.7</ele>
        <time>2022-06-09T13:34:23Z</time>
      </trkpt>
      <trkpt lat="44.86647" lon="3.38771">
        <ele>1191.6</ele>
        <time>2022-06-09T13:34:32Z</time>
      </trkpt>
      <trkpt lat="44.86642" lon="3.38773">
        <ele>1191.8</ele>
        <time>2022-06-09T13:34:38Z</time>
      </trkpt>
      <trkpt lat="44.86639" lon="3.38778">
        <ele>1192</ele>
        <time>2022-06-09T13:34:46Z</time>
      </trkpt>
      <trkpt lat="44.86635" lon="3.38783">
        <ele>1191.7</ele>
        <time>2022-06-09T13:34:50Z</time>
      </trkpt>
      <trkpt lat="44.86631" lon="3.38787">
        <ele>1190.9</ele>
        <time>2022-06-09T13:34:55Z</time>
      </trkpt>
      <trkpt lat="44.86626" lon="3.38789">
        <ele>1190</ele>
        <time>2022-06-09T13:35:01Z</time>
      </trkpt>
      <trkpt lat="44.86621" lon="3.38792">
        <ele>1187.9</ele>
        <time>2022-06-09T13:35:07Z</time>
      </trkpt>
      <trkpt lat="44.86616" lon="3.38793">
        <ele>1186.4</ele>
        <time>2022-06-09T13:35:13Z</time>
      </trkpt>
      <trkpt lat="44.86612" lon="3.38796">
        <ele>1185.7</ele>
        <time>2022-06-09T13:35:18Z</time>
      </trkpt>
      <trkpt lat="44.86608" lon="3.388">
        <ele>1185</ele>
        <time>2022-06-09T13:35:23Z</time>
      </trkpt>
      <trkpt lat="44.86603" lon="3.38801">
        <ele>1183.2</ele>
        <time>2022-06-09T13:35:30Z</time>
      </trkpt>
      <trkpt lat="44.86598" lon="3.38803">
        <ele>1181.7</ele>
        <time>2022-06-09T13:35:36Z</time>
      </trkpt>
      <trkpt lat="44.86594" lon="3.38806">
        <ele>1179.9</ele>
        <time>2022-06-09T13:35:40Z</time>
      </trkpt>
      <trkpt lat="44.86589" lon="3.38809">
        <ele>1179.1</ele>
        <time>2022-06-09T13:35:44Z</time>
      </trkpt>
      <trkpt lat="44.86585" lon="3.38813">
        <ele>1179.4</ele>
        <time>2022-06-09T13:35:49Z</time>
      </trkpt>
      <trkpt lat="44.86582" lon="3.38818">
        <ele>1180.7</ele>
        <time>2022-06-09T13:35:55Z</time>
      </trkpt>
      <trkpt lat="44.86578" lon="3.38823">
        <ele>1181.3</ele>
        <time>2022-06-09T13:36:01Z</time>
      </trkpt>
      <trkpt lat="44.86575" lon="3.38829">
        <ele>1182.4</ele>
        <time>2022-06-09T13:36:07Z</time>
      </trkpt>
      <trkpt lat="44.86573" lon="3.38835">
        <ele>1184.4</ele>
        <time>2022-06-09T13:36:13Z</time>
      </trkpt>
      <trkpt lat="44.8657" lon="3.38841">
        <ele>1183.9</ele>
        <time>2022-06-09T13:36:19Z</time>
      </trkpt>
      <trkpt lat="44.86565" lon="3.38844">
        <ele>1183.5</ele>
        <time>2022-06-09T13:36:26Z</time>
      </trkpt>
      <trkpt lat="44.86561" lon="3.38846">
        <ele>1169</ele>
        <time>2022-06-09T13:36:30Z</time>
      </trkpt>
      <trkpt lat="44.86556" lon="3.38848">
        <ele>1174.9</ele>
        <time>2022-06-09T13:36:35Z</time>
      </trkpt>
      <trkpt lat="44.86552" lon="3.38851">
        <ele>1180.6</ele>
        <time>2022-06-09T13:36:44Z</time>
      </trkpt>
      <trkpt lat="44.86548" lon="3.38852">
        <ele>1181.9</ele>
        <time>2022-06-09T13:36:51Z</time>
      </trkpt>
      <trkpt lat="44.86544" lon="3.38851">
        <ele>1180.5</ele>
        <time>2022-06-09T13:36:59Z</time>
      </trkpt>
      <trkpt lat="44.86539" lon="3.38849">
        <ele>1179.5</ele>
        <time>2022-06-09T13:37:07Z</time>
      </trkpt>
      <trkpt lat="44.86534" lon="3.38853">
        <ele>1179.7</ele>
        <time>2022-06-09T13:37:14Z</time>
      </trkpt>
      <trkpt lat="44.8653" lon="3.38856">
        <ele>1179.6</ele>
        <time>2022-06-09T13:37:18Z</time>
      </trkpt>
      <trkpt lat="44.86525" lon="3.38858">
        <ele>1179.8</ele>
        <time>2022-06-09T13:37:23Z</time>
      </trkpt>
      <trkpt lat="44.86521" lon="3.3886">
        <ele>1178.7</ele>
        <time>2022-06-09T13:37:29Z</time>
      </trkpt>
      <trkpt lat="44.86517" lon="3.38863">
        <ele>1179.1</ele>
        <time>2022-06-09T13:37:33Z</time>
      </trkpt>
      <trkpt lat="44.86512" lon="3.38864">
        <ele>1179.1</ele>
        <time>2022-06-09T13:37:38Z</time>
      </trkpt>
      <trkpt lat="44.86506" lon="3.38865">
        <ele>1176.7</ele>
        <time>2022-06-09T13:37:44Z</time>
      </trkpt>
      <trkpt lat="44.86502" lon="3.38861">
        <ele>1175.2</ele>
        <time>2022-06-09T13:37:49Z</time>
      </trkpt>
      <trkpt lat="44.86498" lon="3.38857">
        <ele>1162.5</ele>
        <time>2022-06-09T13:37:54Z</time>
      </trkpt>
      <trkpt lat="44.86493" lon="3.38857">
        <ele>1164.7</ele>
        <time>2022-06-09T13:37:58Z</time>
      </trkpt>
      <trkpt lat="44.86488" lon="3.38859">
        <ele>1167.1</ele>
        <time>2022-06-09T13:38:03Z</time>
      </trkpt>
      <trkpt lat="44.86484" lon="3.38862">
        <ele>1169.4</ele>
        <time>2022-06-09T13:38:10Z</time>
      </trkpt>
      <trkpt lat="44.86481" lon="3.38867">
        <ele>1174</ele>
        <time>2022-06-09T13:38:18Z</time>
      </trkpt>
      <trkpt lat="44.86479" lon="3.38873">
        <ele>1178.2</ele>
        <time>2022-06-09T13:38:26Z</time>
      </trkpt>
      <trkpt lat="44.86476" lon="3.38878">
        <ele>1181.5</ele>
        <time>2022-06-09T13:38:31Z</time>
      </trkpt>
      <trkpt lat="44.86471" lon="3.3888">
        <ele>1181.5</ele>
        <time>2022-06-09T13:38:35Z</time>
      </trkpt>
      <trkpt lat="44.86466" lon="3.38881">
        <ele>1180</ele>
        <time>2022-06-09T13:38:39Z</time>
      </trkpt>
      <trkpt lat="44.86461" lon="3.38883">
        <ele>1178.8</ele>
        <time>2022-06-09T13:38:44Z</time>
      </trkpt>
      <trkpt lat="44.86458" lon="3.38888">
        <ele>1181</ele>
        <time>2022-06-09T13:38:55Z</time>
      </trkpt>
      <trkpt lat="44.86453" lon="3.38892">
        <ele>1182.3</ele>
        <time>2022-06-09T13:39:01Z</time>
      </trkpt>
      <trkpt lat="44.86449" lon="3.38894">
        <ele>1182</ele>
        <time>2022-06-09T13:39:05Z</time>
      </trkpt>
      <trkpt lat="44.86443" lon="3.38895">
        <ele>1180.7</ele>
        <time>2022-06-09T13:39:10Z</time>
      </trkpt>
      <trkpt lat="44.86439" lon="3.38898">
        <ele>1180.8</ele>
        <time>2022-06-09T13:39:16Z</time>
      </trkpt>
      <trkpt lat="44.86434" lon="3.38901">
        <ele>1181.5</ele>
        <time>2022-06-09T13:39:34Z</time>
      </trkpt>
      <trkpt lat="44.86429" lon="3.38904">
        <ele>1181.9</ele>
        <time>2022-06-09T13:39:41Z</time>
      </trkpt>
      <trkpt lat="44.86424" lon="3.38905">
        <ele>1181.4</ele>
        <time>2022-06-09T13:39:46Z</time>
      </trkpt>
      <trkpt lat="44.86419" lon="3.38906">
        <ele>1180.5</ele>
        <time>2022-06-09T13:39:50Z</time>
      </trkpt>
      <trkpt lat="44.86413" lon="3.38906">
        <ele>1180.6</ele>
        <time>2022-06-09T13:39:55Z</time>
      </trkpt>
      <trkpt lat="44.86409" lon="3.38908">
        <ele>1181.6</ele>
        <time>2022-06-09T13:40:00Z</time>
      </trkpt>
      <trkpt lat="44.86403" lon="3.38911">
        <ele>1182.8</ele>
        <time>2022-06-09T13:40:05Z</time>
      </trkpt>
      <trkpt lat="44.86399" lon="3.38913">
        <ele>1183.7</ele>
        <time>2022-06-09T13:40:08Z</time>
      </trkpt>
      <trkpt lat="44.86394" lon="3.38915">
        <ele>1182.6</ele>
        <time>2022-06-09T13:40:13Z</time>
      </trkpt>
      <trkpt lat="44.86389" lon="3.38916">
        <ele>1181.6</ele>
        <time>2022-06-09T13:40:18Z</time>
      </trkpt>
      <trkpt lat="44.86384" lon="3.38918">
        <ele>1180</ele>
        <time>2022-06-09T13:40:25Z</time>
      </trkpt>
      <trkpt lat="44.86379" lon="3.3892">
        <ele>1180.6</ele>
        <time>2022-06-09T13:40:31Z</time>
      </trkpt>
      <trkpt lat="44.86375" lon="3.38922">
        <ele>1181.2</ele>
        <time>2022-06-09T13:40:34Z</time>
      </trkpt>
      <trkpt lat="44.8637" lon="3.38924">
        <ele>1183</ele>
        <time>2022-06-09T13:40:40Z</time>
      </trkpt>
      <trkpt lat="44.86366" lon="3.38927">
        <ele>1184.2</ele>
        <time>2022-06-09T13:40:44Z</time>
      </trkpt>
      <trkpt lat="44.86361" lon="3.3893">
        <ele>1183.7</ele>
        <time>2022-06-09T13:40:48Z</time>
      </trkpt>
      <trkpt lat="44.86356" lon="3.38932">
        <ele>1183.6</ele>
        <time>2022-06-09T13:40:52Z</time>
      </trkpt>
      <trkpt lat="44.86352" lon="3.38935">
        <ele>1183</ele>
        <time>2022-06-09T13:40:57Z</time>
      </trkpt>
      <trkpt lat="44.86348" lon="3.38939">
        <ele>1183.5</ele>
        <time>2022-06-09T13:41:02Z</time>
      </trkpt>
      <trkpt lat="44.86344" lon="3.38944">
        <ele>1184.5</ele>
        <time>2022-06-09T13:41:13Z</time>
      </trkpt>
      <trkpt lat="44.8634" lon="3.38947">
        <ele>1185.6</ele>
        <time>2022-06-09T13:41:18Z</time>
      </trkpt>
      <trkpt lat="44.86337" lon="3.38951">
        <ele>1185.9</ele>
        <time>2022-06-09T13:41:26Z</time>
      </trkpt>
      <trkpt lat="44.86333" lon="3.38955">
        <ele>1185.6</ele>
        <time>2022-06-09T13:41:32Z</time>
      </trkpt>
      <trkpt lat="44.86328" lon="3.38958">
        <ele>1185.9</ele>
        <time>2022-06-09T13:41:37Z</time>
      </trkpt>
      <trkpt lat="44.86324" lon="3.38961">
        <ele>1185.6</ele>
        <time>2022-06-09T13:41:41Z</time>
      </trkpt>
      <trkpt lat="44.8632" lon="3.38964">
        <ele>1185.5</ele>
        <time>2022-06-09T13:41:44Z</time>
      </trkpt>
      <trkpt lat="44.86316" lon="3.38966">
        <ele>1185</ele>
        <time>2022-06-09T13:41:48Z</time>
      </trkpt>
      <trkpt lat="44.86311" lon="3.38967">
        <ele>1184.8</ele>
        <time>2022-06-09T13:41:54Z</time>
      </trkpt>
      <trkpt lat="44.86306" lon="3.38968">
        <ele>1185.3</ele>
        <time>2022-06-09T13:41:58Z</time>
      </trkpt>
      <trkpt lat="44.86301" lon="3.38968">
        <ele>1185.3</ele>
        <time>2022-06-09T13:42:03Z</time>
      </trkpt>
      <trkpt lat="44.86296" lon="3.38969">
        <ele>1185.3</ele>
        <time>2022-06-09T13:42:07Z</time>
      </trkpt>
      <trkpt lat="44.8629" lon="3.3897">
        <ele>1185.1</ele>
        <time>2022-06-09T13:42:11Z</time>
      </trkpt>
      <trkpt lat="44.86286" lon="3.38971">
        <ele>1184.8</ele>
        <time>2022-06-09T13:42:15Z</time>
      </trkpt>
      <trkpt lat="44.86281" lon="3.38972">
        <ele>1184.3</ele>
        <time>2022-06-09T13:42:19Z</time>
      </trkpt>
      <trkpt lat="44.86276" lon="3.38971">
        <ele>1182.3</ele>
        <time>2022-06-09T13:42:24Z</time>
      </trkpt>
      <trkpt lat="44.86271" lon="3.3897">
        <ele>1181.6</ele>
        <time>2022-06-09T13:42:28Z</time>
      </trkpt>
      <trkpt lat="44.86267" lon="3.38971">
        <ele>1182.4</ele>
        <time>2022-06-09T13:42:33Z</time>
      </trkpt>
      <trkpt lat="44.86262" lon="3.38972">
        <ele>1182.5</ele>
        <time>2022-06-09T13:42:39Z</time>
      </trkpt>
      <trkpt lat="44.86257" lon="3.38974">
        <ele>1182.7</ele>
        <time>2022-06-09T13:42:43Z</time>
      </trkpt>
      <trkpt lat="44.86252" lon="3.38975">
        <ele>1183</ele>
        <time>2022-06-09T13:42:47Z</time>
      </trkpt>
      <trkpt lat="44.86247" lon="3.38975">
        <ele>1183.7</ele>
        <time>2022-06-09T13:42:51Z</time>
      </trkpt>
      <trkpt lat="44.86242" lon="3.38976">
        <ele>1184.4</ele>
        <time>2022-06-09T13:42:58Z</time>
      </trkpt>
      <trkpt lat="44.86238" lon="3.38976">
        <ele>1183.6</ele>
        <time>2022-06-09T13:43:03Z</time>
      </trkpt>
      <trkpt lat="44.86233" lon="3.38978">
        <ele>1183.6</ele>
        <time>2022-06-09T13:43:07Z</time>
      </trkpt>
      <trkpt lat="44.86228" lon="3.38978">
        <ele>1183</ele>
        <time>2022-06-09T13:43:11Z</time>
      </trkpt>
      <trkpt lat="44.86223" lon="3.38979">
        <ele>1182.6</ele>
        <time>2022-06-09T13:43:16Z</time>
      </trkpt>
      <trkpt lat="44.86218" lon="3.3898">
        <ele>1182.8</ele>
        <time>2022-06-09T13:43:21Z</time>
      </trkpt>
      <trkpt lat="44.86213" lon="3.38981">
        <ele>1183.5</ele>
        <time>2022-06-09T13:43:25Z</time>
      </trkpt>
      <trkpt lat="44.86209" lon="3.38983">
        <ele>1183.9</ele>
        <time>2022-06-09T13:43:29Z</time>
      </trkpt>
      <trkpt lat="44.86203" lon="3.38984">
        <ele>1183.8</ele>
        <time>2022-06-09T13:43:34Z</time>
      </trkpt>
      <trkpt lat="44.86199" lon="3.38985">
        <ele>1184.2</ele>
        <time>2022-06-09T13:43:38Z</time>
      </trkpt>
      <trkpt lat="44.86194" lon="3.38987">
        <ele>1185.7</ele>
        <time>2022-06-09T13:43:43Z</time>
      </trkpt>
      <trkpt lat="44.86189" lon="3.3899">
        <ele>1187.3</ele>
        <time>2022-06-09T13:43:49Z</time>
      </trkpt>
      <trkpt lat="44.86185" lon="3.38994">
        <ele>1186.7</ele>
        <time>2022-06-09T13:43:55Z</time>
      </trkpt>
      <trkpt lat="44.86181" lon="3.38998">
        <ele>1186.1</ele>
        <time>2022-06-09T13:44:01Z</time>
      </trkpt>
      <trkpt lat="44.86176" lon="3.39">
        <ele>1185.1</ele>
        <time>2022-06-09T13:44:05Z</time>
      </trkpt>
      <trkpt lat="44.86171" lon="3.39002">
        <ele>1184</ele>
        <time>2022-06-09T13:44:09Z</time>
      </trkpt>
      <trkpt lat="44.86166" lon="3.39002">
        <ele>1183.3</ele>
        <time>2022-06-09T13:44:13Z</time>
      </trkpt>
      <trkpt lat="44.86161" lon="3.39003">
        <ele>1183.1</ele>
        <time>2022-06-09T13:44:17Z</time>
      </trkpt>
      <trkpt lat="44.86156" lon="3.39005">
        <ele>1184.1</ele>
        <time>2022-06-09T13:44:21Z</time>
      </trkpt>
      <trkpt lat="44.86151" lon="3.39008">
        <ele>1184</ele>
        <time>2022-06-09T13:44:27Z</time>
      </trkpt>
      <trkpt lat="44.86146" lon="3.3901">
        <ele>1183.5</ele>
        <time>2022-06-09T13:44:32Z</time>
      </trkpt>
      <trkpt lat="44.86141" lon="3.3901">
        <ele>1183.5</ele>
        <time>2022-06-09T13:44:36Z</time>
      </trkpt>
      <trkpt lat="44.86136" lon="3.39011">
        <ele>1184.4</ele>
        <time>2022-06-09T13:44:41Z</time>
      </trkpt>
      <trkpt lat="44.86132" lon="3.39015">
        <ele>1185.2</ele>
        <time>2022-06-09T13:44:46Z</time>
      </trkpt>
      <trkpt lat="44.86128" lon="3.39019">
        <ele>1184.8</ele>
        <time>2022-06-09T13:44:52Z</time>
      </trkpt>
      <trkpt lat="44.86123" lon="3.39023">
        <ele>1183.9</ele>
        <time>2022-06-09T13:44:57Z</time>
      </trkpt>
      <trkpt lat="44.86119" lon="3.39027">
        <ele>1184.5</ele>
        <time>2022-06-09T13:45:02Z</time>
      </trkpt>
      <trkpt lat="44.86115" lon="3.39031">
        <ele>1185.3</ele>
        <time>2022-06-09T13:45:06Z</time>
      </trkpt>
      <trkpt lat="44.8611" lon="3.39035">
        <ele>1185.3</ele>
        <time>2022-06-09T13:45:11Z</time>
      </trkpt>
      <trkpt lat="44.86105" lon="3.39038">
        <ele>1185</ele>
        <time>2022-06-09T13:45:16Z</time>
      </trkpt>
      <trkpt lat="44.86101" lon="3.39042">
        <ele>1183.8</ele>
        <time>2022-06-09T13:45:21Z</time>
      </trkpt>
      <trkpt lat="44.86097" lon="3.39045">
        <ele>1184.4</ele>
        <time>2022-06-09T13:45:27Z</time>
      </trkpt>
      <trkpt lat="44.86092" lon="3.39048">
        <ele>1184.7</ele>
        <time>2022-06-09T13:45:32Z</time>
      </trkpt>
      <trkpt lat="44.86088" lon="3.3905">
        <ele>1185.5</ele>
        <time>2022-06-09T13:45:38Z</time>
      </trkpt>
      <trkpt lat="44.86083" lon="3.39052">
        <ele>1184.8</ele>
        <time>2022-06-09T13:45:43Z</time>
      </trkpt>
      <trkpt lat="44.86079" lon="3.39056">
        <ele>1184.3</ele>
        <time>2022-06-09T13:45:47Z</time>
      </trkpt>
      <trkpt lat="44.86075" lon="3.39059">
        <ele>1185</ele>
        <time>2022-06-09T13:45:52Z</time>
      </trkpt>
      <trkpt lat="44.8607" lon="3.3906">
        <ele>1186.2</ele>
        <time>2022-06-09T13:45:57Z</time>
      </trkpt>
      <trkpt lat="44.86066" lon="3.39061">
        <ele>1184.8</ele>
        <time>2022-06-09T13:46:06Z</time>
      </trkpt>
      <trkpt lat="44.86061" lon="3.39062">
        <ele>1184.4</ele>
        <time>2022-06-09T13:46:14Z</time>
      </trkpt>
      <trkpt lat="44.86056" lon="3.39062">
        <ele>1184.3</ele>
        <time>2022-06-09T13:46:22Z</time>
      </trkpt>
      <trkpt lat="44.8605" lon="3.39063">
        <ele>1184.9</ele>
        <time>2022-06-09T13:46:28Z</time>
      </trkpt>
      <trkpt lat="44.86045" lon="3.39063">
        <ele>1185.4</ele>
        <time>2022-06-09T13:46:36Z</time>
      </trkpt>
      <trkpt lat="44.8604" lon="3.39065">
        <ele>1185.9</ele>
        <time>2022-06-09T13:46:41Z</time>
      </trkpt>
      <trkpt lat="44.86035" lon="3.39067">
        <ele>1187.2</ele>
        <time>2022-06-09T13:46:46Z</time>
      </trkpt>
      <trkpt lat="44.86031" lon="3.39069">
        <ele>1210.8</ele>
        <time>2022-06-09T13:46:52Z</time>
      </trkpt>
      <trkpt lat="44.86026" lon="3.39069">
        <ele>1206.4</ele>
        <time>2022-06-09T13:46:56Z</time>
      </trkpt>
      <trkpt lat="44.86021" lon="3.3907">
        <ele>1199.6</ele>
        <time>2022-06-09T13:47:01Z</time>
      </trkpt>
      <trkpt lat="44.86016" lon="3.3907">
        <ele>1194.3</ele>
        <time>2022-06-09T13:47:06Z</time>
      </trkpt>
      <trkpt lat="44.8601" lon="3.39072">
        <ele>1188.9</ele>
        <time>2022-06-09T13:47:13Z</time>
      </trkpt>
      <trkpt lat="44.86006" lon="3.39074">
        <ele>1187</ele>
        <time>2022-06-09T13:47:19Z</time>
      </trkpt>
      <trkpt lat="44.86003" lon="3.39079">
        <ele>1184.4</ele>
        <time>2022-06-09T13:47:23Z</time>
      </trkpt>
      <trkpt lat="44.85998" lon="3.39083">
        <ele>1180.2</ele>
        <time>2022-06-09T13:47:28Z</time>
      </trkpt>
      <trkpt lat="44.85993" lon="3.39087">
        <ele>1176.9</ele>
        <time>2022-06-09T13:47:32Z</time>
      </trkpt>
      <trkpt lat="44.85988" lon="3.39089">
        <ele>1175.5</ele>
        <time>2022-06-09T13:47:36Z</time>
      </trkpt>
      <trkpt lat="44.85983" lon="3.39092">
        <ele>1175.3</ele>
        <time>2022-06-09T13:47:40Z</time>
      </trkpt>
      <trkpt lat="44.85978" lon="3.39095">
        <ele>1174.6</ele>
        <time>2022-06-09T13:47:44Z</time>
      </trkpt>
      <trkpt lat="44.85973" lon="3.39097">
        <ele>1175.1</ele>
        <time>2022-06-09T13:47:49Z</time>
      </trkpt>
      <trkpt lat="44.85967" lon="3.39099">
        <ele>1176.5</ele>
        <time>2022-06-09T13:47:54Z</time>
      </trkpt>
      <trkpt lat="44.85963" lon="3.391">
        <ele>1177.1</ele>
        <time>2022-06-09T13:47:58Z</time>
      </trkpt>
      <trkpt lat="44.85958" lon="3.391">
        <ele>1177.2</ele>
        <time>2022-06-09T13:48:02Z</time>
      </trkpt>
      <trkpt lat="44.85953" lon="3.39102">
        <ele>1177.3</ele>
        <time>2022-06-09T13:48:06Z</time>
      </trkpt>
      <trkpt lat="44.85949" lon="3.39105">
        <ele>1177.1</ele>
        <time>2022-06-09T13:48:13Z</time>
      </trkpt>
      <trkpt lat="44.85945" lon="3.39107">
        <ele>1177.3</ele>
        <time>2022-06-09T13:48:18Z</time>
      </trkpt>
      <trkpt lat="44.8594" lon="3.3911">
        <ele>1177.9</ele>
        <time>2022-06-09T13:48:29Z</time>
      </trkpt>
      <trkpt lat="44.85936" lon="3.39113">
        <ele>1177.4</ele>
        <time>2022-06-09T13:48:33Z</time>
      </trkpt>
      <trkpt lat="44.85931" lon="3.39115">
        <ele>1176.1</ele>
        <time>2022-06-09T13:48:44Z</time>
      </trkpt>
      <trkpt lat="44.85928" lon="3.3912">
        <ele>1175.8</ele>
        <time>2022-06-09T13:49:03Z</time>
      </trkpt>
      <trkpt lat="44.85926" lon="3.39125">
        <ele>1179.8</ele>
        <time>2022-06-09T13:49:26Z</time>
      </trkpt>
      <trkpt lat="44.85925" lon="3.39132">
        <ele>1181.5</ele>
        <time>2022-06-09T13:49:32Z</time>
      </trkpt>
      <trkpt lat="44.85924" lon="3.39138">
        <ele>1182.6</ele>
        <time>2022-06-09T13:49:39Z</time>
      </trkpt>
      <trkpt lat="44.8592" lon="3.39142">
        <ele>1182.5</ele>
        <time>2022-06-09T13:49:44Z</time>
      </trkpt>
      <trkpt lat="44.85918" lon="3.39148">
        <ele>1183</ele>
        <time>2022-06-09T13:49:50Z</time>
      </trkpt>
      <trkpt lat="44.85914" lon="3.39153">
        <ele>1184.3</ele>
        <time>2022-06-09T13:49:56Z</time>
      </trkpt>
      <trkpt lat="44.85913" lon="3.39159">
        <ele>1185.3</ele>
        <time>2022-06-09T13:50:02Z</time>
      </trkpt>
      <trkpt lat="44.85913" lon="3.39166">
        <ele>1185.6</ele>
        <time>2022-06-09T13:50:09Z</time>
      </trkpt>
      <trkpt lat="44.85912" lon="3.39173">
        <ele>1186.2</ele>
        <time>2022-06-09T13:50:14Z</time>
      </trkpt>
      <trkpt lat="44.8591" lon="3.3918">
        <ele>1187.1</ele>
        <time>2022-06-09T13:50:21Z</time>
      </trkpt>
      <trkpt lat="44.8591" lon="3.39187">
        <ele>1187.9</ele>
        <time>2022-06-09T13:50:27Z</time>
      </trkpt>
      <trkpt lat="44.85909" lon="3.39195">
        <ele>1189.1</ele>
        <time>2022-06-09T13:50:34Z</time>
      </trkpt>
      <trkpt lat="44.85909" lon="3.39202">
        <ele>1189.9</ele>
        <time>2022-06-09T13:50:43Z</time>
      </trkpt>
      <trkpt lat="44.85909" lon="3.39209">
        <ele>1190</ele>
        <time>2022-06-09T13:50:48Z</time>
      </trkpt>
      <trkpt lat="44.85908" lon="3.39215">
        <ele>1189.9</ele>
        <time>2022-06-09T13:50:52Z</time>
      </trkpt>
      <trkpt lat="44.85907" lon="3.39222">
        <ele>1189</ele>
        <time>2022-06-09T13:51:01Z</time>
      </trkpt>
      <trkpt lat="44.85907" lon="3.39229">
        <ele>1188.4</ele>
        <time>2022-06-09T13:51:06Z</time>
      </trkpt>
      <trkpt lat="44.85907" lon="3.39236">
        <ele>1187.6</ele>
        <time>2022-06-09T13:51:12Z</time>
      </trkpt>
      <trkpt lat="44.85907" lon="3.39243">
        <ele>1187.8</ele>
        <time>2022-06-09T13:51:18Z</time>
      </trkpt>
      <trkpt lat="44.85906" lon="3.39249">
        <ele>1188.4</ele>
        <time>2022-06-09T13:51:23Z</time>
      </trkpt>
      <trkpt lat="44.85906" lon="3.39255">
        <ele>1188.1</ele>
        <time>2022-06-09T13:51:29Z</time>
      </trkpt>
      <trkpt lat="44.85907" lon="3.39263">
        <ele>1187.8</ele>
        <time>2022-06-09T13:51:36Z</time>
      </trkpt>
      <trkpt lat="44.85908" lon="3.3927">
        <ele>1187.7</ele>
        <time>2022-06-09T13:51:42Z</time>
      </trkpt>
      <trkpt lat="44.85909" lon="3.39277">
        <ele>1187.7</ele>
        <time>2022-06-09T13:51:47Z</time>
      </trkpt>
      <trkpt lat="44.85909" lon="3.39284">
        <ele>1187.9</ele>
        <time>2022-06-09T13:51:55Z</time>
      </trkpt>
      <trkpt lat="44.85909" lon="3.39291">
        <ele>1188.4</ele>
        <time>2022-06-09T13:52:01Z</time>
      </trkpt>
      <trkpt lat="44.8591" lon="3.39297">
        <ele>1189.3</ele>
        <time>2022-06-09T13:52:08Z</time>
      </trkpt>
      <trkpt lat="44.85911" lon="3.39305">
        <ele>1190.5</ele>
        <time>2022-06-09T13:52:14Z</time>
      </trkpt>
      <trkpt lat="44.85911" lon="3.39312">
        <ele>1191.4</ele>
        <time>2022-06-09T13:52:21Z</time>
      </trkpt>
      <trkpt lat="44.85912" lon="3.39319">
        <ele>1191.1</ele>
        <time>2022-06-09T13:52:26Z</time>
      </trkpt>
      <trkpt lat="44.85913" lon="3.39327">
        <ele>1189.9</ele>
        <time>2022-06-09T13:52:31Z</time>
      </trkpt>
      <trkpt lat="44.85915" lon="3.39334">
        <ele>1189.3</ele>
        <time>2022-06-09T13:52:36Z</time>
      </trkpt>
      <trkpt lat="44.85916" lon="3.3934">
        <ele>1188.7</ele>
        <time>2022-06-09T13:52:42Z</time>
      </trkpt>
      <trkpt lat="44.85916" lon="3.39346">
        <ele>1186.8</ele>
        <time>2022-06-09T13:52:51Z</time>
      </trkpt>
      <trkpt lat="44.85913" lon="3.39352">
        <ele>1188.4</ele>
        <time>2022-06-09T13:53:16Z</time>
      </trkpt>
      <trkpt lat="44.85912" lon="3.39359">
        <ele>1188.6</ele>
        <time>2022-06-09T13:53:24Z</time>
      </trkpt>
      <trkpt lat="44.85913" lon="3.39365">
        <ele>1188.6</ele>
        <time>2022-06-09T13:53:51Z</time>
      </trkpt>
      <trkpt lat="44.85916" lon="3.39371">
        <ele>1188.5</ele>
        <time>2022-06-09T13:54:15Z</time>
      </trkpt>
      <trkpt lat="44.85919" lon="3.39376">
        <ele>1186.9</ele>
        <time>2022-06-09T13:54:39Z</time>
      </trkpt>
      <trkpt lat="44.85923" lon="3.3938">
        <ele>1186</ele>
        <time>2022-06-09T13:54:45Z</time>
      </trkpt>
      <trkpt lat="44.85927" lon="3.39384">
        <ele>1185.7</ele>
        <time>2022-06-09T13:54:50Z</time>
      </trkpt>
      <trkpt lat="44.85929" lon="3.39389">
        <ele>1185.2</ele>
        <time>2022-06-09T13:54:59Z</time>
      </trkpt>
      <trkpt lat="44.85934" lon="3.39393">
        <ele>1181.9</ele>
        <time>2022-06-09T13:55:35Z</time>
      </trkpt>
      <trkpt lat="44.85937" lon="3.39397">
        <ele>1181.5</ele>
        <time>2022-06-09T13:55:47Z</time>
      </trkpt>
      <trkpt lat="44.85942" lon="3.39401">
        <ele>1180.4</ele>
        <time>2022-06-09T13:55:52Z</time>
      </trkpt>
      <trkpt lat="44.85946" lon="3.39405">
        <ele>1179.8</ele>
        <time>2022-06-09T13:56:01Z</time>
      </trkpt>
      <trkpt lat="44.85949" lon="3.3941">
        <ele>1179</ele>
        <time>2022-06-09T13:56:08Z</time>
      </trkpt>
      <trkpt lat="44.85951" lon="3.39416">
        <ele>1178</ele>
        <time>2022-06-09T13:56:30Z</time>
      </trkpt>
      <trkpt lat="44.85955" lon="3.39419">
        <ele>1177.8</ele>
        <time>2022-06-09T13:56:40Z</time>
      </trkpt>
      <trkpt lat="44.85959" lon="3.39423">
        <ele>1176.3</ele>
        <time>2022-06-09T13:57:25Z</time>
      </trkpt>
      <trkpt lat="44.85963" lon="3.39427">
        <ele>1175.9</ele>
        <time>2022-06-09T13:57:32Z</time>
      </trkpt>
      <trkpt lat="44.85968" lon="3.3943">
        <ele>1178.6</ele>
        <time>2022-06-09T13:58:03Z</time>
      </trkpt>
      <trkpt lat="44.85973" lon="3.39434">
        <ele>1177.5</ele>
        <time>2022-06-09T13:58:07Z</time>
      </trkpt>
      <trkpt lat="44.85977" lon="3.39437">
        <ele>1176.6</ele>
        <time>2022-06-09T13:58:11Z</time>
      </trkpt>
      <trkpt lat="44.85981" lon="3.39442">
        <ele>1176.9</ele>
        <time>2022-06-09T13:58:17Z</time>
      </trkpt>
      <trkpt lat="44.85984" lon="3.39447">
        <ele>1176.5</ele>
        <time>2022-06-09T13:58:22Z</time>
      </trkpt>
      <trkpt lat="44.85988" lon="3.39451">
        <ele>1176.5</ele>
        <time>2022-06-09T13:58:30Z</time>
      </trkpt>
      <trkpt lat="44.85992" lon="3.39455">
        <ele>1178.4</ele>
        <time>2022-06-09T13:58:48Z</time>
      </trkpt>
      <trkpt lat="44.85995" lon="3.39461">
        <ele>1177.3</ele>
        <time>2022-06-09T13:58:58Z</time>
      </trkpt>
      <trkpt lat="44.85998" lon="3.39466">
        <ele>1175.2</ele>
        <time>2022-06-09T13:59:03Z</time>
      </trkpt>
      <trkpt lat="44.86001" lon="3.39471">
        <ele>1172.9</ele>
        <time>2022-06-09T13:59:19Z</time>
      </trkpt>
      <trkpt lat="44.86003" lon="3.39478">
        <ele>1173.6</ele>
        <time>2022-06-09T13:59:41Z</time>
      </trkpt>
      <trkpt lat="44.86005" lon="3.39484">
        <ele>1174.3</ele>
        <time>2022-06-09T14:00:01Z</time>
      </trkpt>
      <trkpt lat="44.86005" lon="3.39491">
        <ele>1174.6</ele>
        <time>2022-06-09T14:00:07Z</time>
      </trkpt>
      <trkpt lat="44.86007" lon="3.39497">
        <ele>1174.1</ele>
        <time>2022-06-09T14:00:12Z</time>
      </trkpt>
      <trkpt lat="44.86007" lon="3.39504">
        <ele>1171</ele>
        <time>2022-06-09T14:01:11Z</time>
      </trkpt>
      <trkpt lat="44.86011" lon="3.39508">
        <ele>1171.3</ele>
        <time>2022-06-09T14:01:20Z</time>
      </trkpt>
      <trkpt lat="44.86013" lon="3.39514">
        <ele>1171.2</ele>
        <time>2022-06-09T14:01:26Z</time>
      </trkpt>
      <trkpt lat="44.86014" lon="3.39521">
        <ele>1171</ele>
        <time>2022-06-09T14:01:33Z</time>
      </trkpt>
      <trkpt lat="44.86017" lon="3.39527">
        <ele>1170.8</ele>
        <time>2022-06-09T14:01:38Z</time>
      </trkpt>
      <trkpt lat="44.86019" lon="3.39533">
        <ele>1170.4</ele>
        <time>2022-06-09T14:01:44Z</time>
      </trkpt>
      <trkpt lat="44.86021" lon="3.39539">
        <ele>1165.8</ele>
        <time>2022-06-09T14:01:56Z</time>
      </trkpt>
      <trkpt lat="44.86023" lon="3.39546">
        <ele>1164.7</ele>
        <time>2022-06-09T14:02:01Z</time>
      </trkpt>
      <trkpt lat="44.86025" lon="3.39552">
        <ele>1163.9</ele>
        <time>2022-06-09T14:02:06Z</time>
      </trkpt>
      <trkpt lat="44.86028" lon="3.39558">
        <ele>1163.1</ele>
        <time>2022-06-09T14:02:10Z</time>
      </trkpt>
      <trkpt lat="44.86029" lon="3.39564">
        <ele>1162.6</ele>
        <time>2022-06-09T14:02:14Z</time>
      </trkpt>
      <trkpt lat="44.86031" lon="3.39571">
        <ele>1161.6</ele>
        <time>2022-06-09T14:02:20Z</time>
      </trkpt>
      <trkpt lat="44.86033" lon="3.39577">
        <ele>1159.4</ele>
        <time>2022-06-09T14:02:25Z</time>
      </trkpt>
      <trkpt lat="44.86035" lon="3.39583">
        <ele>1158.5</ele>
        <time>2022-06-09T14:02:29Z</time>
      </trkpt>
      <trkpt lat="44.86036" lon="3.39589">
        <ele>1157.1</ele>
        <time>2022-06-09T14:02:34Z</time>
      </trkpt>
      <trkpt lat="44.86038" lon="3.39596">
        <ele>1156.2</ele>
        <time>2022-06-09T14:02:39Z</time>
      </trkpt>
      <trkpt lat="44.8604" lon="3.39603">
        <ele>1154.9</ele>
        <time>2022-06-09T14:02:43Z</time>
      </trkpt>
      <trkpt lat="44.86041" lon="3.39609">
        <ele>1154.8</ele>
        <time>2022-06-09T14:02:48Z</time>
      </trkpt>
      <trkpt lat="44.86044" lon="3.39616">
        <ele>1154.5</ele>
        <time>2022-06-09T14:02:52Z</time>
      </trkpt>
      <trkpt lat="44.86046" lon="3.39622">
        <ele>1154.3</ele>
        <time>2022-06-09T14:02:56Z</time>
      </trkpt>
      <trkpt lat="44.86048" lon="3.39628">
        <ele>1153.1</ele>
        <time>2022-06-09T14:03:02Z</time>
      </trkpt>
      <trkpt lat="44.8605" lon="3.39634">
        <ele>1151.5</ele>
        <time>2022-06-09T14:03:07Z</time>
      </trkpt>
      <trkpt lat="44.86048" lon="3.3964">
        <ele>1151.9</ele>
        <time>2022-06-09T14:03:20Z</time>
      </trkpt>
      <trkpt lat="44.86052" lon="3.39643">
        <ele>1152.2</ele>
        <time>2022-06-09T14:03:26Z</time>
      </trkpt>
      <trkpt lat="44.86057" lon="3.39647">
        <ele>1152.3</ele>
        <time>2022-06-09T14:03:31Z</time>
      </trkpt>
      <trkpt lat="44.86061" lon="3.39648">
        <ele>1151.9</ele>
        <time>2022-06-09T14:03:34Z</time>
      </trkpt>
      <trkpt lat="44.86066" lon="3.39651">
        <ele>1152.2</ele>
        <time>2022-06-09T14:03:40Z</time>
      </trkpt>
      <trkpt lat="44.8607" lon="3.39653">
        <ele>1152.7</ele>
        <time>2022-06-09T14:03:45Z</time>
      </trkpt>
      <trkpt lat="44.86075" lon="3.39656">
        <ele>1151.1</ele>
        <time>2022-06-09T14:03:50Z</time>
      </trkpt>
      <trkpt lat="44.86079" lon="3.39661">
        <ele>1150.1</ele>
        <time>2022-06-09T14:03:54Z</time>
      </trkpt>
      <trkpt lat="44.86083" lon="3.39666">
        <ele>1149</ele>
        <time>2022-06-09T14:03:59Z</time>
      </trkpt>
      <trkpt lat="44.86086" lon="3.39672">
        <ele>1152</ele>
        <time>2022-06-09T14:04:19Z</time>
      </trkpt>
      <trkpt lat="44.8609" lon="3.39674">
        <ele>1152.8</ele>
        <time>2022-06-09T14:04:23Z</time>
      </trkpt>
      <trkpt lat="44.86094" lon="3.39678">
        <ele>1153.6</ele>
        <time>2022-06-09T14:04:29Z</time>
      </trkpt>
      <trkpt lat="44.86098" lon="3.39682">
        <ele>1154.2</ele>
        <time>2022-06-09T14:04:37Z</time>
      </trkpt>
      <trkpt lat="44.86102" lon="3.39687">
        <ele>1153.3</ele>
        <time>2022-06-09T14:04:41Z</time>
      </trkpt>
      <trkpt lat="44.86107" lon="3.3969">
        <ele>1152.1</ele>
        <time>2022-06-09T14:04:45Z</time>
      </trkpt>
      <trkpt lat="44.86112" lon="3.39693">
        <ele>1152</ele>
        <time>2022-06-09T14:04:49Z</time>
      </trkpt>
      <trkpt lat="44.86117" lon="3.39695">
        <ele>1152.3</ele>
        <time>2022-06-09T14:04:54Z</time>
      </trkpt>
      <trkpt lat="44.86122" lon="3.39699">
        <ele>1151.8</ele>
        <time>2022-06-09T14:04:58Z</time>
      </trkpt>
      <trkpt lat="44.86126" lon="3.39702">
        <ele>1151.9</ele>
        <time>2022-06-09T14:05:02Z</time>
      </trkpt>
      <trkpt lat="44.86131" lon="3.39705">
        <ele>1151.3</ele>
        <time>2022-06-09T14:05:05Z</time>
      </trkpt>
      <trkpt lat="44.86135" lon="3.39708">
        <ele>1150.5</ele>
        <time>2022-06-09T14:05:09Z</time>
      </trkpt>
      <trkpt lat="44.86139" lon="3.39712">
        <ele>1149.1</ele>
        <time>2022-06-09T14:05:13Z</time>
      </trkpt>
      <trkpt lat="44.86143" lon="3.39715">
        <ele>1147.4</ele>
        <time>2022-06-09T14:05:18Z</time>
      </trkpt>
      <trkpt lat="44.86148" lon="3.39719">
        <ele>1146.7</ele>
        <time>2022-06-09T14:05:24Z</time>
      </trkpt>
      <trkpt lat="44.86153" lon="3.39723">
        <ele>1145.9</ele>
        <time>2022-06-09T14:05:27Z</time>
      </trkpt>
      <trkpt lat="44.86158" lon="3.39726">
        <ele>1144.8</ele>
        <time>2022-06-09T14:05:32Z</time>
      </trkpt>
      <trkpt lat="44.86162" lon="3.39729">
        <ele>1144.3</ele>
        <time>2022-06-09T14:05:37Z</time>
      </trkpt>
      <trkpt lat="44.86167" lon="3.39733">
        <ele>1144.8</ele>
        <time>2022-06-09T14:05:51Z</time>
      </trkpt>
      <trkpt lat="44.86171" lon="3.39736">
        <ele>1145.1</ele>
        <time>2022-06-09T14:05:56Z</time>
      </trkpt>
      <trkpt lat="44.86174" lon="3.39741">
        <ele>1145.2</ele>
        <time>2022-06-09T14:06:04Z</time>
      </trkpt>
      <trkpt lat="44.86177" lon="3.39747">
        <ele>1145.3</ele>
        <time>2022-06-09T14:06:09Z</time>
      </trkpt>
      <trkpt lat="44.86179" lon="3.39752">
        <ele>1146.6</ele>
        <time>2022-06-09T14:06:41Z</time>
      </trkpt>
      <trkpt lat="44.86181" lon="3.39747">
        <ele>1148.1</ele>
        <time>2022-06-09T14:07:53Z</time>
      </trkpt>
      <trkpt lat="44.86186" lon="3.39751">
        <ele>1148.3</ele>
        <time>2022-06-09T14:08:00Z</time>
      </trkpt>
      <trkpt lat="44.86189" lon="3.39755">
        <ele>1148.1</ele>
        <time>2022-06-09T14:08:04Z</time>
      </trkpt>
      <trkpt lat="44.86193" lon="3.39761">
        <ele>1147.3</ele>
        <time>2022-06-09T14:08:09Z</time>
      </trkpt>
      <trkpt lat="44.86197" lon="3.39765">
        <ele>1145.4</ele>
        <time>2022-06-09T14:08:13Z</time>
      </trkpt>
      <trkpt lat="44.86201" lon="3.39769">
        <ele>1145.5</ele>
        <time>2022-06-09T14:08:17Z</time>
      </trkpt>
      <trkpt lat="44.86205" lon="3.39773">
        <ele>1145.7</ele>
        <time>2022-06-09T14:08:20Z</time>
      </trkpt>
      <trkpt lat="44.8621" lon="3.39776">
        <ele>1145.6</ele>
        <time>2022-06-09T14:08:24Z</time>
      </trkpt>
      <trkpt lat="44.86215" lon="3.3978">
        <ele>1145.3</ele>
        <time>2022-06-09T14:08:28Z</time>
      </trkpt>
      <trkpt lat="44.8622" lon="3.39784">
        <ele>1145</ele>
        <time>2022-06-09T14:08:32Z</time>
      </trkpt>
      <trkpt lat="44.86226" lon="3.39788">
        <ele>1144.8</ele>
        <time>2022-06-09T14:08:36Z</time>
      </trkpt>
      <trkpt lat="44.8623" lon="3.3979">
        <ele>1144.1</ele>
        <time>2022-06-09T14:08:40Z</time>
      </trkpt>
      <trkpt lat="44.86235" lon="3.39792">
        <ele>1145.7</ele>
        <time>2022-06-09T14:08:46Z</time>
      </trkpt>
      <trkpt lat="44.86239" lon="3.39795">
        <ele>1147.4</ele>
        <time>2022-06-09T14:08:51Z</time>
      </trkpt>
      <trkpt lat="44.86242" lon="3.398">
        <ele>1148.2</ele>
        <time>2022-06-09T14:09:06Z</time>
      </trkpt>
      <trkpt lat="44.86246" lon="3.39804">
        <ele>1148.3</ele>
        <time>2022-06-09T14:09:10Z</time>
      </trkpt>
      <trkpt lat="44.8625" lon="3.39808">
        <ele>1148.8</ele>
        <time>2022-06-09T14:09:13Z</time>
      </trkpt>
      <trkpt lat="44.86252" lon="3.39815">
        <ele>1149.1</ele>
        <time>2022-06-09T14:09:16Z</time>
      </trkpt>
      <trkpt lat="44.86254" lon="3.39822">
        <ele>1147.6</ele>
        <time>2022-06-09T14:09:20Z</time>
      </trkpt>
      <trkpt lat="44.86254" lon="3.39829">
        <ele>1145.3</ele>
        <time>2022-06-09T14:09:25Z</time>
      </trkpt>
      <trkpt lat="44.86253" lon="3.39835">
        <ele>1144.1</ele>
        <time>2022-06-09T14:09:29Z</time>
      </trkpt>
      <trkpt lat="44.86249" lon="3.3984">
        <ele>1143.8</ele>
        <time>2022-06-09T14:09:33Z</time>
      </trkpt>
      <trkpt lat="44.86245" lon="3.39845">
        <ele>1142.7</ele>
        <time>2022-06-09T14:09:38Z</time>
      </trkpt>
      <trkpt lat="44.86242" lon="3.39851">
        <ele>1141.2</ele>
        <time>2022-06-09T14:09:43Z</time>
      </trkpt>
      <trkpt lat="44.8624" lon="3.39857">
        <ele>1139.9</ele>
        <time>2022-06-09T14:09:48Z</time>
      </trkpt>
      <trkpt lat="44.86237" lon="3.39862">
        <ele>1138.3</ele>
        <time>2022-06-09T14:09:53Z</time>
      </trkpt>
      <trkpt lat="44.86234" lon="3.39867">
        <ele>1136</ele>
        <time>2022-06-09T14:09:58Z</time>
      </trkpt>
      <trkpt lat="44.8623" lon="3.39873">
        <ele>1133.8</ele>
        <time>2022-06-09T14:10:03Z</time>
      </trkpt>
      <trkpt lat="44.86227" lon="3.39877">
        <ele>1131.8</ele>
        <time>2022-06-09T14:10:08Z</time>
      </trkpt>
      <trkpt lat="44.86222" lon="3.39882">
        <ele>1131.3</ele>
        <time>2022-06-09T14:10:11Z</time>
      </trkpt>
      <trkpt lat="44.86218" lon="3.39885">
        <ele>1131.3</ele>
        <time>2022-06-09T14:10:13Z</time>
      </trkpt>
      <trkpt lat="44.86213" lon="3.3989">
        <ele>1131</ele>
        <time>2022-06-09T14:10:16Z</time>
      </trkpt>
      <trkpt lat="44.86207" lon="3.39892">
        <ele>1131.5</ele>
        <time>2022-06-09T14:10:19Z</time>
      </trkpt>
      <trkpt lat="44.86202" lon="3.39894">
        <ele>1131.4</ele>
        <time>2022-06-09T14:10:21Z</time>
      </trkpt>
      <trkpt lat="44.86196" lon="3.39893">
        <ele>1131.8</ele>
        <time>2022-06-09T14:10:24Z</time>
      </trkpt>
      <trkpt lat="44.8619" lon="3.39893">
        <ele>1130.9</ele>
        <time>2022-06-09T14:10:27Z</time>
      </trkpt>
      <trkpt lat="44.86185" lon="3.39895">
        <ele>1130.6</ele>
        <time>2022-06-09T14:10:31Z</time>
      </trkpt>
      <trkpt lat="44.86182" lon="3.399">
        <ele>1129.2</ele>
        <time>2022-06-09T14:10:42Z</time>
      </trkpt>
      <trkpt lat="44.86178" lon="3.39906">
        <ele>1129.6</ele>
        <time>2022-06-09T14:10:47Z</time>
      </trkpt>
      <trkpt lat="44.86174" lon="3.3991">
        <ele>1130.7</ele>
        <time>2022-06-09T14:10:50Z</time>
      </trkpt>
      <trkpt lat="44.8617" lon="3.39914">
        <ele>1131.5</ele>
        <time>2022-06-09T14:10:52Z</time>
      </trkpt>
      <trkpt lat="44.86166" lon="3.39917">
        <ele>1131.1</ele>
        <time>2022-06-09T14:10:54Z</time>
      </trkpt>
      <trkpt lat="44.86162" lon="3.39921">
        <ele>1131.2</ele>
        <time>2022-06-09T14:10:57Z</time>
      </trkpt>
      <trkpt lat="44.86159" lon="3.39927">
        <ele>1128.9</ele>
        <time>2022-06-09T14:11:09Z</time>
      </trkpt>
      <trkpt lat="44.86155" lon="3.39932">
        <ele>1127.7</ele>
        <time>2022-06-09T14:11:37Z</time>
      </trkpt>
      <trkpt lat="44.86152" lon="3.39938">
        <ele>1126.4</ele>
        <time>2022-06-09T14:11:41Z</time>
      </trkpt>
      <trkpt lat="44.8615" lon="3.39946">
        <ele>1126</ele>
        <time>2022-06-09T14:11:45Z</time>
      </trkpt>
      <trkpt lat="44.86149" lon="3.39953">
        <ele>1123.8</ele>
        <time>2022-06-09T14:11:53Z</time>
      </trkpt>
      <trkpt lat="44.86149" lon="3.3996">
        <ele>1122.6</ele>
        <time>2022-06-09T14:11:58Z</time>
      </trkpt>
      <trkpt lat="44.8615" lon="3.39967">
        <ele>1123.1</ele>
        <time>2022-06-09T14:12:03Z</time>
      </trkpt>
      <trkpt lat="44.86151" lon="3.39974">
        <ele>1123.9</ele>
        <time>2022-06-09T14:12:06Z</time>
      </trkpt>
      <trkpt lat="44.86153" lon="3.39981">
        <ele>1124.3</ele>
        <time>2022-06-09T14:12:09Z</time>
      </trkpt>
      <trkpt lat="44.86156" lon="3.39987">
        <ele>1124.9</ele>
        <time>2022-06-09T14:12:12Z</time>
      </trkpt>
      <trkpt lat="44.8616" lon="3.39993">
        <ele>1125.2</ele>
        <time>2022-06-09T14:12:15Z</time>
      </trkpt>
      <trkpt lat="44.86165" lon="3.39998">
        <ele>1125.8</ele>
        <time>2022-06-09T14:12:18Z</time>
      </trkpt>
      <trkpt lat="44.86168" lon="3.40002">
        <ele>1126.7</ele>
        <time>2022-06-09T14:12:20Z</time>
      </trkpt>
      <trkpt lat="44.86172" lon="3.40006">
        <ele>1128</ele>
        <time>2022-06-09T14:12:22Z</time>
      </trkpt>
      <trkpt lat="44.86176" lon="3.40012">
        <ele>1128.3</ele>
        <time>2022-06-09T14:12:25Z</time>
      </trkpt>
      <trkpt lat="44.86178" lon="3.40019">
        <ele>1128.8</ele>
        <time>2022-06-09T14:12:29Z</time>
      </trkpt>
      <trkpt lat="44.86177" lon="3.40025">
        <ele>1129.4</ele>
        <time>2022-06-09T14:12:42Z</time>
      </trkpt>
      <trkpt lat="44.86181" lon="3.40029">
        <ele>1127.9</ele>
        <time>2022-06-09T14:12:48Z</time>
      </trkpt>
      <trkpt lat="44.86183" lon="3.40034">
        <ele>1126.9</ele>
        <time>2022-06-09T14:12:53Z</time>
      </trkpt>
      <trkpt lat="44.86185" lon="3.40042">
        <ele>1124.3</ele>
        <time>2022-06-09T14:13:04Z</time>
      </trkpt>
      <trkpt lat="44.86186" lon="3.40049">
        <ele>1124</ele>
        <time>2022-06-09T14:13:08Z</time>
      </trkpt>
      <trkpt lat="44.86186" lon="3.40056">
        <ele>1123.7</ele>
        <time>2022-06-09T14:13:12Z</time>
      </trkpt>
      <trkpt lat="44.86186" lon="3.40063">
        <ele>1116.8</ele>
        <time>2022-06-09T14:13:31Z</time>
      </trkpt>
      <trkpt lat="44.86186" lon="3.40072">
        <ele>1116.8</ele>
        <time>2022-06-09T14:13:34Z</time>
      </trkpt>
      <trkpt lat="44.86186" lon="3.4008">
        <ele>1116.9</ele>
        <time>2022-06-09T14:13:36Z</time>
      </trkpt>
      <trkpt lat="44.86185" lon="3.40088">
        <ele>1116.9</ele>
        <time>2022-06-09T14:13:38Z</time>
      </trkpt>
      <trkpt lat="44.86183" lon="3.40097">
        <ele>1116.6</ele>
        <time>2022-06-09T14:13:41Z</time>
      </trkpt>
      <trkpt lat="44.86182" lon="3.40104">
        <ele>1116.9</ele>
        <time>2022-06-09T14:13:43Z</time>
      </trkpt>
      <trkpt lat="44.8618" lon="3.40112">
        <ele>1116.9</ele>
        <time>2022-06-09T14:13:45Z</time>
      </trkpt>
      <trkpt lat="44.86179" lon="3.40119">
        <ele>1116.6</ele>
        <time>2022-06-09T14:13:47Z</time>
      </trkpt>
      <trkpt lat="44.86178" lon="3.40126">
        <ele>1116.7</ele>
        <time>2022-06-09T14:13:50Z</time>
      </trkpt>
      <trkpt lat="44.86177" lon="3.40132">
        <ele>1117</ele>
        <time>2022-06-09T14:13:54Z</time>
      </trkpt>
      <trkpt lat="44.86175" lon="3.40138">
        <ele>1117.2</ele>
        <time>2022-06-09T14:14:02Z</time>
      </trkpt>
      <trkpt lat="44.86177" lon="3.40146">
        <ele>1118.1</ele>
        <time>2022-06-09T14:14:06Z</time>
      </trkpt>
      <trkpt lat="44.8618" lon="3.40153">
        <ele>1118</ele>
        <time>2022-06-09T14:14:11Z</time>
      </trkpt>
      <trkpt lat="44.86182" lon="3.4016">
        <ele>1118.8</ele>
        <time>2022-06-09T14:14:15Z</time>
      </trkpt>
      <trkpt lat="44.86184" lon="3.40167">
        <ele>1120.6</ele>
        <time>2022-06-09T14:14:19Z</time>
      </trkpt>
      <trkpt lat="44.86185" lon="3.40174">
        <ele>1121.9</ele>
        <time>2022-06-09T14:14:24Z</time>
      </trkpt>
      <trkpt lat="44.86186" lon="3.4018">
        <ele>1122.6</ele>
        <time>2022-06-09T14:14:28Z</time>
      </trkpt>
      <trkpt lat="44.86187" lon="3.40186">
        <ele>1123.1</ele>
        <time>2022-06-09T14:14:32Z</time>
      </trkpt>
      <trkpt lat="44.86189" lon="3.40192">
        <ele>1124</ele>
        <time>2022-06-09T14:14:37Z</time>
      </trkpt>
      <trkpt lat="44.8619" lon="3.40199">
        <ele>1125.3</ele>
        <time>2022-06-09T14:14:43Z</time>
      </trkpt>
      <trkpt lat="44.86191" lon="3.40206">
        <ele>1127</ele>
        <time>2022-06-09T14:14:50Z</time>
      </trkpt>
      <trkpt lat="44.86192" lon="3.40213">
        <ele>1126.3</ele>
        <time>2022-06-09T14:14:56Z</time>
      </trkpt>
      <trkpt lat="44.86193" lon="3.4022">
        <ele>1126.5</ele>
        <time>2022-06-09T14:15:02Z</time>
      </trkpt>
      <trkpt lat="44.86194" lon="3.40226">
        <ele>1125.1</ele>
        <time>2022-06-09T14:15:08Z</time>
      </trkpt>
      <trkpt lat="44.86195" lon="3.40233">
        <ele>1125.5</ele>
        <time>2022-06-09T14:15:12Z</time>
      </trkpt>
      <trkpt lat="44.86196" lon="3.4024">
        <ele>1126</ele>
        <time>2022-06-09T14:15:18Z</time>
      </trkpt>
      <trkpt lat="44.86198" lon="3.40246">
        <ele>1126.3</ele>
        <time>2022-06-09T14:15:21Z</time>
      </trkpt>
      <trkpt lat="44.862" lon="3.40253">
        <ele>1126.2</ele>
        <time>2022-06-09T14:15:26Z</time>
      </trkpt>
      <trkpt lat="44.86203" lon="3.4026">
        <ele>1126.9</ele>
        <time>2022-06-09T14:15:31Z</time>
      </trkpt>
      <trkpt lat="44.86204" lon="3.40265">
        <ele>1127.6</ele>
        <time>2022-06-09T14:15:35Z</time>
      </trkpt>
      <trkpt lat="44.86206" lon="3.40271">
        <ele>1127.5</ele>
        <time>2022-06-09T14:15:39Z</time>
      </trkpt>
      <trkpt lat="44.86208" lon="3.40278">
        <ele>1127.2</ele>
        <time>2022-06-09T14:15:44Z</time>
      </trkpt>
      <trkpt lat="44.8621" lon="3.40285">
        <ele>1126.7</ele>
        <time>2022-06-09T14:15:49Z</time>
      </trkpt>
      <trkpt lat="44.86212" lon="3.40291">
        <ele>1127.4</ele>
        <time>2022-06-09T14:15:55Z</time>
      </trkpt>
      <trkpt lat="44.86214" lon="3.40298">
        <ele>1128.7</ele>
        <time>2022-06-09T14:16:00Z</time>
      </trkpt>
      <trkpt lat="44.86216" lon="3.40304">
        <ele>1129.2</ele>
        <time>2022-06-09T14:16:04Z</time>
      </trkpt>
      <trkpt lat="44.86218" lon="3.40311">
        <ele>1131.3</ele>
        <time>2022-06-09T14:16:09Z</time>
      </trkpt>
      <trkpt lat="44.8622" lon="3.40318">
        <ele>1131.3</ele>
        <time>2022-06-09T14:16:15Z</time>
      </trkpt>
      <trkpt lat="44.86222" lon="3.40324">
        <ele>1131.2</ele>
        <time>2022-06-09T14:16:20Z</time>
      </trkpt>
      <trkpt lat="44.86225" lon="3.4033">
        <ele>1131.2</ele>
        <time>2022-06-09T14:16:26Z</time>
      </trkpt>
      <trkpt lat="44.86226" lon="3.40337">
        <ele>1131.2</ele>
        <time>2022-06-09T14:16:31Z</time>
      </trkpt>
      <trkpt lat="44.86228" lon="3.40343">
        <ele>1131.9</ele>
        <time>2022-06-09T14:16:35Z</time>
      </trkpt>
      <trkpt lat="44.8623" lon="3.4035">
        <ele>1132</ele>
        <time>2022-06-09T14:16:40Z</time>
      </trkpt>
      <trkpt lat="44.86232" lon="3.40357">
        <ele>1133.2</ele>
        <time>2022-06-09T14:16:44Z</time>
      </trkpt>
      <trkpt lat="44.86234" lon="3.40363">
        <ele>1133.8</ele>
        <time>2022-06-09T14:16:49Z</time>
      </trkpt>
      <trkpt lat="44.86235" lon="3.40369">
        <ele>1134</ele>
        <time>2022-06-09T14:16:56Z</time>
      </trkpt>
      <trkpt lat="44.86237" lon="3.40376">
        <ele>1134.4</ele>
        <time>2022-06-09T14:17:05Z</time>
      </trkpt>
      <trkpt lat="44.86239" lon="3.40382">
        <ele>1134.2</ele>
        <time>2022-06-09T14:17:10Z</time>
      </trkpt>
      <trkpt lat="44.86241" lon="3.40389">
        <ele>1135</ele>
        <time>2022-06-09T14:17:16Z</time>
      </trkpt>
      <trkpt lat="44.86243" lon="3.40395">
        <ele>1136.7</ele>
        <time>2022-06-09T14:17:22Z</time>
      </trkpt>
      <trkpt lat="44.86246" lon="3.40401">
        <ele>1137.8</ele>
        <time>2022-06-09T14:17:27Z</time>
      </trkpt>
      <trkpt lat="44.8625" lon="3.40407">
        <ele>1138.6</ele>
        <time>2022-06-09T14:17:33Z</time>
      </trkpt>
      <trkpt lat="44.86253" lon="3.40413">
        <ele>1140.4</ele>
        <time>2022-06-09T14:17:39Z</time>
      </trkpt>
      <trkpt lat="44.86256" lon="3.40418">
        <ele>1141.3</ele>
        <time>2022-06-09T14:17:44Z</time>
      </trkpt>
      <trkpt lat="44.86259" lon="3.40424">
        <ele>1143.4</ele>
        <time>2022-06-09T14:17:50Z</time>
      </trkpt>
      <trkpt lat="44.86262" lon="3.40431">
        <ele>1145.2</ele>
        <time>2022-06-09T14:17:56Z</time>
      </trkpt>
      <trkpt lat="44.86264" lon="3.40437">
        <ele>1144</ele>
        <time>2022-06-09T14:18:01Z</time>
      </trkpt>
      <trkpt lat="44.86267" lon="3.40442">
        <ele>1144.3</ele>
        <time>2022-06-09T14:18:06Z</time>
      </trkpt>
      <trkpt lat="44.86271" lon="3.40447">
        <ele>1145.5</ele>
        <time>2022-06-09T14:18:13Z</time>
      </trkpt>
      <trkpt lat="44.86275" lon="3.4045">
        <ele>1145.2</ele>
        <time>2022-06-09T14:18:19Z</time>
      </trkpt>
      <trkpt lat="44.8628" lon="3.40453">
        <ele>1145.1</ele>
        <time>2022-06-09T14:18:25Z</time>
      </trkpt>
      <trkpt lat="44.86284" lon="3.40456">
        <ele>1145.2</ele>
        <time>2022-06-09T14:18:31Z</time>
      </trkpt>
      <trkpt lat="44.86288" lon="3.40459">
        <ele>1145</ele>
        <time>2022-06-09T14:18:36Z</time>
      </trkpt>
      <trkpt lat="44.86292" lon="3.40463">
        <ele>1146.2</ele>
        <time>2022-06-09T14:18:41Z</time>
      </trkpt>
      <trkpt lat="44.86296" lon="3.40467">
        <ele>1146.8</ele>
        <time>2022-06-09T14:18:46Z</time>
      </trkpt>
      <trkpt lat="44.86299" lon="3.40471">
        <ele>1149.2</ele>
        <time>2022-06-09T14:18:53Z</time>
      </trkpt>
      <trkpt lat="44.86302" lon="3.40477">
        <ele>1149.3</ele>
        <time>2022-06-09T14:18:58Z</time>
      </trkpt>
      <trkpt lat="44.86304" lon="3.40483">
        <ele>1148.6</ele>
        <time>2022-06-09T14:19:04Z</time>
      </trkpt>
      <trkpt lat="44.86304" lon="3.40491">
        <ele>1148.3</ele>
        <time>2022-06-09T14:19:09Z</time>
      </trkpt>
      <trkpt lat="44.86304" lon="3.40498">
        <ele>1148.5</ele>
        <time>2022-06-09T14:19:14Z</time>
      </trkpt>
      <trkpt lat="44.86303" lon="3.40504">
        <ele>1148</ele>
        <time>2022-06-09T14:19:19Z</time>
      </trkpt>
      <trkpt lat="44.86302" lon="3.40511">
        <ele>1147.2</ele>
        <time>2022-06-09T14:19:24Z</time>
      </trkpt>
      <trkpt lat="44.86302" lon="3.40518">
        <ele>1145.7</ele>
        <time>2022-06-09T14:19:31Z</time>
      </trkpt>
      <trkpt lat="44.86302" lon="3.40525">
        <ele>1145.5</ele>
        <time>2022-06-09T14:19:35Z</time>
      </trkpt>
      <trkpt lat="44.863" lon="3.40532">
        <ele>1145.1</ele>
        <time>2022-06-09T14:19:39Z</time>
      </trkpt>
      <trkpt lat="44.86298" lon="3.40538">
        <ele>1145</ele>
        <time>2022-06-09T14:19:43Z</time>
      </trkpt>
      <trkpt lat="44.86297" lon="3.40544">
        <ele>1145.1</ele>
        <time>2022-06-09T14:19:56Z</time>
      </trkpt>
      <trkpt lat="44.86295" lon="3.40551">
        <ele>1145.4</ele>
        <time>2022-06-09T14:20:11Z</time>
      </trkpt>
      <trkpt lat="44.86294" lon="3.40557">
        <ele>1145</ele>
        <time>2022-06-09T14:20:17Z</time>
      </trkpt>
      <trkpt lat="44.86294" lon="3.40564">
        <ele>1145.5</ele>
        <time>2022-06-09T14:20:24Z</time>
      </trkpt>
      <trkpt lat="44.86292" lon="3.40571">
        <ele>1145.7</ele>
        <time>2022-06-09T14:20:32Z</time>
      </trkpt>
      <trkpt lat="44.86292" lon="3.40577">
        <ele>1147.3</ele>
        <time>2022-06-09T14:20:38Z</time>
      </trkpt>
      <trkpt lat="44.86293" lon="3.40584">
        <ele>1147.7</ele>
        <time>2022-06-09T14:20:56Z</time>
      </trkpt>
      <trkpt lat="44.86294" lon="3.40592">
        <ele>1147.1</ele>
        <time>2022-06-09T14:21:03Z</time>
      </trkpt>
      <trkpt lat="44.86294" lon="3.40599">
        <ele>1146.7</ele>
        <time>2022-06-09T14:21:08Z</time>
      </trkpt>
      <trkpt lat="44.86296" lon="3.40606">
        <ele>1146.2</ele>
        <time>2022-06-09T14:21:14Z</time>
      </trkpt>
      <trkpt lat="44.86297" lon="3.40613">
        <ele>1144.7</ele>
        <time>2022-06-09T14:21:20Z</time>
      </trkpt>
      <trkpt lat="44.86299" lon="3.4062">
        <ele>1144.3</ele>
        <time>2022-06-09T14:21:26Z</time>
      </trkpt>
      <trkpt lat="44.86298" lon="3.40626">
        <ele>1145</ele>
        <time>2022-06-09T14:21:33Z</time>
      </trkpt>
      <trkpt lat="44.86298" lon="3.40633">
        <ele>1145.2</ele>
        <time>2022-06-09T14:21:38Z</time>
      </trkpt>
      <trkpt lat="44.86299" lon="3.4064">
        <ele>1146.3</ele>
        <time>2022-06-09T14:21:43Z</time>
      </trkpt>
      <trkpt lat="44.863" lon="3.40647">
        <ele>1147.5</ele>
        <time>2022-06-09T14:21:48Z</time>
      </trkpt>
      <trkpt lat="44.86301" lon="3.40654">
        <ele>1147.4</ele>
        <time>2022-06-09T14:21:53Z</time>
      </trkpt>
      <trkpt lat="44.86303" lon="3.4066">
        <ele>1148.2</ele>
        <time>2022-06-09T14:21:59Z</time>
      </trkpt>
      <trkpt lat="44.86303" lon="3.40667">
        <ele>1149.5</ele>
        <time>2022-06-09T14:22:05Z</time>
      </trkpt>
      <trkpt lat="44.86303" lon="3.40674">
        <ele>1150.6</ele>
        <time>2022-06-09T14:22:11Z</time>
      </trkpt>
      <trkpt lat="44.863" lon="3.40679">
        <ele>1151.7</ele>
        <time>2022-06-09T14:22:37Z</time>
      </trkpt>
      <trkpt lat="44.86298" lon="3.40685">
        <ele>1152.5</ele>
        <time>2022-06-09T14:22:42Z</time>
      </trkpt>
      <trkpt lat="44.86295" lon="3.4069">
        <ele>1152.2</ele>
        <time>2022-06-09T14:22:48Z</time>
      </trkpt>
      <trkpt lat="44.86292" lon="3.40695">
        <ele>1152.2</ele>
        <time>2022-06-09T14:22:52Z</time>
      </trkpt>
      <trkpt lat="44.86288" lon="3.407">
        <ele>1154</ele>
        <time>2022-06-09T14:22:56Z</time>
      </trkpt>
      <trkpt lat="44.86288" lon="3.40708">
        <ele>1155.3</ele>
        <time>2022-06-09T14:23:05Z</time>
      </trkpt>
      <trkpt lat="44.86288" lon="3.40715">
        <ele>1155.6</ele>
        <time>2022-06-09T14:23:11Z</time>
      </trkpt>
      <trkpt lat="44.86287" lon="3.40723">
        <ele>1155.8</ele>
        <time>2022-06-09T14:23:17Z</time>
      </trkpt>
      <trkpt lat="44.86287" lon="3.4073">
        <ele>1156.9</ele>
        <time>2022-06-09T14:23:22Z</time>
      </trkpt>
      <trkpt lat="44.86288" lon="3.40736">
        <ele>1156.7</ele>
        <time>2022-06-09T14:23:27Z</time>
      </trkpt>
      <trkpt lat="44.86291" lon="3.40742">
        <ele>1152.3</ele>
        <time>2022-06-09T14:23:38Z</time>
      </trkpt>
      <trkpt lat="44.86291" lon="3.40749">
        <ele>1152.9</ele>
        <time>2022-06-09T14:23:45Z</time>
      </trkpt>
      <trkpt lat="44.86292" lon="3.40755">
        <ele>1154.2</ele>
        <time>2022-06-09T14:23:51Z</time>
      </trkpt>
      <trkpt lat="44.86294" lon="3.40762">
        <ele>1154.7</ele>
        <time>2022-06-09T14:23:57Z</time>
      </trkpt>
      <trkpt lat="44.86295" lon="3.40769">
        <ele>1153.2</ele>
        <time>2022-06-09T14:24:03Z</time>
      </trkpt>
      <trkpt lat="44.86299" lon="3.40773">
        <ele>1150.9</ele>
        <time>2022-06-09T14:24:46Z</time>
      </trkpt>
      <trkpt lat="44.86301" lon="3.40778">
        <ele>1148.4</ele>
        <time>2022-06-09T14:26:45Z</time>
      </trkpt>
      <trkpt lat="44.86302" lon="3.40785">
        <ele>1148.4</ele>
        <time>2022-06-09T14:26:51Z</time>
      </trkpt>
      <trkpt lat="44.86306" lon="3.40789">
        <ele>1139.8</ele>
        <time>2022-06-09T14:26:58Z</time>
      </trkpt>
      <trkpt lat="44.86308" lon="3.40795">
        <ele>1143.5</ele>
        <time>2022-06-09T14:27:03Z</time>
      </trkpt>
      <trkpt lat="44.8631" lon="3.40802">
        <ele>1146.9</ele>
        <time>2022-06-09T14:27:11Z</time>
      </trkpt>
      <trkpt lat="44.86312" lon="3.40808">
        <ele>1146.3</ele>
        <time>2022-06-09T14:27:16Z</time>
      </trkpt>
      <trkpt lat="44.86315" lon="3.40815">
        <ele>1146.3</ele>
        <time>2022-06-09T14:27:20Z</time>
      </trkpt>
      <trkpt lat="44.86316" lon="3.40822">
        <ele>1146.4</ele>
        <time>2022-06-09T14:27:25Z</time>
      </trkpt>
      <trkpt lat="44.86318" lon="3.40828">
        <ele>1147.3</ele>
        <time>2022-06-09T14:27:29Z</time>
      </trkpt>
      <trkpt lat="44.8632" lon="3.40836">
        <ele>1148.2</ele>
        <time>2022-06-09T14:27:34Z</time>
      </trkpt>
      <trkpt lat="44.86322" lon="3.40842">
        <ele>1147.9</ele>
        <time>2022-06-09T14:27:38Z</time>
      </trkpt>
      <trkpt lat="44.86323" lon="3.40848">
        <ele>1149.5</ele>
        <time>2022-06-09T14:27:44Z</time>
      </trkpt>
      <trkpt lat="44.86325" lon="3.40854">
        <ele>1152.1</ele>
        <time>2022-06-09T14:27:49Z</time>
      </trkpt>
      <trkpt lat="44.86327" lon="3.4086">
        <ele>1152.7</ele>
        <time>2022-06-09T14:27:53Z</time>
      </trkpt>
      <trkpt lat="44.86328" lon="3.40867">
        <ele>1152.9</ele>
        <time>2022-06-09T14:27:58Z</time>
      </trkpt>
      <trkpt lat="44.86328" lon="3.40874">
        <ele>1153.6</ele>
        <time>2022-06-09T14:28:04Z</time>
      </trkpt>
      <trkpt lat="44.86329" lon="3.4088">
        <ele>1153.4</ele>
        <time>2022-06-09T14:28:08Z</time>
      </trkpt>
      <trkpt lat="44.86331" lon="3.40887">
        <ele>1152.5</ele>
        <time>2022-06-09T14:28:14Z</time>
      </trkpt>
      <trkpt lat="44.86333" lon="3.40893">
        <ele>1152.2</ele>
        <time>2022-06-09T14:28:21Z</time>
      </trkpt>
      <trkpt lat="44.86333" lon="3.409">
        <ele>1152.2</ele>
        <time>2022-06-09T14:28:25Z</time>
      </trkpt>
      <trkpt lat="44.86333" lon="3.40907">
        <ele>1152.3</ele>
        <time>2022-06-09T14:28:30Z</time>
      </trkpt>
      <trkpt lat="44.86334" lon="3.40914">
        <ele>1151.3</ele>
        <time>2022-06-09T14:28:34Z</time>
      </trkpt>
      <trkpt lat="44.86334" lon="3.4092">
        <ele>1150.4</ele>
        <time>2022-06-09T14:28:41Z</time>
      </trkpt>
      <trkpt lat="44.86334" lon="3.40927">
        <ele>1150.9</ele>
        <time>2022-06-09T14:28:45Z</time>
      </trkpt>
      <trkpt lat="44.86333" lon="3.40935">
        <ele>1152</ele>
        <time>2022-06-09T14:28:50Z</time>
      </trkpt>
      <trkpt lat="44.86332" lon="3.40941">
        <ele>1151.1</ele>
        <time>2022-06-09T14:28:55Z</time>
      </trkpt>
      <trkpt lat="44.8633" lon="3.40947">
        <ele>1151.1</ele>
        <time>2022-06-09T14:28:59Z</time>
      </trkpt>
      <trkpt lat="44.86326" lon="3.40952">
        <ele>1152.1</ele>
        <time>2022-06-09T14:29:07Z</time>
      </trkpt>
      <trkpt lat="44.86325" lon="3.40959">
        <ele>1151.6</ele>
        <time>2022-06-09T14:29:15Z</time>
      </trkpt>
      <trkpt lat="44.86326" lon="3.40966">
        <ele>1152.4</ele>
        <time>2022-06-09T14:29:20Z</time>
      </trkpt>
      <trkpt lat="44.86325" lon="3.40973">
        <ele>1153.6</ele>
        <time>2022-06-09T14:29:26Z</time>
      </trkpt>
      <trkpt lat="44.86325" lon="3.4098">
        <ele>1156.2</ele>
        <time>2022-06-09T14:29:36Z</time>
      </trkpt>
      <trkpt lat="44.86329" lon="3.40986">
        <ele>1158.2</ele>
        <time>2022-06-09T14:29:43Z</time>
      </trkpt>
      <trkpt lat="44.86332" lon="3.4099">
        <ele>1156.2</ele>
        <time>2022-06-09T14:29:56Z</time>
      </trkpt>
      <trkpt lat="44.86327" lon="3.40988">
        <ele>1150.2</ele>
        <time>2022-06-09T14:31:37Z</time>
      </trkpt>
      <trkpt lat="44.86324" lon="3.40993">
        <ele>1148.8</ele>
        <time>2022-06-09T14:31:44Z</time>
      </trkpt>
      <trkpt lat="44.86319" lon="3.40995">
        <ele>1148.9</ele>
        <time>2022-06-09T14:31:48Z</time>
      </trkpt>
      <trkpt lat="44.86315" lon="3.40997">
        <ele>1151.1</ele>
        <time>2022-06-09T14:32:07Z</time>
      </trkpt>
      <trkpt lat="44.8631" lon="3.41">
        <ele>1153</ele>
        <time>2022-06-09T14:32:12Z</time>
      </trkpt>
      <trkpt lat="44.86307" lon="3.41005">
        <ele>1154.2</ele>
        <time>2022-06-09T14:32:18Z</time>
      </trkpt>
      <trkpt lat="44.86301" lon="3.41007">
        <ele>1151.9</ele>
        <time>2022-06-09T14:32:36Z</time>
      </trkpt>
      <trkpt lat="44.86297" lon="3.41009">
        <ele>1151.7</ele>
        <time>2022-06-09T14:32:41Z</time>
      </trkpt>
      <trkpt lat="44.86292" lon="3.41009">
        <ele>1151.9</ele>
        <time>2022-06-09T14:32:48Z</time>
      </trkpt>
      <trkpt lat="44.86287" lon="3.41009">
        <ele>1153.4</ele>
        <time>2022-06-09T14:32:55Z</time>
      </trkpt>
      <trkpt lat="44.86283" lon="3.41008">
        <ele>1152.2</ele>
        <time>2022-06-09T14:34:27Z</time>
      </trkpt>
    </trkseg>
  </trk>
</gpx>